GFSSW_sfc_dewp_003.txt.gz
Dewpoint
53 52 52 52 52 52 52 52 53 53 53 53 54 54 55 55 55 44 25 36 39 56 52 31 20 14 10 8 7 7 3 2 2 3 4 6 7 17 21 17 21 26 30 46 54
53 53 53 52 52 52 53 53 53 53 53 53 54 54 55 55 42 26 46 53 54 54 28 18 14 12 10 7 10 8 7 8 9 6 6 4 6 12 16 19 24 30 41 48 51
53 52 52 52 52 53 53 53 53 52 53 54 55 55 55 55 33 27 57 57 55 48 30 24 20 12 12 14 14 15 10 9 12 16 13 11 9 15 14 14 17 25 35 44 47
54 54 53 54 53 53 53 53 53 53 54 55 55 55 56 50 24 30 57 57 57 40 28 21 19 18 17 15 16 15 16 17 20 20 17 17 19 17 17 18 25 27 32 39 42
54 54 54 54 54 54 54 55 54 54 54 55 55 56 54 33 30 33 53 50 30 26 22 21 19 20 17 18 20 21 21 23 23 24 24 25 22 22 21 23 27 31 35 36 37
54 54 54 54 54 55 55 55 54 54 54 55 55 56 48 28 33 33 34 32 30 28 27 26 25 26 24 23 23 24 25 26 26 25 24 24 19 21 21 26 27 29 30 31 30
54 54 54 54 54 54 54 55 55 54 54 55 55 52 33 31 32 33 34 33 32 30 27 25 28 29 28 30 30 26 25 24 24 21 22 23 15 21 18 25 23 27 29 29 28
53 54 53 53 53 54 54 54 54 54 55 55 56 49 31 34 33 32 32 32 32 31 30 29 30 29 33 31 28 22 23 10 15 19 20 17 8 12 17 21 22 23 25 27 29
54 54 53 53 53 53 53 53 53 54 55 55 48 36 29 40 31 32 33 31 32 32 32 28 25 25 30 25 21 14 10 13 14 14 16 14 13 11 14 17 20 20 19 23 27
53 54 53 53 53 53 53 53 54 54 50 41 30 32 30 29 31 31 33 33 30 31 31 26 25 23 18 16 14 14 16 17 17 14 16 17 17 17 16 15 15 16 20 20 22
53 53 53 53 53 53 53 47 39 34 35 31 29 27 26 28 30 28 31 32 29 29 24 25 23 20 20 23 21 20 20 19 18 19 21 21 20 17 15 15 16 18 21 22 23
53 53 52 52 53 52 54 41 47 45 31 30 28 27 28 28 25 25 28 28 26 21 22 26 24 23 23 22 21 20 21 20 20 20 23 21 18 16 16 18 18 20 22 24 25
52 53 52 51 52 54 49 48 51 51 31 28 30 26 28 28 25 25 27 26 22 19 18 20 25 24 21 20 21 21 23 22 21 23 22 21 16 15 18 19 20 23 25 24 25
52 52 51 51 48 51 48 50 54 55 33 24 26 27 26 26 25 27 26 27 25 22 19 22 24 22 21 19 23 21 24 24 24 23 18 21 11 15 16 16 19 22 25 26 27
52 52 51 52 51 44 48 51 56 56 36 28 26 28 26 24 25 26 27 28 25 23 23 25 20 19 20 22 24 24 26 26 26 25 23 19 16 15 17 15 17 21 24 27 28
52 52 52 47 53 49 51 55 56 43 29 28 26 26 26 26 26 25 25 26 24 21 20 18 21 24 22 25 26 26 28 27 26 25 24 23 18 13 16 17 19 21 24 27 28
52 52 51 52 48 54 57 54 40 36 31 25 26 26 26 26 26 25 25 27 25 25 23 21 22 23 26 26 28 28 27 28 27 26 23 21 20 20 19 20 20 22 25 27 30
52 53 53 52 53 58 54 42 36 32 28 28 27 26 26 28 27 25 24 25 29 28 26 24 24 21 28 27 28 28 27 30 27 23 23 22 19 18 19 20 21 24 26 29 30
51 56 52 56 57 57 46 41 35 29 28 26 26 26 27 27 27 26 27 26 28 30 29 28 24 28 26 30 29 29 30 29 28 28 27 23 21 22 22 21 24 25 27 30 32
51 51 49 57 58 54 47 34 30 29 29 28 25 26 25 25 25 26 27 28 28 31 33 32 30 30 29 31 30 31 30 30 32 32 25 22 23 22 23 24 24 26 28 31 33
55 45 52 56 55 43 42 34 29 30 30 30 28 27 27 27 28 28 28 29 30 31 33 33 34 32 32 30 29 31 31 29 27 29 29 26 24 27 28 30 29 29 30 32 32
52 43 52 55 44 42 39 31 33 31 32 32 32 31 31 32 32 30 29 32 33 33 32 36 34 34 31 31 29 29 31 31 31 28 31 32 29 30 31 30 29 30 31 32 33
43 42 52 54 46 46 36 35 35 32 33 33 34 35 35 34 34 32 33 36 34 33 35 35 35 32 27 29 30 30 29 30 32 34 32 32 30 28 29 31 31 30 31 32 33
43 49 46 46 44 39 37 36 36 38 36 36 35 36 35 35 35 34 34 35 37 37 42 39 35 34 31 31 31 32 30 31 32 36 34 33 32 30 30 30 30 31 32 32 33
41 44 41 46 44 41 39 36 36 36 38 37 36 35 35 36 35 32 34 35 36 39 38 39 36 34 33 31 30 30 30 30 29 31 32 32 29 29 30 30 31 31 32 32 33
45 45 45 42 38 37 38 35 34 34 34 34 35 36 36 35 36 35 35 36 35 35 37 37 37 36 35 33 32 32 30 30 29 29 28 30 29 30 30 31 30 32 32 35 35
46 45 50 42 39 40 38 34 33 35 37 36 36 37 39 39 39 39 40 39 38 38 40 39 38 37 32 32 34 33 34 32 31 29 29 29 31 29 28 30 32 35 35 35 36

GFSSW_sfc_dewp_006.txt.gz
Dewpoint
53 53 53 53 53 53 53 53 54 54 54 54 55 55 56 56 55 48 27 38 41 57 54 33 28 12 12 5 6 7 5 1 1 4 3 4 4 14 16 14 18 20 31 50 55
53 53 53 53 53 53 53 54 54 54 54 54 55 55 56 56 48 24 47 55 55 55 34 20 14 11 9 7 10 11 9 7 6 5 8 5 4 10 10 13 18 25 32 44 50
53 53 53 53 53 53 53 54 54 54 54 54 55 56 56 55 39 26 55 57 56 50 32 27 21 13 14 14 14 14 9 9 11 15 10 10 9 13 11 12 21 21 30 36 41
54 54 53 54 54 54 54 54 54 54 55 55 56 56 56 49 25 29 54 56 58 41 30 24 19 18 17 16 17 15 16 17 19 19 18 19 20 18 17 17 23 24 28 34 37
54 54 54 54 55 55 55 55 55 55 55 55 55 56 53 35 29 32 52 51 36 28 24 21 21 23 17 17 20 19 20 22 22 23 21 21 19 20 19 19 24 24 31 33 36
54 54 54 54 54 55 55 55 55 55 55 55 55 56 49 28 31 32 32 31 29 28 25 26 24 25 24 24 23 23 22 22 22 20 19 21 18 16 16 20 23 25 30 32 34
54 54 54 54 54 54 55 55 55 55 55 55 56 52 35 29 30 32 32 31 30 28 25 24 28 27 29 28 25 23 23 24 23 17 14 19 13 12 19 23 22 22 27 28 29
54 54 54 54 54 54 54 54 54 55 55 55 56 51 31 32 33 30 31 30 30 29 27 27 28 27 30 27 28 22 22 12 13 16 17 15 10 12 16 17 20 21 24 27 28
54 54 54 54 53 54 54 54 54 55 55 56 53 49 29 41 30 30 31 30 30 31 32 27 27 25 29 28 22 17 13 15 17 15 14 14 14 14 16 14 17 21 21 23 27
54 54 53 53 54 53 54 54 54 54 53 48 40 31 29 28 29 30 31 32 31 30 30 27 27 25 20 20 18 18 18 19 19 18 19 20 20 19 19 17 18 19 21 22 23
54 54 53 53 54 53 53 48 38 40 33 30 27 27 25 27 30 24 25 29 29 28 23 22 25 20 19 22 20 18 19 18 19 19 20 21 21 19 16 16 20 21 24 26 27
53 53 52 52 54 53 54 45 46 48 30 27 26 25 25 27 24 24 25 26 25 21 20 20 25 21 20 19 19 16 18 21 21 22 23 22 21 19 17 19 20 21 25 27 28
53 53 52 51 53 56 49 47 50 52 40 26 27 25 26 27 23 23 24 25 21 18 17 18 24 20 19 19 20 18 23 23 22 24 23 21 16 18 17 19 20 24 26 26 28
53 53 52 51 48 49 47 50 55 57 37 25 26 27 25 24 25 27 23 25 25 21 17 21 21 19 20 19 21 20 24 25 26 25 21 24 15 15 17 18 20 24 30 31 31
53 53 53 51 54 44 49 51 56 58 37 28 25 27 25 23 23 25 26 26 24 21 21 26 21 17 19 21 23 23 27 28 27 27 25 21 16 16 17 15 18 25 27 32 33
52 53 53 50 57 51 52 57 57 46 34 27 25 25 25 25 24 24 25 26 24 21 19 16 20 21 21 23 25 27 28 27 27 26 29 23 21 18 16 18 18 21 26 31 33
52 53 52 53 52 54 59 55 44 37 29 25 26 25 24 25 25 24 24 28 27 27 25 22 21 23 25 25 27 28 28 31 32 32 29 22 21 23 23 21 21 24 28 33 37
52 52 55 54 55 59 56 45 37 30 27 28 26 25 25 26 27 24 25 25 29 29 26 26 26 23 27 27 28 28 28 35 27 25 26 25 20 18 20 21 22 25 31 31 37
51 58 55 59 59 59 49 41 36 29 28 27 25 24 27 26 24 25 27 27 29 30 29 30 26 27 28 28 29 28 30 30 31 31 30 27 25 26 24 23 25 27 28 34 35
54 51 51 58 59 57 49 36 30 29 28 27 26 26 25 26 25 27 27 29 29 32 33 32 30 30 29 31 31 30 31 30 36 31 24 22 25 24 27 29 31 31 32 35 37
58 48 54 55 57 48 43 34 29 28 30 31 28 26 27 28 29 28 28 30 31 31 33 34 34 32 33 30 29 29 30 32 29 32 30 28 26 31 30 32 33 32 33 34 36
57 46 54 56 46 44 38 31 34 31 32 33 33 32 32 32 32 31 30 33 34 34 32 37 35 35 32 32 29 28 30 30 34 31 32 32 30 32 33 33 33 33 33 34 36
44 44 54 55 47 46 36 33 34 31 34 33 34 35 35 34 34 34 34 37 35 34 36 36 36 31 28 30 30 31 30 30 32 36 32 32 31 32 33 33 33 32 34 34 35
44 47 47 47 43 39 36 35 35 37 35 35 35 36 35 34 35 34 33 36 38 37 42 39 34 33 31 31 32 32 30 31 31 31 30 31 30 30 31 31 31 34 35 34 34
42 44 43 48 43 41 38 35 35 35 37 36 35 34 34 36 36 32 33 36 37 41 38 37 36 34 33 32 32 32 31 30 29 29 28 29 28 28 29 29 32 34 35 35 35
47 45 43 41 38 37 37 34 33 34 32 33 34 34 35 36 35 35 36 37 36 36 39 40 37 37 35 34 32 31 32 32 30 29 28 29 28 30 29 32 34 35 36 36 38
46 45 52 43 41 41 39 33 32 34 38 35 36 37 38 38 40 40 40 39 39 38 39 39 38 34 31 33 33 32 32 31 30 29 29 28 29 30 30 34 36 37 37 39 39

GFSSW_sfc_dewp_009.txt.gz
Dewpoint
53 53 53 54 54 54 54 54 55 55 54 55 55 56 56 56 55 49 30 37 40 55 57 40 34 30 23 13 6 8 8 6 4 3 5 4 7 16 17 16 19 29 49 51 56
53 53 53 53 53 53 54 54 55 55 54 54 55 56 57 56 50 30 45 54 57 59 37 32 27 22 12 11 15 13 7 5 12 12 9 10 8 11 10 11 21 32 51 54 56
54 53 53 53 53 54 54 54 54 55 55 56 56 57 56 55 47 28 51 58 59 58 37 32 29 25 15 15 16 15 12 17 18 20 16 16 20 17 13 15 24 26 39 50 53
54 54 53 54 55 55 55 55 55 55 55 56 56 57 56 52 26 31 52 55 57 51 35 29 26 22 18 17 18 17 19 21 20 20 20 22 21 21 18 20 24 24 35 36 39
54 54 54 54 55 55 56 55 55 56 55 55 56 56 52 42 30 33 51 49 44 35 30 27 26 26 21 22 23 21 21 23 22 22 22 24 20 21 19 19 24 26 32 35 37
54 54 54 54 55 55 55 55 55 55 55 55 56 56 49 33 32 33 32 32 30 29 24 25 27 28 28 25 25 27 24 24 23 22 20 22 22 20 16 20 23 26 31 37 34
54 54 54 54 54 54 55 55 54 54 55 55 56 52 48 34 31 31 33 33 30 29 27 27 29 29 31 32 29 25 22 25 23 20 15 17 14 14 17 23 22 24 28 29 31
54 54 54 53 54 54 54 54 54 54 55 55 56 52 35 35 34 31 30 34 32 31 31 30 28 31 33 30 29 26 26 19 22 19 19 15 12 14 16 23 22 21 24 27 28
54 54 53 53 53 53 53 53 54 55 55 55 53 50 32 40 31 30 33 32 33 33 32 30 31 29 31 29 27 21 18 19 20 18 18 18 17 21 22 18 19 21 21 25 26
54 54 53 53 53 53 53 53 54 53 53 49 47 41 33 31 31 30 27 29 32 33 33 34 30 27 24 22 18 18 18 19 20 19 20 20 21 22 22 21 18 19 21 22 24
54 54 53 52 53 52 52 51 39 42 44 30 28 29 26 27 32 26 26 27 30 31 27 25 25 21 19 23 23 19 18 19 22 23 24 22 22 22 21 18 19 21 24 25 26
53 53 53 52 53 53 53 48 48 51 39 33 28 27 30 30 27 25 26 26 27 24 24 23 25 23 21 21 22 20 22 24 24 26 26 24 22 22 19 19 21 25 24 25 26
53 53 53 52 52 55 48 48 54 56 46 31 31 29 30 30 27 25 25 26 26 22 20 23 25 22 21 23 22 21 25 25 25 27 27 24 22 18 21 20 24 25 25 25 25
53 53 53 51 47 52 47 50 56 57 43 27 30 30 29 29 32 27 27 29 30 24 19 26 23 20 21 23 22 20 27 27 27 27 24 26 20 18 19 19 23 24 26 27 28
52 53 53 51 55 48 49 53 54 57 30 34 28 28 26 26 25 28 27 30 24 21 24 26 21 19 23 22 23 24 29 28 29 28 26 24 19 16 20 20 22 26 28 29 30
52 53 53 52 54 52 55 58 56 43 29 31 29 29 31 29 29 26 29 31 29 26 22 20 22 23 24 25 27 29 31 30 32 28 25 26 23 21 20 19 22 27 29 30 30
52 52 53 55 52 55 58 56 42 32 33 27 29 28 29 28 29 27 28 30 30 29 29 28 23 25 29 27 30 29 30 27 25 25 25 25 24 23 25 24 25 27 27 28 29
52 51 56 58 58 58 58 46 34 33 29 31 29 28 29 27 29 28 29 29 31 31 30 29 27 28 29 29 28 29 29 27 22 24 25 27 24 23 26 24 26 27 26 31 31
51 54 54 57 59 58 51 38 33 32 30 30 29 28 30 31 28 29 30 30 31 32 31 32 29 32 29 31 30 30 31 31 28 28 26 28 27 24 28 30 31 31 31 31 32
53 56 51 56 57 56 47 34 32 32 30 32 30 29 29 28 30 29 30 32 33 34 35 34 31 34 34 34 32 30 33 29 30 24 24 25 26 25 30 30 31 33 32 34 35
56 50 53 54 57 51 39 32 30 30 33 34 33 32 32 32 33 32 32 34 34 35 35 36 35 33 35 34 32 30 30 32 33 31 29 27 28 31 31 31 33 32 33 35 35
54 45 52 56 47 47 37 34 35 34 37 37 37 36 35 36 35 34 35 36 37 35 36 37 34 29 32 33 33 28 32 32 31 32 30 30 30 32 33 34 32 33 34 35 34
51 49 55 54 40 37 36 37 38 37 36 36 37 37 38 36 33 36 37 40 35 38 36 36 32 27 28 30 34 33 32 33 33 29 28 25 28 32 32 32 33 34 35 35 36
49 37 49 49 47 38 37 37 37 40 38 38 37 38 37 36 37 34 35 40 40 39 42 39 35 31 28 30 33 32 32 32 32 25 28 29 29 29 29 31 33 35 36 36 37
47 42 42 39 42 40 40 38 37 38 40 38 38 37 36 33 34 35 38 38 39 42 39 38 31 35 35 35 34 32 31 31 31 30 29 29 28 29 30 33 36 37 38 37 39
46 46 47 41 40 39 37 37 36 34 35 37 36 38 37 36 38 36 39 38 37 39 38 39 32 33 34 35 35 33 32 32 31 31 30 30 28 31 31 38 38 38 38 39 40
48 47 49 42 38 37 37 37 37 38 40 38 38 38 34 41 41 41 41 41 40 38 36 35 32 29 32 33 33 26 29 31 31 29 30 28 32 38 37 38 39 39 40 40 40

GFSSW_sfc_dewp_012.txt.gz
Dewpoint
53 53 53 53 54 55 54 54 55 55 55 55 55 56 57 57 55 45 26 34 38 58 55 40 33 30 26 20 12 9 7 7 9 7 9 8 12 15 16 16 24 44 45 47 50
53 53 54 54 53 54 55 55 55 55 55 55 56 57 57 56 49 29 41 53 57 59 30 30 28 28 15 12 15 10 8 15 13 10 11 14 15 12 10 19 33 48 53 56 58
54 53 53 53 54 54 55 55 55 55 55 56 56 57 56 55 39 27 49 55 58 57 38 35 32 28 16 16 16 29 17 17 19 19 18 21 21 20 15 20 32 47 53 55 56
54 55 54 53 54 56 56 55 55 55 56 56 56 57 56 50 24 30 53 57 59 49 35 30 27 25 18 20 20 17 21 20 20 21 21 21 22 21 33 18 25 50 53 54 54
54 55 54 55 55 56 56 55 55 55 55 55 56 57 48 35 31 32 54 46 32 33 29 25 27 27 25 24 24 21 22 22 22 22 21 23 20 20 20 21 25 37 41 48 49
54 54 54 54 55 55 55 55 55 55 55 55 56 56 45 30 32 32 33 32 30 29 25 26 27 28 29 25 24 27 25 23 23 23 24 22 22 21 20 21 23 33 33 35 37
54 54 54 54 54 54 55 55 54 54 55 55 56 52 48 30 32 33 33 31 30 32 28 27 29 27 29 30 29 26 23 23 24 22 17 17 14 14 16 22 23 29 31 32 33
54 54 53 53 53 53 54 54 54 54 54 55 56 51 31 35 34 30 31 32 33 32 31 29 29 30 32 31 31 26 23 20 22 23 18 14 12 14 18 22 22 23 27 31 32
54 53 53 53 52 53 52 52 53 54 55 55 51 47 33 38 30 30 30 30 32 34 34 30 32 30 28 25 21 21 17 19 21 20 21 17 16 20 23 22 22 22 23 27 27
54 53 53 52 52 52 51 52 53 51 54 52 47 38 32 30 30 29 26 27 30 33 32 34 30 25 23 20 16 18 17 17 21 21 25 22 21 23 23 21 20 20 21 22 24
54 53 53 52 52 52 50 49 46 37 42 29 29 29 27 27 31 25 26 28 29 34 28 27 23 20 19 21 22 21 20 21 23 24 26 24 24 25 21 20 22 24 25 27 30
53 53 53 52 52 51 53 47 48 48 38 31 29 28 29 29 27 25 26 25 28 22 21 27 23 23 21 24 22 21 24 24 25 26 28 26 25 21 19 19 24 25 25 26 28
53 53 53 51 51 51 48 48 55 54 43 29 31 29 27 29 28 25 25 27 27 23 22 24 24 23 22 23 22 21 25 25 25 28 28 26 23 18 20 24 24 25 25 25 27
53 53 52 52 47 51 48 49 53 55 36 29 30 30 29 28 30 27 27 28 27 24 21 25 23 19 24 23 23 21 25 27 27 27 23 27 23 21 19 21 24 25 25 25 27
52 53 52 52 52 48 49 54 56 51 25 32 28 27 26 26 26 26 27 29 24 21 22 25 20 18 23 22 25 23 27 29 29 28 26 25 21 18 19 19 22 26 28 29 29
52 52 52 54 51 50 55 57 53 40 27 30 29 29 29 29 26 27 32 32 32 30 27 21 22 22 23 26 30 30 30 31 31 28 25 25 23 20 22 23 27 29 28 30 30
52 51 52 55 49 55 57 51 39 29 34 28 30 29 30 27 29 28 31 30 29 25 28 30 25 25 29 28 30 30 30 26 23 24 23 27 25 22 25 26 26 27 29 30 30
51 51 55 57 57 56 52 42 30 33 30 30 29 29 29 27 28 30 29 29 32 31 31 31 28 30 29 30 28 29 30 26 22 24 25 28 24 24 29 31 31 27 29 30 30
51 54 52 53 57 57 47 34 30 32 31 29 30 28 29 29 27 30 31 31 31 33 30 31 29 33 32 31 30 30 29 31 27 28 26 27 28 27 27 31 33 33 33 33 34
50 53 48 54 55 53 39 33 31 33 33 35 31 31 29 31 31 30 31 34 33 35 36 34 31 35 35 35 33 31 32 28 29 20 25 27 26 26 29 32 33 33 34 35 36
56 45 47 54 54 44 33 31 31 31 34 34 34 34 34 34 34 32 34 35 35 34 37 35 33 32 33 33 32 30 31 31 32 30 26 25 28 31 31 33 34 33 34 34 35
51 37 44 54 43 43 34 33 35 34 37 37 37 36 35 35 35 35 35 36 37 37 36 36 33 29 31 33 34 33 32 33 27 29 29 30 28 31 33 32 34 34 34 36 36
47 45 51 50 35 33 36 37 38 37 36 37 37 37 37 36 33 36 37 39 35 38 35 35 30 26 24 27 34 33 32 33 33 29 28 23 25 30 31 32 35 35 37 37 38
44 38 45 47 45 36 35 37 36 39 38 37 36 37 36 36 36 33 36 39 39 38 41 38 33 28 25 26 33 32 32 31 31 25 29 29 29 30 31 35 37 38 38 38 39
45 39 41 36 39 38 39 39 37 37 39 37 36 36 35 32 33 37 39 39 39 41 38 36 30 33 33 34 34 34 33 34 32 30 29 29 29 30 36 37 38 38 39 39 39
43 43 44 39 41 36 37 36 37 34 37 36 37 39 37 36 36 35 38 37 37 38 37 38 30 31 32 35 35 34 34 33 33 32 31 31 29 38 38 39 39 39 39 39 40
49 48 44 38 36 34 35 36 37 38 39 37 37 36 32 39 40 40 41 40 39 38 34 34 30 29 28 33 32 29 30 31 30 31 30 28 32 38 38 39 39 39 39 39 41

GFSSW_sfc_dewp_015.txt.gz
Dewpoint
54 54 53 53 53 54 54 55 55 55 55 55 56 56 57 57 55 49 23 33 37 58 55 34 31 29 26 19 11 10 9 9 7 7 13 12 13 15 16 34 33 47 43 45 55
54 54 54 54 55 54 54 55 55 55 54 55 56 56 57 56 50 29 41 53 57 57 32 31 29 28 13 15 15 10 11 14 13 10 12 15 22 14 20 38 45 46 52 52 58
55 54 54 54 54 54 55 55 55 55 55 55 56 56 56 55 30 25 49 55 59 57 38 36 33 27 18 18 16 17 16 15 18 17 16 21 20 20 17 32 44 40 49 55 57
54 54 54 54 54 54 55 55 55 55 55 56 56 57 57 49 14 24 55 58 58 51 33 28 28 24 23 21 22 17 21 19 19 21 21 21 33 23 32 18 40 44 51 56 56
54 54 54 55 55 56 55 55 55 55 55 55 56 57 49 30 30 32 54 46 31 30 26 27 27 27 25 24 23 20 21 21 22 22 21 23 19 19 19 20 26 49 53 54 54
54 54 54 54 55 55 55 54 54 55 55 55 56 57 42 28 31 33 32 32 30 29 26 25 27 29 28 28 23 26 24 23 24 22 23 23 21 21 21 21 26 48 51 52 51
54 54 54 54 54 54 54 54 54 54 54 55 56 51 41 30 32 32 31 32 32 32 27 29 28 26 30 29 30 27 23 24 24 23 21 20 13 14 18 21 24 40 48 46 46
54 54 53 53 53 53 53 53 54 54 54 55 55 51 29 34 34 30 30 31 31 32 32 29 30 28 28 30 29 22 21 18 20 23 18 15 13 14 18 19 22 28 32 34 37
53 53 53 52 52 52 53 53 54 54 55 55 49 44 32 38 29 30 26 25 28 33 34 31 30 28 25 19 18 20 16 17 19 24 25 18 16 18 23 21 21 22 25 30 31
53 53 52 52 52 52 52 53 54 54 52 50 46 33 29 27 29 26 26 29 28 31 31 31 28 23 22 19 16 17 17 18 19 22 27 25 22 24 25 22 21 22 22 23 25
53 53 53 52 52 52 50 48 44 34 41 29 28 28 26 26 29 25 26 28 29 26 25 27 22 18 19 21 21 20 23 23 23 24 27 26 26 27 25 21 22 23 22 28 30
53 53 52 52 51 52 50 47 46 44 32 36 29 28 28 29 24 26 26 24 26 22 23 26 21 22 23 23 21 23 24 22 25 26 28 27 25 19 19 20 24 27 27 28 31
53 53 53 51 50 50 49 51 55 52 34 30 30 28 28 27 26 25 25 27 25 21 25 24 24 21 23 23 21 21 24 23 24 27 28 26 23 19 21 24 24 25 26 27 30
52 53 52 52 50 50 47 50 54 50 30 28 28 28 27 28 26 27 26 28 23 21 21 24 21 20 24 22 23 21 24 26 26 27 23 26 21 20 19 21 24 25 25 26 27
52 52 52 53 49 47 50 54 56 47 23 30 27 28 27 25 25 26 31 26 24 26 23 25 18 21 21 22 25 25 29 28 29 28 27 24 20 22 23 19 25 28 27 28 29
52 52 52 53 49 50 55 54 51 36 25 28 28 28 27 28 27 31 33 33 34 31 29 27 23 23 24 26 29 30 30 30 30 28 23 25 23 22 23 24 27 28 28 30 29
52 52 53 55 44 54 55 48 36 28 33 27 28 28 29 26 27 31 31 31 30 21 28 31 29 29 29 28 30 30 30 24 21 24 23 27 23 24 26 27 27 26 28 29 30
51 52 55 56 55 55 48 41 28 32 30 30 28 28 27 26 27 31 30 30 32 31 32 29 25 31 31 29 28 29 30 25 18 23 25 27 23 24 27 31 30 31 31 33 33
52 55 50 51 56 54 43 32 29 32 31 29 30 28 29 31 28 30 31 31 33 33 29 31 28 33 34 34 31 30 29 31 27 28 25 27 28 28 29 32 34 33 34 35 35
52 48 46 53 55 45 38 32 30 32 33 34 29 32 28 32 31 30 31 34 33 36 35 34 31 34 34 34 33 30 32 28 29 18 23 27 27 27 29 32 31 33 34 35 36
55 38 44 54 50 40 32 30 30 31 34 34 34 33 34 33 34 32 33 34 35 34 36 34 33 31 31 30 30 31 31 31 31 29 26 23 27 32 30 32 32 34 35 35 36
47 34 43 51 41 39 32 32 35 35 37 36 37 35 35 35 34 34 34 35 36 37 34 36 32 28 30 32 34 32 32 32 29 28 28 27 27 31 31 33 35 36 37 37 36
46 44 49 45 34 32 35 37 38 36 36 36 36 36 37 35 32 35 36 37 34 36 34 34 30 25 22 26 30 32 32 33 32 29 28 24 24 31 32 35 37 37 38 38 38
41 36 44 44 42 35 34 36 35 38 37 36 36 37 36 34 36 33 36 39 40 37 41 38 32 27 24 23 31 31 32 33 30 25 27 28 28 30 32 37 38 38 39 39 39
42 36 41 35 38 39 38 37 35 35 37 37 37 37 35 31 32 36 38 38 38 41 38 35 30 32 32 32 33 33 33 34 33 32 30 30 30 31 35 37 38 39 39 39 39
43 42 41 39 40 35 36 34 37 35 36 36 36 37 37 34 34 34 37 36 36 37 36 37 29 32 30 34 35 33 34 34 34 33 32 31 29 34 38 39 39 40 39 39 39
47 45 42 36 35 33 34 35 36 37 37 37 38 36 31 37 40 40 40 39 38 37 34 33 30 30 24 32 31 24 29 32 31 30 30 28 30 38 38 39 38 38 39 39 39

GFSSW_sfc_dewp_018.txt.gz
Dewpoint
55 55 54 54 53 53 54 54 55 55 55 55 55 56 56 57 55 49 23 32 36 56 56 34 30 29 24 14 9 11 9 7 5 7 16 15 25 16 22 38 36 47 46 49 57
54 54 53 54 55 55 54 54 55 55 55 55 56 56 56 56 50 28 43 52 57 57 35 32 28 24 15 16 16 12 10 20 12 9 29 23 19 12 26 40 44 45 50 55 57
54 53 54 55 55 54 55 55 55 55 55 56 56 56 56 55 29 24 55 58 60 55 37 35 32 22 21 20 18 29 15 16 18 16 16 20 20 19 31 37 39 36 48 56 56
55 55 55 54 54 54 55 55 55 55 55 56 56 56 56 49 23 25 57 57 59 46 29 28 28 25 24 20 22 17 19 18 19 21 21 20 32 22 23 17 32 41 52 56 56
54 54 54 55 55 55 55 55 55 55 56 55 56 56 51 29 30 31 54 46 32 28 26 27 26 27 25 23 23 20 22 21 23 21 21 23 20 19 19 20 26 46 53 56 57
54 54 54 54 55 55 55 54 54 55 55 55 56 56 41 28 31 33 32 31 31 30 26 26 26 29 28 26 23 26 25 24 24 23 24 22 21 24 20 21 24 47 50 54 55
54 53 53 54 54 54 54 54 54 54 54 55 56 53 32 31 32 31 30 32 31 32 29 28 29 26 30 28 30 26 23 21 22 23 19 27 15 14 20 20 22 40 49 51 52
53 53 53 53 53 53 53 53 53 54 54 55 56 49 30 34 35 29 26 25 28 33 32 31 30 28 26 30 23 20 19 16 20 23 20 16 17 16 17 20 20 24 44 49 49
53 53 52 52 52 52 53 53 53 54 55 55 47 41 29 38 28 29 25 25 27 30 34 32 30 27 23 17 17 19 17 18 19 25 26 25 22 21 22 24 23 21 28 39 40
53 53 52 52 52 52 52 53 53 53 51 46 41 28 27 25 28 27 27 29 27 31 29 28 25 20 21 19 13 20 15 20 19 23 26 27 24 26 27 25 22 22 22 27 30
53 53 52 52 52 52 51 48 36 31 37 27 27 27 25 26 29 26 27 27 26 24 23 28 22 18 19 21 21 19 21 22 23 25 27 27 26 23 20 23 24 22 22 23 27
53 53 52 51 51 52 49 47 47 43 27 32 28 27 28 28 25 26 26 25 25 21 24 25 20 21 23 23 21 22 22 19 24 26 28 27 25 21 23 24 25 27 28 29 30
53 53 53 52 50 50 50 50 55 50 27 28 28 28 27 26 26 25 25 28 23 21 24 23 22 24 23 22 23 22 21 21 23 26 27 25 21 21 20 24 25 25 26 29 30
52 53 52 51 48 49 46 50 55 44 28 26 26 27 26 27 25 27 29 27 23 20 22 23 20 23 24 22 24 23 23 25 25 26 23 26 19 22 23 22 25 25 25 26 28
52 53 53 49 49 46 49 54 55 42 17 28 25 27 28 24 25 31 33 25 27 26 25 23 18 22 25 24 25 25 30 30 28 27 27 24 19 20 24 22 25 26 27 28 28
52 53 52 50 49 49 55 52 49 30 22 27 28 27 27 28 28 31 33 34 33 30 31 29 25 25 25 26 30 30 31 28 29 27 23 25 22 22 23 24 26 28 28 29 29
51 53 54 53 42 53 53 47 33 26 32 26 26 27 27 26 30 31 31 32 30 19 28 31 29 32 29 29 31 30 28 21 21 23 22 27 23 25 27 27 29 32 33 34 34
52 53 54 55 54 53 46 39 26 31 29 30 27 29 26 26 30 32 30 30 32 31 31 29 22 31 32 29 28 29 29 23 14 22 25 27 22 25 30 32 33 34 35 35 35
53 52 48 52 54 50 41 31 28 31 30 28 30 28 28 32 30 30 31 31 33 34 28 30 27 33 34 34 31 30 28 31 26 27 25 26 28 28 30 33 33 34 34 35 36
53 43 47 53 53 42 37 32 29 32 32 33 28 31 28 32 30 29 31 33 33 36 34 34 30 33 33 33 32 30 31 27 28 18 21 25 26 25 30 31 33 34 35 36 36
51 37 44 54 46 39 31 28 29 33 34 33 33 32 32 32 32 31 32 33 34 34 35 33 32 28 29 29 29 31 30 31 30 29 22 23 26 31 30 32 33 35 37 37 36
42 34 45 49 38 36 31 31 35 36 37 36 36 35 34 34 34 33 33 34 35 36 33 35 31 27 27 31 34 33 31 30 25 25 27 25 25 31 32 34 36 37 38 39 38
44 43 47 44 32 31 35 37 37 35 36 35 35 36 37 35 32 34 34 37 37 35 35 34 29 23 18 28 29 32 32 32 30 28 28 26 23 29 31 34 37 38 38 39 39
40 37 43 44 40 34 34 34 35 37 36 36 36 36 35 34 36 34 36 38 39 38 41 38 31 25 21 21 27 30 32 32 31 28 27 27 27 29 31 33 38 38 39 39 39
40 38 40 34 37 37 37 35 35 33 36 37 36 35 34 31 33 34 37 36 37 40 38 35 30 31 31 31 32 33 33 33 32 31 30 29 29 31 33 36 38 39 39 40 39
41 41 40 39 39 34 35 36 36 35 35 35 35 36 35 32 32 33 36 35 34 37 35 36 28 31 30 32 33 31 33 34 34 33 33 33 33 33 37 39 38 39 39 39 39
45 44 42 36 33 32 33 34 35 36 37 37 37 34 31 36 39 39 39 38 37 35 33 33 30 27 22 30 29 21 25 30 31 32 29 27 28 36 36 36 36 38 38 38 38

GFSSW_sfc_dewp_021.txt.gz
Dewpoint
54 55 55 55 55 54 53 55 55 55 55 55 55 56 56 57 56 50 28 34 37 57 53 34 30 29 20 15 13 13 11 7 6 8 12 15 13 16 29 41 36 44 48 49 59
55 54 54 53 55 55 55 55 55 55 55 55 56 56 56 56 49 30 43 57 60 58 35 29 27 21 19 18 19 15 14 12 11 10 15 18 13 13 26 36 41 44 50 55 60
55 54 53 53 54 55 55 55 55 55 56 56 56 56 56 56 34 28 55 59 59 54 36 33 28 25 23 23 22 20 17 17 17 14 19 21 20 19 28 26 33 31 47 57 59
54 55 55 54 55 55 55 55 55 55 56 56 56 56 56 50 26 28 55 57 58 45 32 31 30 27 25 21 22 20 19 19 19 21 21 18 20 20 25 18 26 38 52 57 58
54 54 54 55 55 55 55 55 55 55 55 56 56 56 51 34 31 32 53 45 32 30 28 29 29 29 25 24 24 23 21 21 22 20 20 22 20 19 20 22 26 42 55 56 57
54 54 54 55 55 55 55 55 54 54 55 55 56 56 43 31 33 33 31 31 31 31 27 29 28 30 30 25 27 25 24 24 23 23 21 22 22 21 20 20 29 45 52 56 57
54 54 54 54 54 55 55 54 54 54 54 55 56 53 36 36 33 33 27 33 29 34 30 28 30 29 31 28 30 25 20 21 24 23 21 21 19 16 18 19 22 38 47 54 56
54 53 53 53 53 53 54 54 53 54 54 55 56 50 35 35 36 28 27 28 29 33 33 33 33 31 28 29 23 20 21 17 20 25 25 23 20 21 22 22 22 25 33 48 53
53 53 52 52 52 52 53 53 53 54 54 55 50 42 35 37 29 29 28 28 30 34 35 30 32 28 25 20 17 19 14 17 21 26 27 26 23 25 25 27 27 26 25 36 48
53 53 52 52 52 52 52 52 53 53 51 46 37 34 29 26 27 28 28 31 30 36 32 31 26 24 24 18 13 18 17 20 21 23 28 27 26 26 22 24 24 24 24 26 37
53 53 52 52 52 51 51 49 35 35 38 30 32 28 26 26 29 28 28 30 28 30 28 29 24 21 20 22 21 20 21 22 23 25 27 27 26 22 25 27 29 29 29 27 29
53 53 53 52 51 52 52 47 43 44 30 34 30 30 29 29 27 28 30 27 29 25 26 26 23 21 24 23 21 22 21 19 24 26 28 27 23 22 25 25 27 29 30 32 32
53 53 53 52 51 51 52 52 54 50 30 30 31 30 29 29 28 28 29 32 25 26 25 26 20 25 24 25 26 25 21 22 23 26 28 25 22 24 22 25 26 27 29 30 32
52 53 53 51 48 51 49 52 55 50 30 28 28 27 28 30 27 31 33 29 28 22 24 24 21 25 27 24 25 24 24 27 27 27 23 27 18 24 24 25 27 29 31 30 31
52 53 52 48 50 47 51 55 57 43 21 29 27 28 30 27 29 31 34 32 29 27 27 23 24 27 28 25 27 27 30 30 29 28 27 26 20 23 25 25 28 31 32 34 35
52 52 52 49 52 53 55 54 50 29 21 29 29 28 28 30 32 33 34 35 33 32 32 28 28 27 26 28 31 31 30 28 30 28 25 26 23 25 25 28 31 33 35 36 36
53 53 54 51 46 55 53 48 34 26 32 27 27 28 28 28 31 32 32 33 31 24 30 30 29 32 31 30 32 32 28 24 26 27 25 27 23 27 30 31 33 34 36 37 38
53 52 53 55 55 55 48 40 27 31 30 31 28 30 27 29 31 33 31 31 34 32 31 28 23 31 34 30 28 31 30 28 18 23 25 28 24 27 32 33 35 35 36 37 38
52 50 50 53 55 50 43 33 30 31 30 29 30 29 30 33 30 32 33 31 33 35 29 31 26 33 35 34 31 30 31 31 28 28 28 26 28 31 33 33 34 35 37 37 38
50 46 49 53 53 45 39 32 32 34 33 33 29 32 29 32 31 31 31 34 32 36 35 34 30 32 33 33 33 31 32 29 31 25 21 24 27 25 30 31 33 36 37 38 38
46 44 47 54 47 40 34 32 32 35 37 34 33 33 33 34 32 32 32 34 34 35 36 33 33 28 29 32 31 32 31 32 31 31 28 26 24 32 31 32 33 37 38 39 39
42 42 49 50 38 37 34 32 36 37 38 37 37 36 35 35 35 34 34 34 36 37 34 35 32 29 26 32 34 33 31 30 28 25 30 30 25 30 34 34 36 38 39 40 40
44 45 48 47 35 35 38 38 37 36 37 36 37 38 38 35 34 36 36 39 38 37 35 35 32 24 16 28 29 32 33 32 31 31 29 28 24 29 33 34 37 38 39 39 41
41 41 44 43 40 37 36 36 36 39 37 38 37 38 36 35 37 36 36 40 41 39 41 39 32 25 21 19 27 29 32 32 32 32 28 29 27 29 30 32 37 38 37 39 40
41 40 42 36 38 38 38 36 36 35 38 38 37 36 35 33 35 36 37 37 37 40 39 37 33 32 32 32 32 32 32 32 32 32 31 29 29 30 32 34 37 37 39 39 38
41 42 41 39 39 37 36 37 37 36 36 37 36 38 36 34 33 34 37 37 35 38 38 37 33 34 32 33 32 31 31 32 33 33 33 33 33 35 35 39 37 37 37 38 39
46 45 44 36 34 35 35 37 36 38 38 39 38 36 34 37 39 40 40 39 38 37 36 36 34 31 27 30 29 27 26 30 31 33 32 28 29 35 37 36 35 36 38 38 37

GFSSW_sfc_dewp_024.txt.gz
Dewpoint
56 54 54 55 55 55 54 55 55 55 55 55 56 56 57 57 56 46 29 38 42 57 53 32 29 28 16 15 14 13 7 7 8 8 11 13 12 17 31 33 37 39 41 47 55
56 55 54 55 53 55 55 56 55 55 55 56 56 56 57 56 45 28 48 59 61 59 34 25 20 18 16 18 18 12 8 9 10 12 10 11 11 16 23 23 28 37 46 52 57
55 55 54 54 54 54 56 56 55 55 56 56 56 57 56 55 31 28 56 59 59 55 31 27 23 20 18 20 19 16 10 14 12 14 13 13 14 14 15 16 18 20 38 52 56
54 55 54 54 54 55 56 55 55 55 56 56 56 57 56 47 22 29 55 57 58 40 31 28 23 19 16 13 16 14 16 10 14 17 15 13 15 16 16 16 23 28 37 48 51
55 54 55 55 55 55 55 55 55 56 56 55 56 56 51 30 28 29 53 46 31 29 26 25 20 20 15 18 20 20 21 22 21 19 21 22 19 19 18 19 23 33 43 45 47
54 54 55 55 55 56 56 55 55 55 55 55 56 56 40 26 31 31 27 28 30 28 28 27 26 24 25 24 22 25 23 23 23 23 22 22 21 21 19 20 23 34 38 43 45
54 54 54 54 55 55 55 55 54 54 55 55 56 52 31 28 30 28 26 28 29 31 28 30 30 26 29 29 28 25 22 23 23 23 25 21 18 17 22 21 21 30 36 41 44
54 54 54 54 54 54 54 54 54 54 54 55 56 48 29 32 32 26 25 27 31 33 32 31 30 29 29 27 22 20 20 15 23 24 25 24 18 21 26 25 24 23 28 40 44
53 53 53 52 53 53 53 53 53 54 54 54 48 37 25 37 25 27 27 27 31 33 33 29 29 27 25 21 16 15 9 12 18 24 24 23 18 24 24 24 26 27 28 29 37
53 52 52 52 52 52 52 53 53 53 50 45 33 28 25 24 27 27 27 29 29 31 29 27 26 21 20 12 9 12 12 18 16 21 23 24 23 22 25 25 25 26 27 28 32
54 53 52 52 52 52 52 49 37 34 32 27 27 25 25 26 28 27 27 27 26 27 23 26 22 21 20 22 19 18 17 17 18 24 26 26 21 23 25 26 28 28 29 30 33
54 54 53 52 52 53 54 41 44 42 28 29 27 27 27 28 24 28 30 24 25 22 26 22 23 23 22 21 21 21 19 19 23 25 28 25 21 23 25 27 28 28 30 30 32
53 54 53 52 53 55 53 52 55 50 27 28 29 27 27 29 30 29 29 27 23 22 22 21 21 23 22 25 24 24 23 25 24 26 28 25 23 22 24 26 27 29 30 30 32
53 53 53 52 50 51 49 53 57 50 25 24 24 26 27 27 28 32 32 27 25 23 22 22 24 26 26 25 27 23 25 29 28 26 18 27 18 23 23 26 29 32 35 36 35
53 53 52 51 53 44 51 56 59 51 23 27 25 28 29 26 27 30 34 29 25 25 26 21 24 26 26 26 29 28 32 30 30 28 25 24 19 25 24 26 29 34 36 37 37
53 53 52 52 57 54 57 57 55 34 21 26 27 26 28 30 30 30 32 32 32 29 26 26 28 29 30 29 30 32 31 30 31 30 26 27 25 23 24 28 30 34 36 38 39
53 54 53 53 50 58 58 51 32 26 31 24 26 27 28 29 30 31 32 33 28 25 27 26 28 30 33 28 32 30 29 26 27 27 25 27 24 29 30 31 33 34 36 38 39
52 53 54 55 58 59 53 41 24 30 27 28 27 28 27 29 31 32 30 29 33 30 27 25 25 30 34 31 30 31 30 30 21 21 23 27 21 27 31 32 34 35 36 38 39
52 54 55 57 59 56 42 36 32 28 28 26 27 26 28 30 30 31 33 31 33 34 29 28 25 33 33 33 32 31 32 32 30 31 29 23 27 31 32 33 33 34 35 36 38
49 50 52 58 57 52 43 34 31 32 31 29 26 29 27 30 29 30 31 33 32 35 36 33 28 31 30 33 34 32 32 31 33 31 19 16 22 22 32 32 33 34 35 37 38
51 41 53 57 54 43 39 34 31 34 35 31 31 31 32 31 31 31 31 33 34 35 35 31 32 28 29 29 30 32 32 32 30 32 28 24 17 31 30 32 33 34 37 37 38
51 40 54 56 41 40 36 32 36 35 37 36 37 35 34 34 34 34 33 34 37 36 31 36 33 27 22 31 34 32 31 29 31 26 31 29 22 29 30 34 35 35 37 39 38
47 47 52 53 44 43 38 36 36 35 36 35 36 37 37 36 34 35 35 38 37 36 35 36 32 21 22 29 33 31 31 31 30 33 28 31 24 28 32 34 32 36 36 35 36
46 48 46 45 42 38 37 36 36 38 37 37 37 37 37 36 37 36 36 39 40 38 41 41 33 23 19 18 24 23 24 28 30 33 27 27 25 26 26 27 32 35 36 36 36
45 46 45 46 41 39 38 36 35 34 38 37 36 36 35 37 35 36 37 37 37 40 40 38 30 30 28 27 27 28 28 27 28 30 29 29 24 26 28 30 33 35 36 35 36
46 46 46 43 41 39 39 37 35 36 35 35 35 36 34 33 29 34 34 34 32 38 38 38 34 34 32 30 29 29 28 28 29 30 29 29 29 30 31 33 35 35 35 36 36
50 46 49 41 40 41 39 37 35 38 39 38 38 38 38 36 37 40 40 39 37 36 37 38 38 35 33 30 31 33 29 26 29 29 30 29 28 30 31 34 36 36 36 37 38

GFSSW_sfc_dewp_027.txt.gz
Dewpoint
57 56 55 55 54 55 56 56 55 55 55 55 56 57 57 57 56 48 29 39 43 57 51 32 30 25 18 14 13 11 10 9 8 8 8 10 9 12 20 21 26 30 38 42 52
56 56 56 55 55 54 55 56 56 56 55 56 56 57 57 57 46 26 47 59 61 60 35 25 22 16 14 14 10 11 9 8 7 7 7 7 7 13 20 19 23 30 35 46 50
56 55 55 55 55 55 55 56 56 55 56 56 57 57 57 55 41 25 57 58 59 56 32 23 16 15 14 13 11 10 9 9 7 8 6 5 6 9 12 15 19 23 32 44 47
56 55 55 55 55 55 55 56 56 55 56 56 56 57 57 50 23 28 55 58 60 43 28 22 18 16 14 13 12 9 7 5 7 10 11 9 10 10 10 15 19 23 33 40 43
55 55 55 55 56 55 55 56 55 55 56 56 56 57 52 39 25 28 51 49 34 29 23 19 16 14 10 10 10 11 10 9 12 14 16 17 14 11 13 16 18 25 33 39 43
55 55 55 55 55 56 56 55 55 55 55 55 56 56 48 27 28 27 27 26 27 23 20 19 17 16 12 14 16 18 19 20 19 20 20 20 17 19 18 19 19 24 30 35 37
55 55 55 55 55 55 55 55 55 55 55 55 56 50 38 28 27 26 25 26 28 29 22 25 22 18 21 23 21 20 19 21 21 22 22 21 15 15 18 19 20 25 27 32 36
54 54 54 54 55 54 54 54 54 55 55 55 55 49 30 29 28 24 23 25 28 30 29 28 28 26 25 26 20 18 19 17 21 22 23 23 19 17 22 22 22 21 27 31 35
54 54 54 53 53 53 54 54 54 54 55 55 50 48 25 36 25 23 25 24 29 31 30 26 29 24 27 22 18 16 14 11 18 20 21 19 18 23 23 23 22 22 23 26 33
53 53 53 53 53 53 53 53 54 53 50 44 35 29 23 21 23 25 27 30 29 30 28 26 24 22 20 16 12 10 8 11 12 19 18 17 18 21 24 24 25 26 26 27 28
52 53 53 52 53 53 51 47 39 41 33 27 24 24 21 23 27 25 26 28 28 28 25 24 21 19 18 18 16 12 11 12 15 20 20 21 19 22 24 25 26 26 28 30 35
53 53 53 53 53 53 54 42 44 40 27 27 27 27 27 26 22 26 28 26 27 21 23 18 21 22 19 18 16 17 18 18 20 21 23 22 19 22 24 26 28 28 30 32 34
53 53 54 53 53 55 50 48 51 46 26 26 27 25 26 26 26 26 27 24 19 18 15 20 22 21 21 21 20 22 21 24 22 23 23 23 20 22 24 26 28 29 30 31 32
54 54 54 53 51 51 47 51 55 53 27 21 23 24 25 27 27 29 30 26 21 16 17 21 23 22 22 22 25 22 25 26 25 23 19 24 16 22 23 25 30 33 35 35 34
54 54 53 53 51 42 50 54 57 55 24 25 24 28 25 26 27 28 30 26 20 22 25 22 22 24 24 26 27 27 30 28 27 26 22 22 15 23 23 25 30 34 35 37 38
54 54 53 52 57 52 54 57 57 38 23 24 25 25 27 28 28 29 28 30 30 23 22 23 26 28 28 28 28 30 30 28 29 27 25 20 21 22 22 26 31 34 36 38 38
54 54 53 54 47 57 59 52 29 29 26 23 25 26 26 27 29 28 29 30 28 26 26 25 26 29 32 28 30 29 28 28 27 27 26 26 22 28 30 31 32 34 36 37 38
53 55 56 56 57 59 54 36 29 29 23 25 25 26 25 27 29 29 27 28 30 27 24 23 27 28 29 29 28 28 28 31 22 23 22 24 17 27 31 32 33 34 35 36 37
53 57 55 60 61 58 41 33 28 24 26 25 25 25 26 27 28 30 31 29 31 32 28 26 25 30 30 31 31 30 31 30 29 33 28 18 26 31 31 32 33 33 34 36 36
47 47 49 60 61 54 39 34 30 30 27 26 25 28 25 27 28 28 29 32 31 32 34 30 28 29 27 31 33 29 31 31 33 29 20 13 17 19 31 31 33 33 34 36 37
49 39 55 60 57 38 36 33 31 32 32 28 28 27 29 29 29 29 30 32 32 32 31 27 28 27 24 26 24 27 30 29 28 29 27 22 18 27 27 29 30 32 34 35 37
50 38 56 58 36 36 37 32 37 33 36 34 34 32 32 32 31 32 31 34 35 34 29 32 30 28 19 27 30 29 28 28 30 25 29 30 24 27 26 30 32 31 34 37 37
42 44 55 55 42 39 38 35 34 34 33 34 35 35 36 34 33 34 35 38 35 35 35 34 32 25 22 28 32 28 27 28 28 32 27 31 26 26 29 31 33 33 34 35 35
44 47 45 46 43 36 36 35 35 38 36 36 36 36 36 34 35 35 36 38 40 38 41 39 30 25 24 22 22 23 23 22 25 30 30 27 24 24 25 27 29 30 33 35 35
44 45 45 43 41 38 37 35 34 34 36 36 35 34 34 34 34 34 35 38 38 39 37 36 32 27 27 24 22 22 23 24 23 25 28 27 25 26 28 30 30 32 34 34 34
42 45 47 46 41 39 39 36 33 34 34 33 34 34 33 35 29 32 32 31 31 36 35 35 34 35 32 26 22 23 23 24 24 25 25 26 26 29 30 29 30 33 33 34 35
50 50 48 43 42 40 39 36 34 37 39 34 36 34 37 34 37 38 39 36 34 34 35 36 38 33 34 32 32 34 30 23 24 26 26 28 29 29 29 32 34 36 37 38 40

GFSSW_sfc_dewp_030.txt.gz
Dewpoint
57 57 57 57 54 54 55 56 57 56 55 56 56 57 57 57 56 52 36 39 43 56 52 32 30 28 25 18 16 13 17 16 15 17 13 12 12 14 20 19 24 35 36 48 51
57 56 56 57 57 55 56 55 56 56 56 56 57 57 57 57 50 38 48 59 59 60 36 31 25 23 17 16 12 11 12 8 7 8 7 7 6 14 21 19 25 33 45 50 49
56 56 56 56 57 56 56 56 56 56 56 56 57 57 57 55 45 28 57 58 59 58 41 31 19 16 15 13 11 10 10 9 6 9 4 6 6 13 14 16 24 26 41 46 48
56 56 56 56 57 56 56 56 56 56 56 56 57 57 57 52 27 27 55 55 60 43 37 21 16 16 13 11 10 8 5 3 7 9 6 5 5 8 12 17 20 27 33 44 45
55 56 55 55 56 56 56 55 56 56 56 56 56 57 54 41 28 28 51 52 40 37 30 22 18 14 11 9 9 7 2 6 8 11 15 13 10 10 12 16 20 28 34 40 41
56 56 55 55 56 56 56 56 55 56 56 56 56 57 50 33 26 25 25 25 24 24 19 18 17 14 9 9 12 13 12 13 14 17 16 15 16 17 15 17 17 25 32 38 41
56 56 55 55 55 56 56 55 55 55 55 55 56 52 43 31 24 24 23 24 25 26 24 22 20 15 18 20 17 16 17 18 19 20 20 18 16 14 18 19 20 23 26 34 36
55 55 55 55 55 55 55 54 54 55 55 56 55 51 39 29 27 23 21 21 23 26 26 24 25 26 24 22 16 14 18 17 18 19 21 21 18 14 19 20 20 21 26 28 35
55 55 54 54 54 54 54 54 54 55 55 55 52 48 32 37 24 21 22 22 25 27 28 24 27 20 23 19 17 17 15 17 19 18 20 19 18 20 23 23 22 22 24 28 32
54 54 54 54 54 53 53 53 54 54 52 48 43 36 25 20 21 21 23 28 25 28 24 25 25 22 21 19 18 14 9 9 12 18 15 15 15 21 22 22 23 24 27 27 29
53 53 53 53 53 53 52 47 41 41 39 28 24 25 18 18 21 21 25 26 28 28 25 24 21 20 17 18 13 11 10 9 12 18 16 15 18 21 23 24 27 28 30 35 40
53 54 53 53 53 53 52 45 44 42 29 26 25 25 23 24 21 22 27 26 26 24 24 17 19 21 17 16 14 12 15 16 18 19 19 20 18 22 24 27 28 30 34 35 38
54 54 54 53 53 53 50 48 49 50 26 24 25 23 25 26 23 23 27 25 22 22 16 23 22 19 17 18 18 18 19 24 21 21 21 20 20 21 24 26 28 31 32 33 36
54 54 54 53 52 52 47 48 52 55 25 19 22 21 24 25 24 25 26 26 19 15 14 22 20 18 19 21 24 20 27 25 22 22 18 22 16 21 23 26 29 33 36 34 35
55 55 53 53 55 44 49 51 55 54 28 23 21 25 22 25 25 24 24 23 20 19 21 21 20 22 23 27 25 25 28 26 26 25 23 19 21 20 24 25 31 34 36 38 39
55 54 54 52 59 52 54 56 56 38 29 22 22 24 23 25 26 25 23 27 28 19 22 23 25 27 28 27 27 27 29 28 28 27 28 23 19 21 22 26 32 34 36 38 39
54 54 53 54 51 57 60 53 30 31 23 21 22 24 25 25 26 26 27 28 27 24 25 24 25 29 28 27 29 28 27 31 32 31 30 26 23 28 29 31 32 35 36 39 40
55 55 57 56 56 60 56 39 31 28 21 21 23 25 25 26 27 27 26 26 28 30 23 23 27 27 28 28 27 28 26 36 26 30 30 25 19 28 31 32 34 34 36 37 39
53 59 58 61 61 61 46 35 29 21 24 23 23 23 25 27 28 28 30 28 29 32 29 24 26 28 28 28 27 27 31 28 26 36 34 21 28 30 31 32 33 33 34 36 37
50 50 50 60 62 57 44 35 31 29 23 23 22 24 23 24 26 28 28 30 29 30 31 27 28 27 24 27 32 27 26 29 36 30 23 16 19 28 30 31 32 32 34 36 37
57 41 57 60 59 43 37 35 31 29 29 26 24 24 26 26 27 28 29 31 31 30 29 27 29 27 23 26 22 26 26 27 25 30 29 26 21 26 26 30 31 32 32 35 38
57 39 59 60 37 37 38 32 35 31 35 33 32 27 28 29 28 30 31 35 34 32 29 30 29 32 20 24 27 27 27 27 36 27 34 33 27 26 27 31 31 32 34 36 37
42 47 56 56 41 40 37 33 32 31 30 32 33 33 34 32 32 32 36 37 34 37 37 34 33 32 25 28 30 23 23 23 27 35 30 31 26 25 28 35 34 34 35 37 38
48 47 42 46 46 37 36 35 34 37 35 34 34 34 34 34 34 34 37 38 39 38 42 41 29 25 28 21 22 21 19 21 23 33 31 29 26 26 28 32 32 32 35 35 35
48 44 40 42 41 37 35 33 34 34 36 35 34 33 33 35 33 34 36 37 37 39 36 37 33 28 27 23 21 19 18 18 19 24 26 27 23 26 30 30 30 36 36 35 36
46 44 45 44 40 38 38 34 32 31 34 33 32 33 34 35 32 33 33 33 33 35 34 36 37 38 34 24 23 21 20 24 22 23 22 25 25 29 29 34 36 36 37 36 40
49 50 49 43 42 41 40 35 33 36 38 35 34 35 39 37 40 39 38 35 33 35 35 37 41 37 35 33 33 35 33 24 23 25 26 28 28 29 33 35 36 36 37 38 38

GFSSW_sfc_dewp_033.txt.gz
Dewpoint
58 58 58 58 57 56 56 56 56 57 56 56 57 57 57 57 56 54 41 43 43 55 53 33 33 34 33 28 26 18 13 12 13 16 15 15 11 17 22 26 40 41 48 51 51
56 56 57 57 57 57 56 56 56 56 57 57 57 57 57 57 52 45 49 55 59 60 37 32 31 30 25 20 19 14 13 8 9 11 8 9 12 16 20 25 41 49 50 51 50
55 55 56 57 57 57 57 56 56 56 57 57 57 57 56 55 50 37 54 59 59 59 41 37 33 26 21 18 14 9 7 7 10 8 6 10 13 17 19 23 37 47 48 48 48
55 55 56 57 57 57 56 56 56 56 57 56 57 57 56 53 34 28 56 60 60 50 42 38 30 17 17 14 12 3 6 8 11 11 5 5 6 10 17 22 30 47 48 48 47
54 55 56 56 56 56 56 56 55 56 56 56 56 57 54 49 40 28 56 57 49 39 39 36 24 19 16 11 9 5 9 9 11 16 15 12 10 12 16 20 29 44 45 46 47
56 56 56 56 56 56 56 56 56 56 56 56 56 56 52 38 31 26 25 27 33 37 34 33 24 18 17 16 11 11 9 10 11 17 18 18 19 16 15 17 28 34 43 42 44
56 55 55 55 55 55 55 55 55 55 55 55 56 52 50 44 29 26 25 26 24 27 27 25 26 25 24 21 19 18 16 17 18 18 17 19 19 15 17 16 23 28 36 39 41
56 55 55 54 54 55 55 54 54 55 55 55 56 52 45 36 28 26 22 23 25 27 30 29 29 29 29 23 19 16 19 17 19 21 22 20 18 16 19 18 19 22 23 32 39
55 55 54 54 54 54 54 54 54 54 55 55 52 52 39 37 27 23 25 28 28 30 34 24 26 28 23 19 19 18 16 18 19 20 22 20 19 19 22 22 23 21 24 26 37
54 54 54 53 53 53 53 53 54 54 53 49 47 43 41 26 25 23 26 31 32 35 33 32 28 24 22 21 19 15 16 19 18 17 15 14 20 22 22 23 24 28 34 41 42
54 53 53 53 53 53 51 48 43 44 47 38 32 36 21 21 24 24 26 32 31 31 28 27 24 22 17 19 17 16 15 14 18 19 17 16 19 22 25 26 34 36 38 40 42
54 53 53 53 53 53 50 50 46 43 36 39 30 30 27 26 23 26 30 31 31 27 29 26 24 21 20 20 19 16 18 23 20 21 18 18 20 24 26 29 32 34 37 39 42
54 54 53 52 52 51 51 51 50 53 32 28 31 25 31 31 29 24 29 29 27 26 27 24 23 22 20 25 24 25 25 24 23 23 23 22 21 24 27 30 31 33 36 38 41
54 53 53 53 51 54 50 50 54 56 27 25 27 26 28 29 28 26 27 29 25 25 24 23 23 23 23 26 25 26 30 28 25 23 21 23 17 23 26 28 32 34 34 37 40
54 53 53 53 50 52 51 53 53 51 24 25 26 23 24 30 26 28 26 28 27 23 26 26 23 27 28 27 27 30 31 29 29 27 26 25 20 21 26 32 34 35 37 38 39
54 53 53 51 53 56 58 58 52 39 24 29 26 27 23 29 30 24 28 31 31 23 25 24 28 28 29 29 29 30 30 30 30 29 25 29 25 22 24 31 34 36 37 38 38
53 54 52 54 54 57 59 53 34 34 29 22 25 27 28 28 27 27 26 29 30 25 26 25 28 30 30 28 31 30 29 28 27 28 26 34 32 36 34 33 35 36 38 38 39
54 53 57 60 61 60 56 43 32 29 25 24 26 28 28 29 28 31 28 28 31 34 29 28 26 28 30 29 29 29 28 29 24 26 27 27 27 30 33 35 37 38 39 38 38
52 59 58 60 61 58 49 39 34 29 27 25 25 27 27 31 32 31 31 30 29 31 30 31 27 29 28 28 29 27 30 29 26 32 28 28 29 32 33 36 35 35 36 37 37
53 53 54 59 59 56 45 39 35 31 27 28 26 27 26 26 29 31 31 33 32 32 34 30 28 28 26 29 34 30 28 27 32 23 23 24 28 32 32 32 34 34 35 37 38
55 44 56 60 57 47 38 39 34 31 37 34 31 29 31 28 29 31 33 33 35 32 31 31 32 28 26 25 26 28 29 29 29 29 24 23 23 29 31 34 33 34 36 36 36
53 40 58 59 39 42 36 37 35 33 38 38 37 32 33 31 33 32 35 36 35 35 32 32 31 26 25 27 29 28 29 30 27 26 29 28 24 29 35 36 36 35 35 37 38
48 50 56 57 36 38 38 37 36 33 34 36 36 37 36 36 33 38 38 40 40 38 37 36 29 27 27 29 32 26 25 25 30 30 26 22 23 28 35 35 37 35 33 36 37
52 42 48 50 48 42 38 36 37 39 39 36 36 37 38 35 36 38 38 41 42 38 41 40 31 28 25 24 24 23 22 21 24 27 27 27 28 28 36 37 37 37 37 38 39
52 45 42 38 38 42 39 37 37 37 39 38 37 37 36 32 35 37 39 39 41 40 39 37 31 33 32 27 25 24 23 21 20 22 24 25 26 29 33 36 37 38 37 40 40
51 48 45 41 37 40 39 35 37 36 36 36 36 36 37 35 37 36 37 36 37 37 37 37 33 32 28 32 30 26 26 28 26 26 26 28 28 34 36 36 37 37 38 38 37
51 51 50 43 39 40 39 38 38 39 41 41 37 40 38 39 39 40 39 37 38 36 36 39 33 30 27 33 30 25 29 26 27 27 28 26 31 35 36 37 37 38 38 37 36

GFSSW_sfc_dewp_036.txt.gz
Dewpoint
57 57 57 58 58 58 58 56 56 56 56 56 56 57 57 57 56 54 41 39 49 57 49 34 34 35 36 31 28 20 16 13 13 18 18 15 19 21 34 43 46 46 50 50 47
56 55 55 55 56 57 57 57 56 56 56 56 57 57 57 56 53 47 50 56 58 57 34 30 28 31 28 25 25 19 15 14 13 16 11 9 17 20 38 47 49 50 51 50 45
56 55 55 55 56 57 57 57 56 56 56 56 56 57 56 55 49 41 54 57 58 58 36 35 34 30 26 23 17 13 7 12 11 9 11 13 17 19 36 44 49 49 49 47 44
55 54 54 54 56 57 57 56 56 56 56 57 56 57 56 53 33 29 54 59 61 52 40 38 37 32 19 14 15 6 11 10 14 10 10 10 11 15 24 37 50 49 49 48 45
54 54 54 55 56 56 56 56 56 56 56 56 56 56 54 48 40 37 58 59 54 43 38 36 33 22 15 13 8 8 10 10 17 16 9 8 11 17 19 38 50 49 49 48 45
56 56 56 56 56 56 56 55 55 56 56 56 56 56 50 38 37 28 36 49 38 35 34 36 31 25 22 14 8 11 9 9 14 17 17 15 17 15 18 40 48 48 47 47 46
56 56 55 56 56 55 55 55 55 55 55 55 56 53 50 42 41 36 26 24 25 32 29 31 30 26 29 16 16 13 11 14 18 18 16 19 17 13 16 41 46 46 47 47 47
56 55 55 55 54 54 54 54 54 54 55 55 56 52 41 42 34 26 25 23 25 29 32 29 26 30 22 24 18 18 18 16 18 20 22 18 16 17 16 27 38 43 44 44 44
55 55 54 54 53 53 53 53 53 54 54 54 51 51 31 42 26 23 23 28 29 29 29 24 27 27 23 19 18 18 13 18 20 21 22 20 18 20 18 19 22 28 41 43 45
54 54 53 53 53 52 52 53 53 53 53 51 47 42 40 36 25 23 26 31 32 30 28 25 28 25 23 20 15 17 13 19 18 18 18 18 21 22 24 33 38 41 42 43 44
54 53 53 52 52 52 51 48 41 42 46 31 35 38 29 26 25 23 25 30 31 30 27 28 23 21 16 19 18 16 18 18 18 19 16 18 21 25 34 38 39 40 42 43 44
53 53 52 52 52 52 50 47 43 42 33 37 40 37 36 23 26 27 29 28 31 27 30 24 22 21 19 24 24 21 22 21 21 22 17 21 22 26 32 36 39 40 41 43 44
53 52 52 52 52 50 47 49 50 51 41 28 33 27 28 31 29 25 29 31 28 26 27 25 22 22 26 27 27 29 25 26 23 24 23 21 22 28 31 34 37 40 42 43 43
52 52 52 52 48 50 44 45 49 49 26 26 27 25 29 29 27 26 27 29 29 26 23 22 23 25 28 26 27 28 30 28 25 23 17 22 18 24 29 32 35 38 41 42 43
52 53 52 52 48 52 50 56 53 47 18 25 26 25 24 29 27 26 25 30 27 25 24 24 28 29 27 28 27 27 30 29 29 26 25 25 20 22 32 32 34 36 39 41 43
53 53 52 50 51 54 58 57 43 37 19 26 27 25 24 29 28 25 27 29 31 26 24 25 29 28 29 30 29 31 31 32 31 29 24 27 27 22 29 33 35 37 38 40 41
53 53 51 54 52 57 57 43 29 31 29 23 24 24 27 27 28 26 29 30 31 23 24 26 29 29 29 29 30 29 30 26 26 27 25 32 32 33 35 35 36 37 38 39 40
52 52 54 59 60 58 50 36 30 32 27 26 27 30 27 29 29 31 29 29 30 34 27 27 26 27 29 29 28 29 31 27 22 24 24 29 29 30 35 37 38 38 38 38 38
52 55 57 58 59 55 43 36 33 32 27 25 27 28 29 30 28 31 30 29 30 31 28 29 27 30 29 29 29 27 29 28 27 29 25 27 30 31 35 36 37 39 41 42 39
52 52 52 58 57 49 43 38 36 33 31 28 26 29 26 27 28 30 32 34 32 31 34 31 27 29 28 28 30 28 28 26 29 21 22 24 28 31 33 35 36 35 37 38 39
53 41 49 58 50 42 36 38 35 34 36 32 32 27 29 27 30 32 33 35 34 33 31 32 31 27 29 25 25 27 28 28 28 28 24 22 22 32 33 34 34 37 38 39 37
49 38 54 49 30 40 34 36 35 33 36 35 36 36 31 31 34 36 35 35 39 39 29 33 30 24 26 27 29 28 29 30 26 22 28 26 23 34 35 35 35 35 37 38 38
45 49 55 45 26 34 36 37 36 34 34 35 36 37 37 34 35 38 37 41 37 37 35 33 28 25 26 30 31 26 27 28 32 28 25 20 22 29 34 36 36 37 38 39 39
49 40 45 49 43 36 35 35 37 40 37 37 36 36 36 35 39 37 38 40 39 35 41 39 31 26 25 25 25 21 22 22 27 25 25 26 26 30 36 36 37 38 40 40 40
50 41 38 33 36 41 39 36 36 36 38 37 34 36 34 33 36 37 39 39 39 39 37 36 30 32 31 29 26 24 23 23 21 21 22 24 28 33 35 36 37 38 39 38 37
49 46 44 37 34 37 39 36 36 37 36 36 34 38 37 35 35 36 37 37 36 36 36 38 31 30 24 33 31 25 25 28 27 25 26 30 32 36 36 38 38 38 38 37 36
53 52 46 42 34 38 38 35 38 38 39 41 40 38 36 38 39 40 39 38 38 34 37 37 31 26 18 31 26 23 27 26 27 30 29 25 32 36 36 37 37 37 37 36 36

GFSSW_sfc_dewp_039.txt.gz
Dewpoint
58 55 55 55 55 56 58 57 57 56 56 56 56 56 56 57 56 53 43 39 47 56 50 33 34 34 35 32 27 21 16 14 37 32 28 32 22 30 45 49 48 48 48 51 55
57 57 55 55 55 55 56 57 57 56 56 56 56 56 57 56 53 47 50 56 58 57 32 30 28 31 29 28 26 21 17 16 32 37 35 17 35 35 46 49 49 50 48 52 52
57 57 55 55 55 54 55 57 56 56 56 56 56 57 56 55 47 36 55 57 59 54 33 33 31 31 29 26 19 16 11 11 13 32 25 14 21 32 47 47 49 48 46 48 49
57 57 55 54 54 54 55 56 56 56 56 56 56 56 56 53 26 33 56 61 60 45 36 35 36 33 28 20 18 11 10 11 11 13 14 16 17 36 35 47 50 49 45 46 46
56 56 55 54 54 55 56 55 56 56 56 56 56 56 53 47 40 35 61 61 50 42 33 35 34 28 16 14 10 11 12 15 15 10 8 12 16 18 26 49 51 49 45 44 45
56 56 56 55 56 56 56 55 55 55 56 56 56 56 49 35 33 33 42 47 41 38 34 35 31 29 21 14 9 11 10 13 16 16 16 15 16 20 28 50 49 48 46 44 44
56 56 56 56 56 56 55 55 54 55 55 55 55 53 49 39 40 39 36 33 36 35 30 32 32 26 22 19 14 14 11 14 17 16 14 18 16 20 32 49 48 48 48 46 44
56 55 55 55 55 55 54 54 54 54 54 55 55 52 41 40 42 38 25 23 28 33 30 28 28 27 21 20 20 17 17 14 17 19 20 17 13 17 37 48 47 47 46 45 46
55 55 54 54 54 53 53 53 53 54 54 54 52 50 30 40 29 25 23 25 30 30 31 25 28 25 23 18 16 17 15 17 18 20 22 19 18 20 23 41 32 41 42 45 46
55 54 54 53 53 52 52 53 53 53 53 51 49 41 38 31 28 22 25 31 30 32 27 27 27 24 22 16 11 14 15 17 16 19 19 20 20 24 25 35 41 42 44 45 45
54 54 53 53 52 52 50 47 41 42 46 31 33 36 36 30 24 21 25 29 29 28 25 28 21 20 16 20 19 20 16 18 18 18 16 19 23 29 38 41 41 42 43 44 45
54 53 53 52 52 52 49 43 38 40 35 40 41 39 37 36 24 25 29 26 28 25 29 24 22 23 23 27 23 23 19 19 22 24 19 23 26 30 34 39 41 42 43 43 44
53 52 52 52 52 49 44 45 50 49 41 33 33 32 31 29 26 25 29 30 26 25 26 23 23 25 26 28 28 28 24 24 21 23 22 24 24 31 34 38 41 42 43 43 43
53 52 52 52 46 46 41 45 52 46 27 24 26 25 27 29 26 25 27 27 28 24 23 21 28 27 26 25 28 27 29 26 25 21 12 23 20 28 31 34 39 41 42 43 44
52 53 52 51 47 51 49 57 52 43 19 23 25 25 25 27 25 24 25 28 24 23 23 23 28 27 26 27 27 27 29 27 27 25 25 25 20 24 33 33 36 39 41 43 44
52 53 52 49 49 51 57 53 42 33 16 23 26 23 24 28 26 25 26 32 30 26 26 27 29 28 28 29 29 30 30 32 32 29 24 27 26 23 30 33 35 38 41 42 43
53 53 50 53 53 56 55 38 26 30 29 23 25 24 26 27 26 25 31 30 28 22 24 28 29 29 30 29 30 29 29 25 25 26 25 30 30 30 33 35 37 38 39 41 42
52 52 51 52 59 56 45 31 26 31 25 26 26 27 26 27 29 30 30 28 30 30 26 26 25 27 28 28 26 29 30 25 21 23 21 29 28 30 35 37 38 38 39 39 40
52 52 56 57 58 50 38 28 32 33 26 26 28 27 28 29 30 30 30 29 29 30 27 27 26 29 27 29 28 27 27 28 28 28 24 27 30 32 35 37 37 37 38 39 41
53 52 51 57 55 48 38 34 37 34 30 28 27 28 26 27 29 30 31 33 30 31 33 31 26 28 26 28 28 25 28 26 27 19 20 24 27 29 33 35 36 37 39 40 39
48 39 46 57 44 38 31 36 38 33 35 28 27 28 28 27 30 32 33 34 34 34 31 31 28 25 28 25 25 27 27 28 29 27 23 21 23 28 33 34 35 37 39 37 38
46 34 52 42 30 38 35 37 37 32 35 36 36 34 30 31 35 34 33 35 39 37 28 33 29 24 24 27 30 28 28 27 21 21 27 25 21 34 35 35 36 37 37 37 37
44 49 54 38 26 34 35 36 36 32 33 34 35 37 37 36 34 37 36 40 35 35 33 31 27 23 23 28 28 27 25 32 29 27 24 18 20 32 35 36 37 37 38 39 39
46 40 44 48 37 33 31 34 35 38 36 35 35 37 35 36 39 36 37 39 37 33 40 37 32 24 22 25 26 20 21 26 26 25 25 24 24 34 35 36 38 39 39 38 37
47 39 39 34 39 41 35 36 35 34 37 36 34 35 34 33 36 37 38 37 37 38 37 33 29 30 29 29 25 23 21 21 20 21 20 20 26 31 36 36 38 39 39 37 36
48 44 42 34 35 39 38 36 35 36 35 35 33 38 36 33 34 35 36 34 30 34 36 37 30 29 26 31 30 23 23 24 26 23 23 30 32 36 37 38 37 37 37 35 35
49 50 43 40 36 34 37 35 37 37 41 40 38 36 34 37 39 39 38 39 37 34 37 34 29 23 15 29 22 15 22 26 26 28 27 30 31 36 36 37 37 36 35 35 35

GFSSW_sfc_dewp_042.txt.gz
Dewpoint
58 58 58 55 55 55 55 54 57 57 56 56 56 56 56 57 56 53 44 39 46 56 52 35 34 34 35 31 27 21 15 31 36 37 36 32 43 37 47 49 49 49 53 56 59
57 57 56 57 56 54 54 54 56 57 56 56 56 56 57 56 53 48 50 56 57 57 32 30 28 32 29 29 26 21 17 20 37 37 37 36 28 40 47 49 49 48 54 57 57
57 57 57 56 56 54 54 53 56 57 56 56 56 56 56 55 46 34 55 58 59 52 33 31 31 30 27 25 21 20 16 16 30 39 32 33 34 39 47 47 49 47 53 55 55
57 57 56 56 55 54 53 54 56 56 56 56 56 56 56 52 25 31 61 61 59 38 34 32 34 31 28 22 21 15 14 14 27 40 35 21 25 45 42 43 50 49 53 52 51
56 56 56 56 55 54 53 55 56 56 56 56 56 56 51 45 39 45 61 60 47 38 32 35 35 30 22 18 12 9 14 15 14 21 17 17 19 40 28 50 49 48 51 50 48
56 56 56 56 56 56 56 55 55 55 55 55 55 55 48 34 32 45 48 44 41 36 34 34 33 32 24 16 12 13 13 15 12 10 11 16 18 20 35 50 48 46 48 48 47
56 56 56 56 56 56 55 55 54 54 55 55 55 53 49 39 37 40 37 40 39 36 31 34 34 28 26 18 16 14 13 15 16 15 17 17 15 19 41 50 48 45 44 44 45
56 56 55 55 55 55 55 54 54 54 54 55 55 52 43 40 42 39 34 26 34 36 32 30 31 30 25 21 20 17 17 10 15 17 20 14 11 17 47 49 48 47 47 46 48
56 55 54 54 54 53 53 53 53 54 54 54 50 50 36 39 35 27 26 24 31 30 30 27 28 25 21 18 16 17 14 17 18 20 20 17 17 18 45 47 41 41 44 46 46
55 55 54 53 53 53 52 53 53 53 52 52 49 42 35 28 33 22 24 29 30 31 26 27 27 22 21 15 12 13 14 17 16 19 19 18 22 34 36 39 41 43 45 46 46
55 54 54 53 53 52 50 47 41 41 46 35 34 32 35 35 26 21 24 29 29 28 26 27 22 19 16 18 17 17 14 15 18 19 17 23 30 35 39 41 42 43 44 45 45
54 53 53 53 52 52 48 42 37 38 38 41 40 39 39 36 28 24 28 27 28 25 28 25 20 20 27 23 23 20 19 19 22 23 20 28 30 35 37 40 42 43 43 44 44
53 53 53 52 52 50 45 44 49 47 41 36 38 32 28 32 27 23 28 28 25 24 24 23 23 26 28 28 26 27 22 23 21 22 23 25 25 32 37 40 42 43 43 43 44
53 53 52 52 47 45 40 41 52 45 26 23 27 26 27 29 26 25 26 27 26 23 22 23 29 26 25 25 27 24 28 25 23 18 17 23 18 29 33 37 40 41 42 43 44
53 53 52 51 45 49 43 56 54 39 17 24 25 25 26 25 24 23 28 26 22 24 22 24 27 26 25 26 27 28 28 27 26 25 26 25 20 24 34 35 38 40 42 43 43
52 53 52 49 49 50 56 48 39 32 23 24 24 23 25 27 26 24 30 32 28 28 27 28 29 28 28 29 28 30 31 31 31 28 24 28 27 24 31 33 36 39 41 43 43
52 52 50 49 51 56 52 36 28 25 28 23 24 24 26 26 26 28 30 30 24 23 25 28 28 28 30 27 29 30 28 25 25 25 24 29 29 28 31 35 37 39 41 42 43
52 52 51 50 57 54 41 28 20 28 29 26 24 26 25 27 29 30 29 28 30 26 26 26 23 28 28 28 26 29 27 26 22 24 23 29 27 29 35 36 39 40 41 42 42
52 50 53 57 56 47 35 25 24 32 28 26 27 26 28 29 29 30 29 27 28 30 26 26 25 28 27 31 28 28 26 28 28 27 24 26 29 33 36 37 38 39 40 40 40
51 52 52 56 53 44 32 27 31 38 32 28 24 28 25 27 28 29 30 33 29 31 32 30 26 27 25 28 29 25 29 26 26 17 16 22 25 28 34 35 37 37 38 39 41
47 42 46 54 42 36 28 30 38 38 35 26 28 28 28 27 30 31 31 33 34 33 31 30 27 24 27 24 25 27 26 28 28 26 21 19 22 29 34 36 37 37 39 37 38
43 36 51 41 31 37 34 36 38 32 35 35 34 30 29 31 33 32 32 33 38 36 27 32 28 23 23 26 30 28 27 25 20 20 26 24 22 34 34 35 36 37 37 37 36
45 49 53 37 29 33 34 34 36 32 33 34 34 35 36 35 33 35 36 38 34 34 30 30 26 23 22 24 27 26 27 30 27 26 24 17 17 33 35 36 37 37 37 38 37
45 42 44 44 35 32 29 31 34 37 36 35 35 36 36 36 37 35 36 37 35 34 40 36 29 23 21 20 25 20 21 28 25 23 23 23 22 32 34 36 37 38 38 37 36
44 40 41 37 40 33 30 32 34 33 36 35 33 34 34 33 35 35 37 36 34 38 37 30 27 29 29 29 25 21 20 22 21 22 19 20 25 26 34 36 38 39 38 36 34
46 40 38 34 42 37 35 35 34 35 35 33 32 37 35 34 33 34 35 32 25 35 35 35 29 28 28 30 28 24 23 22 22 21 23 26 25 35 37 38 39 38 37 35 34
49 48 40 38 37 37 37 36 36 38 40 39 36 35 34 36 38 39 38 37 35 34 35 32 28 25 21 26 19 16 21 23 26 26 26 26 28 36 36 37 37 37 35 34 33

GFSSW_sfc_dewp_045.txt.gz
Dewpoint
57 57 56 55 55 57 55 55 54 54 57 57 56 56 56 57 56 53 41 39 47 57 50 35 33 32 34 31 27 21 19 32 35 35 39 43 41 44 48 48 50 49 56 59 62
57 57 57 56 55 55 55 54 53 54 57 56 56 56 56 56 52 47 49 57 57 57 32 30 29 33 31 29 28 22 19 27 37 40 44 44 41 42 48 48 47 52 58 60 60
56 57 57 57 55 55 56 53 53 53 56 56 56 56 56 55 45 32 57 58 59 54 33 32 30 30 28 26 25 22 19 22 36 38 43 42 35 45 48 46 47 50 57 59 59
57 57 56 56 55 55 55 53 53 55 56 56 56 56 56 53 25 30 62 61 59 39 34 34 30 30 28 24 23 17 17 23 37 38 31 33 34 45 46 42 49 55 58 58 58
56 56 56 56 55 55 54 53 54 56 55 56 56 56 51 44 40 49 61 59 46 35 33 32 33 31 27 24 16 16 14 14 17 28 21 25 33 41 39 49 51 56 57 57 56
56 56 56 56 56 56 56 55 55 55 55 55 55 56 49 35 33 50 49 44 40 35 33 35 33 34 27 19 14 17 16 14 18 24 19 20 21 33 37 48 51 54 54 54 52
56 56 56 56 56 56 55 55 55 54 54 55 55 53 48 40 37 43 41 41 40 35 33 34 36 29 28 20 16 17 16 18 17 16 16 18 17 19 45 47 48 51 51 50 48
56 56 55 55 55 55 55 54 54 54 54 55 55 52 43 41 42 38 38 31 38 37 33 33 37 33 24 23 22 17 18 14 17 18 19 17 16 19 49 47 46 47 47 47 47
55 55 55 54 54 54 53 53 53 54 54 54 51 50 38 42 34 31 32 25 30 34 35 28 32 28 23 21 19 19 13 16 17 21 19 18 17 30 42 48 47 46 46 46 47
55 55 54 54 53 53 52 53 53 53 52 52 49 43 36 29 35 25 28 32 32 34 31 31 28 24 21 17 16 17 16 18 18 19 21 21 27 34 39 44 43 45 46 47 47
55 55 54 53 53 52 51 48 42 42 47 37 35 36 33 36 34 22 25 33 32 32 28 30 24 20 17 19 16 17 16 16 18 21 27 29 32 36 40 42 44 45 46 46 47
54 54 54 53 52 52 49 42 40 43 41 43 41 40 40 37 31 25 32 31 32 29 28 26 22 21 27 21 21 20 20 20 23 24 26 30 33 38 40 42 43 45 45 47 49
53 54 53 52 52 51 48 46 49 48 45 37 40 37 30 34 29 25 32 32 28 28 25 27 23 27 28 27 27 26 24 23 21 24 26 27 26 34 40 42 44 44 45 46 47
53 53 52 52 48 46 43 45 47 50 30 27 30 29 29 30 30 26 29 30 28 26 23 27 29 26 26 27 27 26 27 25 22 19 20 25 16 28 37 41 43 43 44 45 45
53 53 52 51 47 44 43 57 54 44 21 27 26 26 27 26 26 27 32 29 26 25 25 26 28 27 27 27 28 28 30 28 27 27 24 27 20 23 36 39 41 42 43 44 46
51 53 52 50 50 50 54 50 45 33 25 26 25 24 27 28 27 26 33 32 30 31 31 29 29 29 28 30 30 33 32 32 32 30 25 28 28 27 31 35 40 41 42 43 44
51 52 51 49 48 57 53 42 31 28 30 24 24 26 28 28 28 31 31 32 26 28 28 29 29 29 31 29 30 30 30 25 25 27 23 29 29 29 32 34 40 40 41 43 44
51 52 52 50 54 55 44 32 26 28 30 27 25 27 26 28 31 31 29 29 31 28 27 26 23 27 28 28 29 30 28 31 22 25 25 28 27 28 35 37 38 41 41 43 44
52 51 50 54 54 51 37 28 28 28 32 26 27 27 29 31 30 31 30 28 29 30 27 28 25 27 28 31 29 30 28 29 29 28 26 25 29 32 36 37 38 40 41 42 43
50 49 51 57 57 46 34 29 27 36 32 29 24 30 28 29 30 30 30 33 29 31 33 31 28 27 25 28 30 28 31 29 28 23 15 19 25 25 34 36 38 39 40 42 42
51 47 50 56 47 39 30 30 35 39 36 28 29 29 29 30 31 31 31 34 34 32 34 31 31 27 27 25 28 28 28 29 29 26 19 18 16 32 33 37 38 39 40 41 40
45 38 53 46 35 36 32 32 38 35 37 37 34 32 31 33 33 32 33 34 39 37 30 31 31 28 24 26 30 28 28 29 26 21 28 26 21 34 36 37 38 38 39 39 37
41 48 55 42 33 33 35 35 36 34 35 35 37 36 39 37 34 35 37 39 35 34 34 33 29 26 23 24 28 28 29 27 27 28 26 30 19 33 36 37 38 38 37 37 36
48 43 46 42 37 34 32 31 33 39 38 37 36 38 38 37 38 36 36 38 38 35 41 37 29 27 25 22 27 24 27 27 27 28 24 24 19 28 35 36 37 37 38 37 36
45 42 44 39 37 34 32 34 33 35 38 37 36 36 36 35 36 36 37 36 35 40 38 34 29 28 29 29 26 22 21 27 24 24 26 22 23 24 31 36 37 38 37 36 35
44 40 38 38 41 34 35 35 34 36 37 36 36 37 37 35 35 36 36 34 30 36 36 34 32 29 29 29 27 25 24 23 24 21 23 23 23 25 34 37 38 38 37 35 34
50 47 39 37 39 33 34 36 35 39 41 39 38 37 36 38 40 40 39 38 35 36 36 32 32 29 25 25 20 24 25 25 24 25 25 23 25 36 36 37 38 38 37 35 33

GFSSW_sfc_dewp_048.txt.gz
Dewpoint
57 57 56 56 55 55 55 57 55 54 53 55 57 56 56 57 55 49 37 37 42 57 53 32 30 28 27 22 27 24 18 27 32 34 41 43 41 41 46 47 49 50 53 57 63
57 57 57 57 57 55 55 56 55 53 53 56 57 56 56 56 49 40 45 56 57 59 30 30 25 27 20 20 25 20 19 21 30 40 41 39 40 40 42 46 46 51 58 61 62
56 56 57 57 57 55 55 56 54 53 54 57 56 56 56 55 43 28 57 58 58 55 32 32 26 24 19 20 23 20 19 23 32 39 37 40 41 38 41 37 44 46 58 59 60
57 56 56 56 56 55 54 55 54 53 55 56 56 56 56 52 25 30 61 62 59 41 32 32 28 21 16 18 19 18 18 25 36 38 37 35 35 37 41 40 45 50 58 58 59
56 56 56 56 56 55 55 54 55 55 56 55 55 56 52 42 32 47 60 58 44 35 31 31 28 21 15 15 20 19 16 29 32 36 32 38 34 35 41 45 48 55 57 57 55
56 55 56 56 56 56 56 56 55 55 55 55 55 56 48 34 30 45 44 41 37 34 32 31 27 24 26 22 19 19 17 27 23 34 28 32 35 34 39 47 51 55 53 52 50
55 55 56 56 56 56 56 55 55 55 54 54 55 51 45 35 34 42 41 37 36 34 31 32 31 30 30 17 15 16 14 15 17 29 30 25 26 24 42 46 50 49 50 50 49
55 55 55 55 55 55 55 54 54 54 54 54 54 50 39 35 37 37 35 35 37 36 32 32 32 31 29 20 18 14 16 18 19 28 20 22 16 25 45 44 46 47 49 49 47
55 55 55 54 54 54 54 54 53 53 53 54 51 48 34 41 32 29 31 23 32 35 35 31 34 29 22 17 15 15 11 14 16 19 19 18 17 29 46 43 44 47 48 48 48
54 55 55 54 53 53 53 53 53 53 51 50 47 46 39 27 30 32 24 26 29 32 30 29 28 22 18 13 10 12 10 13 12 19 18 17 25 31 44 46 45 46 47 47 48
54 55 54 54 53 53 52 48 43 43 46 35 30 35 30 32 32 21 22 28 29 28 21 28 22 16 14 15 15 16 13 11 15 20 21 19 27 30 42 45 46 46 47 47 48
54 54 54 54 53 53 50 40 38 46 38 38 36 37 35 35 28 23 27 22 23 19 28 25 20 22 21 19 17 17 17 18 21 21 25 27 30 33 40 43 45 46 47 48 50
54 54 53 53 52 52 47 41 49 46 44 35 36 31 28 34 25 20 26 26 21 23 25 20 23 27 23 22 21 22 21 22 18 23 26 26 27 33 38 42 44 45 46 48 49
53 53 53 52 49 47 43 40 43 47 35 24 27 26 28 30 24 25 27 26 26 24 24 25 26 26 24 24 25 21 25 23 22 20 16 25 13 28 36 38 41 44 46 47 48
53 53 52 52 50 40 46 46 51 50 19 22 26 27 27 25 23 25 32 27 22 24 25 26 25 25 23 26 26 26 26 25 23 22 22 22 17 26 35 36 40 43 46 48 48
52 53 52 51 51 50 53 56 53 37 20 23 24 23 24 24 23 26 28 28 30 28 27 27 29 28 28 30 29 32 30 29 28 26 21 21 23 11 26 31 39 43 45 46 46
51 52 52 50 42 60 58 51 36 28 26 22 22 23 21 23 24 25 27 26 23 26 27 27 27 28 30 29 32 30 26 21 21 21 18 29 25 18 31 33 38 42 44 45 43
50 52 52 49 51 57 52 41 29 21 22 24 22 22 20 24 26 28 28 25 29 26 24 21 23 25 28 28 25 26 24 22 10 17 21 29 23 27 34 35 37 41 43 41 42
51 52 52 52 54 54 45 35 27 26 27 23 23 21 24 26 25 28 29 25 28 30 20 24 23 27 29 30 29 30 26 30 28 31 28 21 26 31 35 36 37 40 39 40 42
49 49 46 56 56 49 43 33 28 33 28 25 20 22 23 25 23 25 27 30 29 31 34 30 25 26 28 29 31 30 30 26 29 23 13 11 17 17 32 34 36 39 38 41 42
49 43 54 60 57 48 38 33 28 36 34 25 21 25 24 28 25 23 26 32 31 31 33 30 28 28 27 25 24 30 28 28 26 26 15 12 10 30 30 35 36 38 39 41 43
48 39 58 57 43 42 38 32 35 33 37 31 29 26 26 29 29 25 27 29 36 32 30 32 31 30 25 27 29 28 27 27 24 21 30 27 13 28 35 36 38 38 39 42 42
43 48 56 50 42 40 35 31 34 32 33 34 32 31 35 32 31 33 34 37 35 34 33 32 30 28 26 26 30 27 28 27 26 30 25 30 15 29 35 36 38 39 40 41 40
43 46 52 48 40 38 34 31 30 39 35 35 35 37 37 35 37 36 36 36 36 35 40 36 31 28 26 22 26 26 27 26 23 25 18 21 10 23 31 34 37 39 40 39 38
46 40 43 44 39 36 35 30 28 34 36 37 36 34 34 35 35 35 36 34 36 40 38 35 30 28 27 26 25 24 23 26 23 21 24 16 13 10 22 30 35 39 39 38 37
45 42 43 43 39 34 35 32 28 35 35 34 34 36 37 35 33 35 35 34 34 37 37 35 33 31 29 29 27 25 24 23 26 24 22 21 20 20 24 28 35 38 38 37 37
53 46 42 41 39 34 33 30 30 38 40 38 38 38 38 38 41 41 39 36 34 37 37 35 35 32 25 25 25 33 28 24 22 25 25 23 24 29 31 32 36 38 38 37 36

GFSSW_sfc_dewp_051.txt.gz
Dewpoint
57 57 58 58 57 57 56 56 56 56 54 54 55 57 57 57 55 48 40 37 41 57 53 32 30 25 20 19 17 18 17 15 35 37 35 43 42 52 45 40 45 46 48 50 62
57 57 57 57 57 57 56 56 56 55 55 54 56 57 57 57 49 38 43 57 58 60 30 27 24 20 16 16 16 15 16 23 30 43 49 42 39 38 38 41 42 49 58 60 61
56 57 57 56 57 57 56 55 55 55 54 54 56 57 57 55 43 29 59 59 59 55 30 28 22 18 17 15 17 15 17 24 25 40 38 34 39 40 37 33 38 42 57 58 57
56 56 56 56 57 57 56 55 54 55 54 56 56 56 57 50 30 33 61 61 59 39 33 29 22 18 17 14 15 18 19 17 31 40 31 34 35 35 36 45 34 52 54 56 55
56 56 56 56 56 57 56 56 56 56 56 56 55 56 51 40 32 45 60 60 45 34 31 27 25 20 15 13 17 18 22 32 42 29 32 34 31 41 36 36 40 50 51 53 53
56 56 55 56 56 57 56 56 56 56 55 55 55 56 49 33 27 36 40 39 34 33 30 28 24 21 21 18 17 21 27 31 29 31 32 34 33 34 37 39 46 49 50 49 48
56 55 55 56 56 56 56 55 55 55 55 55 55 50 42 34 30 37 39 33 34 33 30 30 27 26 28 25 18 18 27 27 24 31 30 31 28 28 37 40 43 45 45 45 42
55 55 55 55 55 55 55 55 54 54 54 54 55 48 39 32 31 31 32 33 34 34 32 31 31 31 31 21 20 21 21 19 20 24 29 26 21 28 38 40 40 40 42 42 41
55 55 54 54 54 54 54 54 54 54 54 54 52 47 34 40 29 28 29 27 30 33 33 29 32 31 28 19 18 15 16 17 18 22 21 24 19 28 36 38 40 40 41 42 42
55 54 54 55 54 54 53 53 53 53 51 47 43 43 40 27 28 29 26 24 29 33 31 31 31 25 23 18 13 12 13 15 17 21 18 14 19 33 37 34 40 42 43 43 44
54 54 55 54 54 53 52 47 43 45 44 33 32 29 28 30 29 26 23 24 27 30 27 29 25 22 19 17 15 11 9 10 10 11 12 13 21 26 35 37 40 42 44 45 46
54 54 54 54 54 53 51 40 39 47 42 34 30 31 31 30 28 23 23 22 25 26 26 25 25 24 17 13 14 15 14 12 13 14 19 17 21 27 37 39 40 41 43 45 47
54 54 54 54 53 52 46 41 47 47 43 32 29 29 29 28 25 19 23 23 22 20 24 24 25 24 18 16 16 17 18 19 16 19 17 21 23 29 33 37 40 41 43 45 48
53 54 53 53 49 46 44 42 43 49 38 27 26 25 25 28 24 22 22 22 22 19 21 31 31 19 19 16 19 18 22 18 17 20 15 22 14 27 32 37 40 43 45 46 48
53 54 53 52 52 42 48 46 47 54 29 22 18 24 22 23 21 20 25 22 21 20 23 21 22 20 19 22 24 26 24 21 18 17 22 19 11 26 32 33 36 42 44 46 47
53 53 53 51 51 49 50 56 55 39 27 19 21 23 24 23 20 22 21 23 26 22 23 30 27 24 26 26 25 28 25 24 23 21 20 16 17 17 27 27 34 39 42 45 47
52 52 52 48 44 49 56 55 37 30 23 17 19 22 23 20 20 20 21 21 18 19 22 24 23 27 27 25 27 24 24 24 23 20 19 22 21 17 29 30 32 39 42 46 47
51 51 53 49 50 57 54 46 31 23 24 19 18 20 21 19 19 20 19 16 18 20 18 19 23 24 26 26 24 24 22 22 15 17 15 24 12 21 32 32 35 40 43 46 44
51 52 52 52 54 57 48 37 32 25 21 20 20 19 19 19 20 22 22 19 19 21 20 21 20 26 27 27 25 26 22 26 23 27 26 13 20 32 32 33 36 39 42 44 41
47 49 48 55 56 54 46 35 30 25 25 23 20 19 19 20 21 21 20 21 23 28 30 22 21 24 27 28 29 27 28 24 24 21 16 9 12 18 28 31 35 38 41 41 40
47 45 48 54 54 47 40 36 30 27 32 25 22 20 20 20 21 20 19 27 27 30 33 24 24 27 26 24 19 27 24 23 24 24 21 12 12 24 23 30 32 36 39 39 41
48 41 54 56 38 42 40 35 32 26 35 33 29 23 23 23 24 22 19 23 31 30 26 28 26 24 24 25 26 26 24 25 28 21 24 27 16 24 27 30 32 33 37 39 41
45 46 58 52 37 43 39 35 31 28 30 32 28 24 26 25 25 25 24 38 33 33 28 32 25 24 24 26 28 25 24 23 25 28 25 29 19 26 29 29 31 32 35 38 41
43 45 51 52 39 41 38 35 31 32 31 32 28 27 29 26 27 29 30 36 37 34 40 37 26 24 25 22 24 28 24 24 25 29 24 17 15 20 25 25 27 31 36 39 42
46 40 45 41 39 42 39 34 30 27 34 35 32 31 30 29 28 30 33 36 37 39 35 35 30 26 24 26 24 23 22 23 23 22 25 20 14 8 14 22 26 29 34 39 40
45 39 41 37 39 42 40 36 29 25 30 34 32 28 30 30 31 30 33 35 34 38 37 35 31 32 30 28 27 25 24 22 21 21 16 16 16 17 19 21 23 29 33 37 38
51 49 42 42 41 39 39 35 28 28 39 38 33 29 33 35 41 40 37 35 35 37 37 36 34 33 26 26 25 31 28 22 20 21 21 22 21 25 24 24 24 29 34 36 38

GFSSW_sfc_dewp_054.txt.gz
Dewpoint
57 57 58 58 58 58 58 57 56 56 56 55 55 55 57 57 55 47 43 40 41 57 53 33 31 26 24 20 17 14 12 14 17 31 42 45 50 54 50 46 44 49 48 54 60
57 56 57 57 57 57 57 57 56 56 56 55 55 56 57 57 51 42 45 59 58 58 30 29 25 24 19 16 16 14 16 15 26 39 43 46 47 50 47 50 49 55 54 56 61
57 56 56 56 57 57 57 56 56 56 55 56 56 57 56 55 45 33 60 60 59 53 30 25 25 20 16 15 14 14 15 19 42 43 44 44 47 50 36 39 34 52 57 59 60
57 57 56 56 56 57 57 56 57 56 56 56 56 56 56 50 34 33 61 60 60 36 32 31 25 19 16 15 14 13 15 26 41 43 40 42 47 37 37 37 44 55 55 55 57
57 57 56 55 56 57 56 56 56 56 56 56 56 56 50 42 36 42 62 61 45 33 29 26 23 19 15 14 14 16 19 37 38 36 35 34 38 38 42 42 49 53 52 52 54
56 56 56 56 56 56 56 56 56 56 55 55 55 55 48 37 30 35 37 42 35 30 29 28 23 22 19 18 16 21 23 35 35 37 38 37 41 41 41 44 44 45 50 50 53
56 56 55 55 56 56 56 55 55 55 55 55 55 49 43 37 32 31 36 34 32 32 30 29 26 25 26 26 20 25 27 28 28 36 29 37 37 36 39 44 42 42 45 43 45
56 55 55 55 55 55 55 55 55 55 55 55 55 48 41 35 32 30 31 32 32 32 32 32 32 29 31 28 18 22 26 22 19 24 30 32 29 33 38 41 41 42 42 43 43
56 55 54 54 54 54 54 54 54 55 54 54 51 47 38 40 30 28 29 27 28 32 33 29 30 31 30 25 23 22 23 21 21 20 27 28 26 33 37 37 38 39 40 39 39
55 55 54 54 54 54 53 54 54 53 52 46 43 40 41 30 24 24 27 26 28 33 32 32 32 29 25 22 19 18 18 19 18 17 23 23 21 29 35 38 39 39 40 40 39
55 55 54 54 54 54 52 49 45 46 44 33 32 31 27 27 29 27 28 23 25 30 27 29 26 25 24 25 19 18 17 17 19 17 16 15 20 26 29 34 40 39 40 41 42
55 54 54 54 54 54 52 44 39 46 43 41 33 30 29 31 28 24 25 22 25 26 30 27 29 26 25 23 20 14 16 11 11 10 15 13 18 21 27 29 37 39 41 43 44
54 54 54 54 53 52 47 42 41 45 42 37 37 23 25 29 27 22 22 23 26 28 24 32 36 35 28 16 13 19 25 26 16 12 14 18 14 23 27 31 35 39 42 44 47
54 54 54 53 49 48 45 45 44 49 39 30 30 23 26 27 25 24 20 21 22 29 29 32 31 31 26 17 18 26 27 25 21 22 13 25 21 30 27 32 35 39 41 43 46
53 53 53 52 51 46 47 43 47 51 33 25 26 22 25 24 21 21 21 21 22 19 21 28 29 27 20 19 25 29 26 28 17 16 25 25 24 29 29 29 35 39 42 45 47
53 53 53 51 51 50 52 56 50 43 27 20 18 20 21 22 21 18 19 23 23 21 22 23 31 30 26 23 23 30 30 25 22 23 26 26 27 25 27 29 34 38 42 45 48
53 53 52 48 46 52 54 55 40 33 22 20 17 21 21 22 21 17 20 19 20 21 21 25 22 23 26 22 24 25 25 25 31 31 24 15 23 27 34 37 37 39 42 46 47
52 52 52 49 51 56 55 49 33 25 26 17 17 21 21 20 19 19 16 17 19 19 15 22 23 22 24 22 34 32 20 31 25 29 24 27 16 24 30 31 36 39 41 45 47
51 50 50 53 54 56 51 42 32 27 22 21 17 18 19 20 18 19 18 16 16 19 20 28 23 32 24 21 31 25 23 26 22 24 30 19 13 32 30 31 34 39 42 45 47
49 46 46 55 57 53 49 39 34 32 23 22 19 18 18 18 18 19 18 19 17 17 33 34 32 33 26 26 25 24 22 26 25 25 22 12 14 25 29 29 33 38 42 45 45
49 41 48 55 55 48 41 39 38 31 27 26 21 19 18 18 19 19 17 17 19 25 28 30 36 27 26 24 16 25 25 21 18 27 29 27 19 30 27 30 32 36 41 44 43
47 36 52 56 43 38 39 38 37 34 27 30 28 23 21 20 21 19 19 19 27 25 25 26 27 27 24 23 23 23 25 23 33 23 30 32 23 25 30 32 32 32 39 42 41
42 45 56 53 36 35 36 37 36 32 28 30 31 26 25 23 22 23 23 36 29 28 28 30 29 28 22 24 26 24 21 21 25 33 29 35 25 26 25 29 30 31 37 39 41
41 43 51 52 41 34 36 36 35 35 28 28 29 27 25 25 26 26 25 35 36 32 41 41 29 24 25 20 25 26 24 21 23 36 31 28 21 21 25 25 26 31 34 38 40
44 39 43 43 44 38 39 35 33 32 30 30 29 28 25 27 24 25 27 37 36 38 35 34 27 22 20 20 22 25 23 21 20 23 27 27 19 16 19 26 26 28 32 34 38
41 39 45 42 42 39 36 39 34 31 29 30 32 29 27 28 26 26 29 37 34 37 35 35 33 32 31 28 26 26 24 23 22 21 18 21 19 20 22 23 24 26 28 30 38
45 47 44 42 41 37 38 40 36 35 32 29 33 32 32 32 36 40 38 37 34 38 37 35 38 37 34 28 26 29 28 24 22 21 22 22 25 24 23 24 28 28 26 33 36

GFSSW_sfc_dewp_057.txt.gz
Dewpoint
58 58 58 58 58 57 57 57 57 56 56 56 56 55 56 57 56 49 45 47 46 55 53 35 32 35 27 24 22 20 13 10 12 36 44 46 47 50 54 49 51 54 53 57 61
58 58 57 57 57 57 57 57 56 56 57 56 56 56 57 56 52 44 49 54 57 58 33 29 29 29 25 22 19 15 14 15 38 42 44 45 48 49 48 48 48 51 56 60 59
58 58 57 57 57 57 57 56 56 57 57 57 57 57 56 55 47 39 59 59 58 54 32 29 27 25 22 18 15 15 14 31 42 43 45 45 46 49 46 43 47 48 53 58 54
57 57 57 57 56 56 56 56 56 57 56 56 56 57 56 53 34 35 60 60 60 40 32 31 30 27 22 15 16 14 32 43 44 44 45 45 46 44 47 44 48 51 56 58 54
57 56 56 56 56 56 56 56 56 56 56 56 56 56 52 45 43 43 61 60 46 37 30 31 29 25 19 16 17 15 37 38 40 39 40 41 39 37 40 53 55 55 59 59 56
56 56 56 56 55 56 56 55 55 55 56 56 56 56 51 42 37 47 50 48 40 32 27 28 28 26 23 21 23 24 34 36 36 36 40 36 38 39 46 52 56 56 56 58 58
57 56 56 55 55 55 55 55 55 55 55 55 55 51 45 39 35 34 35 36 35 31 30 31 31 29 32 27 25 29 28 35 36 37 35 41 38 38 42 51 53 51 53 55 56
57 56 55 54 54 54 54 54 54 54 55 55 55 49 44 42 40 37 35 32 36 35 33 33 33 33 34 33 26 25 26 25 32 33 36 33 30 39 43 43 43 43 50 49 57
56 56 55 54 53 54 54 54 54 54 55 55 51 48 44 46 42 36 31 29 33 34 38 28 34 33 32 30 24 24 24 24 26 34 34 32 29 36 41 41 41 42 40 46 42
56 56 55 54 53 53 53 53 53 53 52 49 46 42 42 35 33 29 29 30 33 38 35 36 33 31 27 22 21 22 23 22 21 33 33 29 28 35 37 38 39 40 38 38 38
56 55 54 53 53 53 52 49 47 47 45 40 38 36 29 32 32 29 28 28 28 36 31 33 28 26 25 25 24 23 21 21 21 20 25 24 29 34 37 43 40 43 39 38 39
56 55 54 53 53 53 51 46 44 45 44 44 40 38 35 31 30 30 29 29 31 32 33 28 29 30 29 26 25 24 23 23 20 20 20 20 21 26 40 39 34 38 44 40 47
56 55 54 53 53 51 49 45 44 45 45 41 41 41 37 29 29 29 27 26 30 30 33 31 32 34 32 32 31 26 26 24 22 23 15 15 20 27 29 42 41 38 44 43 47
55 54 53 52 50 49 48 48 47 46 42 36 33 38 34 25 30 29 27 23 32 30 31 33 33 30 31 31 28 28 29 28 26 25 18 25 25 28 30 30 40 42 43 47 48
55 54 53 52 50 49 50 51 47 49 32 35 34 29 22 28 28 27 26 24 23 28 34 30 32 32 30 29 30 30 29 30 30 26 26 26 26 27 29 31 33 38 41 44 49
54 53 53 51 51 50 49 49 52 43 32 29 28 23 26 27 26 24 22 27 25 23 26 30 30 30 33 28 27 31 29 32 34 30 25 25 27 25 27 30 35 38 42 46 49
54 53 52 48 47 50 50 52 41 36 30 23 21 24 25 24 24 24 20 21 21 22 25 25 27 28 33 31 30 30 29 27 27 27 26 27 27 27 32 38 38 40 42 47 50
53 52 52 49 50 53 53 47 37 31 32 25 22 24 23 24 24 23 19 21 22 23 21 25 25 29 30 28 29 29 31 28 24 27 26 31 27 29 33 36 37 40 43 47 46
52 52 50 49 50 52 50 39 33 34 28 29 20 23 23 23 24 24 22 20 20 20 21 28 28 34 32 31 28 33 35 34 29 32 24 25 29 33 33 36 40 40 44 45 44
52 50 47 51 54 51 46 36 38 35 33 33 25 22 22 22 22 23 22 22 21 22 30 37 31 36 36 33 29 29 34 27 29 17 17 20 21 29 31 33 38 40 43 45 45
51 46 47 50 52 48 38 38 39 38 36 34 28 24 22 24 22 22 24 23 22 32 35 36 33 33 35 32 29 27 25 25 24 29 22 22 22 32 33 34 36 40 43 45 45
50 42 48 52 43 42 38 38 40 38 38 38 32 34 30 24 25 24 25 25 27 31 27 35 36 33 33 34 27 24 26 31 26 22 28 26 24 25 29 33 34 37 42 45 44
46 45 51 49 32 37 37 38 38 38 37 36 36 35 34 30 28 31 27 39 32 30 30 35 29 24 26 25 30 27 24 24 27 33 26 24 25 25 28 31 33 32 40 44 42
47 40 48 49 33 34 35 33 35 38 38 38 34 34 34 30 29 30 37 40 39 37 40 38 32 28 24 23 26 27 26 25 25 28 26 27 27 26 25 26 28 27 36 41 41
46 38 45 42 42 37 34 33 34 35 38 38 33 33 32 29 28 28 38 39 40 40 38 34 28 28 24 25 27 25 28 27 26 27 26 26 26 26 23 27 25 29 29 37 39
44 41 46 45 43 42 36 32 32 34 36 34 33 34 32 30 29 27 36 38 36 39 35 35 31 31 31 32 29 27 27 27 25 25 23 24 23 25 25 24 24 25 30 34 41
46 46 43 43 42 41 39 33 33 36 38 36 33 36 35 33 37 38 39 39 38 38 35 36 34 32 29 27 26 23 26 25 26 26 25 22 25 26 25 26 25 26 29 32 39

GFSSW_sfc_dewp_060.txt.gz
Dewpoint
58 58 58 58 57 57 57 57 57 57 57 57 57 56 56 57 55 51 45 42 48 56 52 36 34 34 32 24 24 18 15 13 13 28 43 47 48 49 53 49 51 54 53 57 61
58 58 57 57 57 57 57 56 56 56 57 57 57 57 57 56 52 47 49 57 57 59 38 34 27 28 29 24 23 15 13 13 29 44 44 45 48 48 49 48 49 52 59 60 59
58 58 57 57 57 57 56 56 56 56 57 57 57 57 56 55 47 43 57 59 59 56 32 32 31 29 24 24 20 16 13 31 42 44 44 43 47 49 46 43 47 49 58 60 58
58 57 57 57 57 56 56 55 56 56 56 56 56 57 56 53 31 34 59 61 60 40 35 33 32 30 26 20 17 14 25 38 44 45 45 44 47 47 46 44 48 49 58 58 58
57 56 57 57 56 56 55 55 55 56 56 55 56 56 51 43 42 44 60 58 44 36 30 31 32 30 23 20 19 20 40 41 43 42 43 44 39 41 45 54 52 56 57 55 55
57 56 56 56 56 55 55 54 55 55 55 55 56 56 50 39 38 51 49 48 38 31 27 30 28 30 26 28 25 34 37 38 38 40 40 38 38 42 45 51 52 53 56 55 55
57 56 56 56 55 55 54 54 54 54 55 55 55 52 47 34 36 35 36 37 40 31 29 29 30 30 31 31 33 34 35 35 36 37 34 38 33 38 44 49 54 54 56 54 54
57 56 55 55 54 54 53 53 54 54 55 55 55 50 43 43 44 42 38 35 36 34 32 34 33 33 33 33 27 25 27 26 34 34 34 34 32 36 46 49 52 55 55 53 54
57 56 55 54 54 53 53 53 53 54 55 54 50 47 43 47 41 42 39 31 33 36 34 29 33 32 31 29 24 24 22 25 33 33 31 31 30 39 48 48 48 53 54 51 50
57 56 55 54 53 52 52 53 53 53 51 50 46 40 42 33 36 34 33 32 31 38 33 33 33 30 27 25 23 22 23 24 26 33 34 31 30 37 43 43 43 50 53 50 50
57 56 55 54 53 52 51 48 44 45 45 39 34 33 31 34 33 29 28 30 34 34 30 32 27 25 25 27 27 26 25 24 25 27 33 29 27 33 38 41 42 47 51 52 51
56 56 55 54 52 53 50 44 43 41 40 44 42 39 38 38 33 30 31 27 32 30 35 31 28 29 32 32 33 31 29 26 24 24 31 25 26 34 40 40 41 40 39 40 43
55 56 55 53 52 50 48 45 44 44 42 43 43 43 42 42 34 29 30 30 31 30 30 30 31 33 33 32 31 30 29 25 23 25 25 21 25 29 35 39 40 40 41 41 45
55 55 54 52 47 47 48 49 50 46 39 37 40 40 40 32 25 29 30 26 31 28 32 32 33 31 32 31 30 28 29 27 25 22 14 24 20 28 29 38 40 41 43 44 47
54 55 53 51 49 47 50 47 48 48 17 33 35 38 36 24 28 28 28 27 28 31 32 29 31 31 29 29 30 30 32 29 29 27 25 26 20 21 29 31 36 39 43 45 48
54 54 53 51 51 49 48 49 51 40 25 36 35 30 24 25 28 25 25 26 27 31 31 27 32 30 29 31 31 29 29 33 33 30 24 26 23 22 25 27 32 38 42 46 48
54 54 52 50 45 51 52 50 39 33 34 29 26 24 26 25 27 26 22 19 19 20 25 27 28 28 33 27 30 29 29 25 24 25 24 28 27 25 28 30 31 36 41 45 49
53 53 53 49 49 51 52 46 34 33 34 33 24 25 24 25 24 24 22 19 24 23 23 24 22 28 30 29 27 32 28 26 20 22 22 30 25 26 33 33 37 40 45 49 52
53 53 51 51 50 49 49 38 32 36 31 28 23 24 24 25 24 24 23 21 20 22 20 27 28 37 33 34 29 31 30 35 30 30 24 23 25 32 33 34 37 40 46 48 49
50 51 49 50 49 48 46 34 37 38 36 36 27 25 23 23 24 24 23 23 20 23 25 30 29 34 35 34 31 27 33 30 32 17 16 19 22 28 31 36 39 40 45 46 46
49 46 49 51 50 44 37 36 36 37 39 38 33 27 25 24 24 24 23 24 24 27 31 34 29 28 34 30 26 27 27 28 27 27 21 21 21 28 32 36 38 40 44 46 44
45 41 50 52 41 39 37 37 38 36 40 40 40 36 28 26 25 25 24 24 30 33 29 34 33 29 29 32 34 29 28 29 26 20 27 24 21 26 33 34 39 40 44 46 43
43 44 50 49 36 33 36 38 38 34 37 38 37 36 33 29 24 28 28 38 33 31 31 34 31 27 28 28 29 30 25 26 31 29 23 22 23 27 29 33 34 39 42 45 46
45 39 46 46 41 32 33 35 37 37 37 38 38 39 35 32 30 27 34 38 41 36 40 36 31 26 26 25 25 25 27 25 25 25 24 26 25 26 25 27 32 33 39 44 45
46 39 41 40 40 34 33 34 34 34 35 38 37 36 36 31 28 28 38 37 39 38 36 32 26 28 27 27 28 28 26 27 25 26 25 24 27 25 26 26 27 30 35 42 42
43 42 43 42 39 36 33 32 32 32 32 29 34 37 36 31 28 27 36 36 33 36 33 34 27 28 27 30 28 26 26 26 26 25 24 25 24 27 25 27 26 28 30 38 40
42 45 43 38 39 38 33 31 31 31 34 31 36 37 36 36 33 31 38 38 36 34 34 34 33 29 26 26 27 25 26 25 25 26 25 22 23 27 27 26 26 29 27 39 42

GFSSW_sfc_dewp_063.txt.gz
Dewpoint
58 58 58 58 57 57 56 56 56 56 56 56 56 56 56 57 55 51 42 39 48 55 53 36 35 35 32 27 24 19 16 15 14 22 32 48 48 51 52 49 51 55 54 60 63
59 58 57 58 57 56 56 56 56 56 56 56 56 56 57 56 52 47 49 56 57 58 38 33 28 27 26 26 23 16 14 13 16 37 42 45 47 48 48 47 49 56 60 62 61
59 58 58 58 57 57 56 55 55 56 56 56 56 56 56 55 43 38 56 58 59 58 40 31 30 28 25 25 23 17 15 15 40 43 44 43 46 49 46 44 47 54 56 59 59
58 58 57 57 57 57 56 55 55 56 56 56 55 56 56 52 27 34 58 61 60 51 35 31 31 28 28 25 20 16 15 31 40 45 43 43 47 46 45 45 48 57 58 57 56
57 57 57 57 57 56 55 55 55 55 55 55 55 56 50 39 34 39 59 58 51 38 32 30 31 30 25 23 24 18 38 42 44 44 44 44 42 42 45 54 54 58 57 57 56
57 57 56 56 56 56 55 54 54 54 55 55 55 56 47 31 31 49 46 42 39 35 28 30 28 29 28 27 28 35 38 37 40 40 42 37 40 41 47 52 56 57 56 57 55
58 57 56 56 56 55 55 54 53 54 55 55 55 52 47 30 35 37 38 34 40 33 27 28 29 31 31 29 33 37 34 37 38 38 34 37 36 39 49 49 54 54 55 56 54
58 57 56 56 55 55 54 53 53 54 55 55 54 49 37 41 44 45 41 37 37 38 30 34 33 32 32 31 28 27 31 31 33 35 35 33 32 40 47 51 53 54 54 54 53
57 57 56 55 54 54 53 53 53 54 54 54 48 45 40 46 40 42 39 34 33 36 37 32 34 31 31 28 23 24 22 28 31 33 32 31 31 42 45 51 52 55 53 53 54
55 56 56 55 54 53 52 53 53 53 53 51 47 35 32 31 37 36 38 34 32 35 33 32 32 29 26 25 22 23 22 25 27 28 33 30 29 43 46 49 51 54 53 52 53
54 55 56 55 54 52 51 46 40 44 44 38 32 28 26 35 38 31 31 31 35 33 29 33 27 24 25 27 28 29 27 25 26 26 32 31 29 34 45 44 49 51 53 51 51
54 55 55 55 54 52 49 43 39 41 37 41 41 38 38 39 38 36 31 26 31 29 34 29 26 28 31 31 31 30 29 27 28 27 29 29 28 29 40 42 47 50 52 50 49
54 54 55 55 53 50 47 44 45 45 38 39 42 41 41 42 40 38 29 31 28 29 30 28 29 32 31 32 29 28 29 28 27 24 27 24 26 30 40 41 44 49 50 51 49
53 53 54 53 49 46 47 49 48 47 33 32 42 42 42 40 29 33 29 29 32 28 30 30 32 31 31 29 29 27 30 30 27 20 19 22 19 27 35 39 40 43 42 44 47
53 53 54 52 46 47 49 46 48 47 15 25 38 39 39 24 26 27 29 28 28 30 30 25 31 31 29 27 29 28 31 29 29 26 24 25 19 21 29 36 38 38 41 40 44
52 53 54 52 50 48 49 51 51 38 22 30 35 34 28 27 26 27 27 27 29 31 32 27 31 30 28 31 30 31 31 30 31 28 22 24 22 22 26 29 36 38 39 41 46
52 53 53 51 46 50 51 49 40 32 29 31 32 28 30 25 23 26 22 22 21 21 24 26 27 28 32 29 30 29 27 22 22 23 21 27 26 26 27 28 31 36 39 42 46
52 53 53 53 49 49 51 47 33 32 32 36 27 26 21 25 25 26 20 19 22 22 22 22 21 26 29 28 26 31 26 24 18 20 20 28 25 25 30 33 34 34 40 44 47
51 51 51 53 52 47 47 38 31 33 35 24 26 22 23 26 24 24 22 20 20 22 20 25 24 35 35 33 28 31 29 32 28 28 24 24 23 26 31 35 38 45 45 47 50
47 47 46 52 53 47 43 36 36 38 38 37 24 25 22 24 23 23 23 24 21 24 24 26 23 33 34 34 32 28 33 28 30 19 16 17 20 21 26 31 38 41 46 49 51
46 42 45 51 52 44 36 34 36 37 36 38 36 32 25 24 24 24 23 24 24 25 27 31 26 25 33 29 27 29 28 28 28 25 20 20 20 26 30 32 36 38 44 47 49
44 36 49 51 43 42 35 36 37 34 35 38 40 38 34 26 25 25 24 24 27 32 25 32 28 24 26 30 32 28 27 28 24 20 26 24 21 24 31 33 37 37 42 47 47
39 40 50 47 37 37 36 35 37 33 34 36 38 38 37 28 23 27 28 31 33 31 31 33 29 24 24 26 32 31 28 30 31 28 24 22 23 26 26 30 33 38 41 46 46
40 35 45 46 40 36 35 35 35 38 36 37 38 38 38 33 30 28 30 37 38 34 41 35 30 26 24 23 26 27 26 26 27 26 23 25 23 24 26 27 30 33 40 45 46
40 35 39 36 38 39 35 34 35 35 37 36 34 36 36 33 29 28 36 37 37 38 35 32 28 27 27 26 25 25 25 26 26 26 24 24 25 26 26 26 26 29 34 42 45
36 39 41 38 38 38 35 32 33 34 34 33 33 37 33 34 32 29 35 34 33 35 32 34 26 25 28 28 28 27 26 26 26 25 27 26 24 27 26 26 26 28 31 37 43
42 42 41 38 37 36 34 32 32 34 36 34 33 34 32 37 38 34 37 36 34 34 32 32 32 27 23 27 27 24 26 26 26 26 25 23 25 26 26 28 31 30 29 37 42

GFSSW_sfc_dewp_066.txt.gz
Dewpoint
59 58 58 58 57 57 57 56 56 56 56 56 56 56 56 57 54 50 41 41 49 55 52 38 34 35 32 26 23 19 17 16 15 16 20 48 47 50 52 49 53 57 55 60 64
59 59 58 58 57 57 57 56 55 55 56 56 56 56 56 56 51 45 48 55 56 56 35 30 26 27 26 26 23 19 16 15 16 18 41 46 47 46 47 47 53 55 60 62 63
60 59 59 58 57 57 57 56 55 55 55 56 56 56 56 54 38 34 57 58 57 56 40 31 30 26 25 25 23 16 17 16 18 43 44 43 46 49 46 43 50 54 58 60 60
59 58 58 58 57 57 56 55 55 55 55 55 55 56 55 51 24 33 60 61 59 49 36 30 29 29 28 25 21 18 17 18 39 43 42 42 46 46 43 49 53 56 58 58 58
58 58 58 58 57 57 56 55 55 55 55 55 55 56 50 33 28 33 57 59 49 37 33 30 30 29 25 25 24 17 30 39 44 44 43 45 42 43 48 55 57 56 56 56 57
57 58 57 57 57 56 56 55 54 54 54 54 55 55 46 26 26 48 38 41 40 35 30 30 28 29 28 27 29 36 37 39 43 43 43 38 40 41 50 57 55 55 55 56 57
55 57 57 57 57 56 56 55 54 54 54 54 55 52 46 30 34 38 42 38 39 33 28 27 29 29 31 29 35 37 35 36 38 40 37 38 37 43 51 54 53 55 55 56 56
55 55 57 57 56 55 55 54 53 53 54 54 54 49 36 36 43 43 43 41 38 38 32 31 32 32 32 31 28 32 30 31 33 34 35 35 32 44 49 52 48 51 55 55 54
54 54 55 56 55 55 54 53 53 54 54 54 48 44 37 42 35 36 41 36 33 36 36 32 33 30 30 26 23 23 22 27 30 33 31 31 32 41 47 52 52 51 53 55 53
54 54 54 55 55 54 52 52 52 52 52 52 47 39 31 29 35 35 40 36 31 34 33 33 32 28 26 23 21 23 23 25 25 26 32 30 30 43 44 51 52 53 53 53 53
53 54 54 54 55 53 50 45 35 42 46 39 36 32 24 34 40 32 32 32 34 32 29 32 26 25 24 26 26 27 27 26 26 26 28 29 29 42 44 48 51 52 53 52 53
53 53 53 54 55 53 49 41 39 42 40 40 40 39 36 40 37 37 30 26 30 26 33 28 25 27 29 30 29 30 29 26 28 26 28 30 29 30 44 47 48 52 53 52 52
51 53 53 53 54 51 47 42 44 46 42 37 40 39 39 40 37 37 30 29 29 28 30 27 27 30 31 30 30 28 27 27 26 25 28 27 25 29 37 44 44 49 52 53 51
51 53 52 53 50 47 45 48 46 47 32 29 38 40 42 42 36 39 30 30 31 26 29 28 31 30 30 29 29 26 29 30 28 23 19 22 18 25 33 40 41 44 49 51 51
51 52 52 53 48 47 48 48 49 46 12 23 39 41 41 29 26 27 30 29 28 29 30 24 31 30 29 28 29 27 31 31 28 25 26 23 19 20 34 37 39 41 46 48 51
50 52 52 53 51 49 50 50 50 39 23 24 36 35 34 26 25 27 28 27 30 31 32 26 31 31 30 29 29 31 31 28 28 27 22 23 22 21 27 33 36 40 41 45 44
49 51 52 52 48 50 50 47 39 32 29 28 33 32 29 25 22 25 25 23 24 23 24 26 27 28 31 27 30 28 25 21 20 22 20 26 25 25 26 26 32 38 40 41 42
48 50 51 51 51 48 51 45 32 31 32 34 30 30 26 23 22 24 21 23 21 22 22 21 17 26 28 26 24 29 25 23 17 19 19 26 24 23 29 32 34 33 39 40 42
48 49 49 51 52 48 46 35 31 32 34 28 26 23 22 24 21 24 22 21 21 23 19 23 22 31 34 32 28 30 26 28 26 26 25 23 22 20 27 34 38 42 40 41 43
46 45 44 50 53 49 42 34 35 35 38 38 28 25 21 23 23 22 22 23 20 24 24 25 21 31 32 33 32 27 32 26 27 20 17 17 19 18 22 27 35 42 43 45 46
44 40 42 50 53 45 36 34 35 38 38 37 37 35 25 24 25 24 23 24 24 25 25 27 23 23 32 29 26 29 27 27 27 25 19 19 18 25 26 29 32 36 41 46 49
42 34 43 50 40 41 37 34 36 36 38 36 38 38 36 26 25 25 24 24 27 29 23 30 26 20 24 30 29 29 28 28 25 21 25 23 21 24 25 28 33 36 38 46 49
38 39 48 45 33 35 37 36 37 35 34 35 36 37 38 31 23 27 28 29 30 28 28 32 25 20 20 24 31 30 29 29 29 27 25 22 23 25 27 27 31 33 38 43 47
39 34 42 43 36 33 35 36 33 38 36 35 37 38 37 34 31 27 27 34 35 31 40 34 29 23 19 21 25 28 27 29 28 26 24 24 23 23 24 26 28 29 34 41 46
40 35 39 35 35 35 34 34 33 32 36 37 36 37 35 33 31 27 34 36 36 39 35 31 24 26 26 26 24 23 23 26 25 25 23 24 24 25 26 26 26 27 28 40 45
34 36 39 36 36 35 36 33 33 33 35 33 34 34 36 34 33 30 35 34 32 34 32 32 25 25 28 27 28 26 27 26 26 26 25 26 25 27 28 25 25 27 27 32 42
39 39 38 36 34 33 33 32 33 34 35 36 34 32 35 32 32 33 36 36 35 34 32 30 30 26 23 26 26 24 26 26 26 27 26 25 26 25 25 30 35 37 35 35 40

GFSSW_sfc_dewp_069.txt.gz
Dewpoint
60 59 59 59 58 57 57 57 56 55 55 55 56 56 57 57 54 50 39 40 48 56 54 39 34 35 32 25 23 20 21 18 17 15 18 47 47 51 51 49 55 57 55 59 64
61 60 60 59 58 57 57 57 56 55 55 55 56 56 56 56 51 43 47 55 57 56 35 30 27 30 29 28 24 21 20 18 18 17 35 45 47 47 47 48 52 55 59 62 62
60 60 60 59 58 57 57 56 55 56 55 55 55 56 55 55 37 32 58 57 57 55 39 30 28 26 24 26 24 20 20 19 17 23 44 43 45 48 46 44 49 52 59 61 61
57 58 59 59 58 58 57 56 56 56 55 55 55 56 55 50 14 33 60 60 58 47 34 30 27 29 28 26 24 21 20 19 26 44 42 41 46 46 44 48 53 55 58 59 59
55 56 58 59 58 57 56 56 56 55 55 54 55 56 49 33 27 39 60 60 49 40 32 30 30 29 26 26 24 20 28 39 40 43 43 44 43 44 51 55 55 57 58 58 58
55 55 56 58 58 57 57 56 55 55 55 54 54 55 44 27 26 41 42 43 39 34 32 30 28 30 28 27 28 33 37 41 43 43 43 37 41 41 51 54 55 56 55 55 57
55 55 55 56 57 57 57 56 55 55 55 54 54 52 44 32 33 38 41 38 39 35 31 28 29 29 31 29 34 37 35 36 39 40 38 39 37 43 52 54 54 54 55 56 57
54 54 54 54 55 56 56 55 55 54 55 54 54 49 35 37 40 41 42 40 40 37 33 32 33 32 31 31 29 32 31 30 32 37 36 36 32 45 53 51 51 53 53 53 55
53 53 53 53 53 55 55 54 54 54 54 54 49 42 32 41 30 33 40 34 36 37 37 32 34 32 31 27 26 25 23 27 27 34 32 33 34 43 51 50 46 51 51 53 54
52 53 53 53 53 54 53 53 53 52 53 52 47 39 36 26 33 37 41 38 33 36 33 33 33 30 28 25 22 24 24 25 25 27 32 30 33 42 48 51 47 50 52 53 53
48 52 53 53 53 54 51 47 34 40 47 41 36 35 29 33 40 36 35 35 34 33 30 32 29 28 27 28 25 26 26 26 27 27 27 28 31 41 46 50 50 50 50 51 53
50 51 52 53 53 54 50 45 37 44 41 43 41 40 39 39 37 37 33 30 31 26 32 29 28 28 27 28 28 29 27 26 27 27 29 28 28 35 43 47 49 50 51 50 51
50 51 51 52 53 52 50 46 45 47 43 42 41 37 37 38 35 34 31 31 28 28 31 29 28 30 31 31 29 29 28 28 26 27 28 28 25 29 37 44 48 50 51 52 52
49 50 50 52 50 49 47 47 48 49 35 29 35 38 41 39 34 38 31 31 30 28 30 29 30 30 31 30 30 27 29 28 28 25 20 23 18 23 30 38 44 47 50 52 53
48 49 50 52 50 46 47 51 50 47 12 23 39 41 41 31 28 36 31 31 30 29 30 26 31 31 30 30 30 29 31 30 28 25 24 24 19 21 30 32 37 43 46 50 52
48 49 50 51 52 51 52 53 51 39 24 24 37 37 37 35 27 28 30 32 32 32 32 27 31 31 31 31 30 32 31 28 29 28 24 24 22 21 23 29 34 37 43 46 50
48 49 49 51 46 51 53 48 39 31 31 24 34 34 33 30 24 27 27 27 27 26 28 26 27 29 31 28 30 29 28 24 24 25 22 27 25 25 28 28 30 33 41 44 48
48 47 48 50 49 51 50 43 33 31 30 32 29 33 28 25 24 25 26 25 24 25 24 23 20 26 30 28 26 28 27 27 15 19 19 26 23 22 29 30 34 37 37 42 45
47 46 46 48 51 50 46 35 30 32 32 29 26 30 29 24 24 26 27 25 24 25 23 25 21 29 33 32 30 31 28 28 28 27 27 24 24 23 26 31 35 37 43 39 43
44 43 41 47 52 49 42 32 35 35 36 37 32 28 29 25 23 25 25 26 24 26 29 28 23 31 33 32 33 30 33 28 29 21 18 19 20 20 23 25 32 37 41 43 43
42 38 41 49 50 43 34 34 34 37 37 35 37 35 27 26 26 25 25 25 25 26 28 28 28 25 32 30 29 31 29 28 28 26 22 20 20 28 26 28 32 35 39 43 46
41 32 44 48 38 38 33 34 35 34 37 37 37 37 36 28 27 27 26 27 28 28 25 32 31 26 26 29 30 29 30 30 30 24 27 25 23 26 29 29 30 35 38 41 47
37 37 46 42 31 32 34 34 35 34 35 35 35 37 39 35 26 29 29 32 29 30 30 33 28 22 20 25 31 30 29 29 30 30 27 30 25 27 27 28 30 32 35 39 46
38 31 39 41 35 31 32 32 33 35 36 35 35 37 36 35 35 29 29 33 34 31 39 35 30 26 21 21 27 29 30 30 30 30 28 27 26 27 27 27 29 31 32 33 43
39 35 37 32 32 32 32 31 31 32 36 37 36 36 35 32 34 30 34 37 37 40 36 35 28 28 25 23 26 27 27 29 28 29 28 27 25 26 27 28 29 29 29 30 34
35 36 36 36 33 32 32 32 32 32 33 33 35 34 34 35 34 32 33 36 35 35 35 34 30 30 27 28 26 26 26 28 28 26 25 26 26 28 29 29 27 30 34 31 32
40 39 36 33 33 30 28 30 33 33 35 34 34 34 35 33 37 37 38 37 37 36 35 33 32 30 26 27 28 28 29 28 28 28 29 26 28 29 27 27 32 36 37 41 42

GFSSW_sfc_dewp_072.txt.gz
Dewpoint
61 61 60 59 59 58 57 57 57 56 56 56 56 56 57 57 54 46 35 40 40 55 53 36 35 32 26 19 23 22 17 12 14 21 19 37 41 49 49 47 50 53 53 58 64
58 59 60 60 59 58 57 57 56 56 56 56 55 56 56 56 46 36 46 55 57 58 35 28 26 32 29 23 23 21 18 13 16 16 19 35 45 45 46 47 49 52 56 61 63
56 56 57 59 59 58 58 57 56 57 56 56 55 56 55 54 38 31 58 57 57 53 33 30 26 28 26 27 25 23 19 20 19 22 24 35 41 44 42 38 43 48 55 61 62
54 55 56 57 59 59 58 57 57 57 57 56 56 56 55 47 13 35 60 59 58 45 32 28 25 26 26 24 25 23 23 23 22 35 38 37 41 40 42 46 50 50 55 60 60
54 55 55 55 57 59 57 57 57 57 56 56 55 55 48 31 25 34 61 59 45 37 30 28 29 29 25 26 27 26 26 36 33 39 41 39 39 41 43 52 52 52 57 58 59
53 54 55 55 55 57 57 57 56 56 56 56 55 55 42 27 26 42 44 42 35 34 29 29 28 30 29 28 29 34 36 39 40 40 39 35 38 40 47 53 54 56 55 57 58
52 53 54 54 54 55 56 57 56 56 56 55 55 49 40 30 27 37 40 36 36 34 29 28 28 31 32 29 36 36 35 37 37 37 35 37 36 37 47 50 50 53 55 55 57
51 52 53 53 53 53 54 55 55 56 56 55 54 48 32 33 33 34 32 38 37 36 34 34 32 34 33 32 33 32 32 26 32 34 35 36 27 40 47 48 46 50 52 55 57
49 50 52 53 53 53 53 54 55 55 53 54 50 44 29 39 32 29 28 30 35 37 38 33 35 33 32 27 28 27 20 21 25 31 32 33 26 39 45 42 41 46 48 51 55
49 49 50 52 52 52 53 54 54 52 52 50 46 40 34 24 30 35 35 27 31 36 35 34 32 29 27 24 20 20 20 23 23 26 29 26 27 37 45 42 41 42 45 50 50
50 50 50 51 52 52 53 50 42 41 48 38 35 32 29 32 39 35 37 37 31 32 29 32 29 27 22 23 23 23 22 22 22 26 26 25 25 31 44 45 43 44 44 49 48
50 49 50 51 52 53 53 45 46 44 38 39 39 38 38 37 34 36 34 29 30 27 30 30 28 26 26 26 26 24 24 23 24 26 28 25 24 26 40 44 44 44 44 44 50
50 49 50 50 52 50 49 47 48 45 41 39 41 35 33 35 30 30 33 27 26 26 28 25 26 28 27 27 26 25 25 25 23 27 28 27 23 26 32 41 44 45 45 46 45
50 49 48 49 46 46 47 48 52 50 34 25 33 36 34 31 30 27 33 27 26 24 24 25 26 28 28 25 27 25 26 26 25 26 19 25 14 20 26 34 40 44 46 46 47
48 48 48 49 46 46 48 53 51 50 8 22 34 37 35 26 24 26 32 29 25 25 28 24 26 28 26 27 28 26 28 28 28 26 24 23 16 18 25 25 28 38 44 47 49
47 49 48 46 47 48 51 53 51 37 12 19 36 36 34 30 26 27 29 30 26 26 28 23 29 29 27 29 29 30 30 30 30 27 22 22 20 15 18 22 25 29 35 44 48
46 48 48 45 42 48 50 49 36 26 21 15 32 35 31 26 26 26 26 28 25 25 25 24 25 27 30 28 30 30 29 25 25 23 21 25 23 20 20 25 28 29 31 37 44
46 48 47 45 46 50 51 44 30 14 22 28 28 34 30 23 23 26 24 24 25 23 19 22 21 25 27 25 23 27 27 25 17 20 19 24 18 18 26 28 28 34 36 37 40
47 46 46 45 47 50 46 34 19 18 24 22 23 31 29 23 22 25 25 23 24 25 20 22 19 23 27 28 27 30 27 28 25 29 25 18 20 20 22 23 30 32 37 40 39
42 44 41 45 49 48 39 30 23 23 25 34 19 27 30 22 22 24 25 24 23 25 24 24 20 24 30 31 32 29 29 27 27 21 18 16 18 17 18 21 28 25 27 39 41
44 38 40 45 48 42 32 29 26 28 31 32 33 26 27 27 19 23 22 24 24 26 27 24 25 29 32 29 25 30 28 27 26 25 22 19 19 21 20 22 26 27 33 35 42
41 33 40 46 35 37 32 29 31 26 35 37 37 37 35 27 25 20 21 22 26 26 26 26 26 23 23 28 29 27 26 28 26 23 27 27 21 23 25 27 29 30 31 35 39
37 37 44 43 30 32 33 31 28 29 28 34 35 35 38 35 26 26 25 30 26 27 26 28 26 23 22 25 30 28 28 28 28 30 24 29 23 26 27 29 29 30 30 34 38
38 32 38 40 33 30 29 29 28 30 31 31 33 35 35 33 35 29 28 31 31 28 40 34 26 24 21 18 18 23 22 25 25 28 23 22 22 21 25 26 26 27 31 33 34
39 35 33 31 33 31 30 26 26 27 31 32 34 34 33 31 32 31 30 34 32 37 32 31 24 24 21 18 17 19 17 21 23 23 22 23 19 20 25 26 27 28 30 30 30
35 35 33 31 35 32 31 29 25 26 28 27 30 32 34 32 30 32 32 31 33 36 33 32 26 27 25 23 23 21 21 21 24 24 23 25 22 23 25 28 30 30 29 30 31
40 35 31 32 32 32 30 30 29 27 30 29 30 26 32 34 39 36 36 36 35 34 34 33 29 29 24 26 27 30 28 24 25 27 27 24 24 25 25 28 30 31 34 36 39

GFSSW_sfc_dewp_075.txt.gz
Dewpoint
58 59 59 60 60 59 59 58 57 57 57 57 57 56 56 56 54 42 38 40 38 55 51 34 32 29 24 20 16 19 16 12 10 13 30 27 34 45 46 42 44 49 51 58 62
56 55 56 57 58 59 59 58 57 57 57 57 57 57 56 55 46 36 47 55 55 56 34 28 26 27 25 19 21 19 17 14 14 14 16 21 33 38 39 40 41 48 53 62 62
52 52 53 55 56 57 59 58 57 58 58 57 57 57 56 53 40 30 59 56 57 53 35 28 24 26 25 23 21 20 17 18 16 22 24 25 32 38 37 33 41 42 50 58 61
52 53 52 53 55 56 57 58 58 58 58 58 57 57 55 46 22 36 60 57 58 40 35 26 23 24 23 22 22 19 18 19 21 24 32 31 34 33 35 40 46 45 50 58 59
52 53 53 53 54 55 55 56 57 58 58 57 57 57 49 31 28 39 60 59 41 38 32 25 23 24 24 22 23 22 18 22 30 29 35 34 32 34 35 46 53 50 55 59 58
52 52 53 54 54 54 54 54 56 57 57 57 57 56 46 31 25 31 38 46 38 35 30 27 27 27 27 24 24 26 26 28 32 32 35 32 31 34 44 49 51 53 55 57 58
51 51 52 53 53 53 54 53 54 55 56 57 56 50 43 36 27 28 36 37 34 32 28 28 28 28 29 26 27 31 28 29 30 30 30 32 34 41 42 44 48 51 53 55 57
51 49 51 51 52 53 53 53 53 54 56 56 55 48 39 30 30 27 28 37 36 35 33 33 34 32 30 30 27 29 28 27 42 34 30 29 37 43 43 42 43 48 51 55 56
50 49 49 50 51 52 52 52 53 55 55 54 51 46 32 40 29 26 25 29 35 35 35 34 35 32 30 25 23 25 23 27 26 24 26 28 25 36 40 39 41 44 44 49 56
51 50 49 50 50 51 52 52 51 54 52 48 44 40 35 23 25 23 23 26 32 34 35 34 31 29 27 24 19 22 26 19 17 28 25 22 22 28 38 37 37 42 44 41 45
51 50 50 49 50 51 50 43 40 44 46 32 32 30 26 26 31 30 24 26 31 33 30 31 27 25 23 24 21 21 20 19 20 23 23 22 22 23 37 39 41 39 45 44 44
50 51 50 49 50 52 48 39 36 45 34 30 30 32 35 34 32 28 30 28 29 27 29 28 26 25 25 21 20 22 21 21 22 22 25 23 22 24 33 37 41 42 41 44 45
50 50 50 49 50 47 43 40 44 46 38 28 28 30 26 30 32 26 28 28 26 26 25 26 24 25 25 22 23 24 24 24 24 23 25 23 21 21 27 35 39 42 41 43 44
49 48 48 49 45 42 41 43 47 51 31 16 32 34 32 28 27 26 28 25 24 23 23 25 23 25 25 23 25 23 24 24 24 23 25 25 18 27 22 29 36 40 42 41 44
48 49 47 47 44 43 47 50 52 51 10 19 27 33 30 27 14 22 23 26 22 23 24 22 22 24 25 24 25 25 27 25 26 25 23 19 12 18 17 20 27 35 41 42 43
48 48 48 42 43 43 46 52 52 30 11 16 30 30 33 30 25 19 21 27 23 22 22 21 22 23 24 25 26 27 27 27 28 26 23 19 18 17 16 14 21 25 35 40 43
48 48 46 38 41 45 48 47 30 15 10 12 24 31 32 28 25 23 20 25 22 22 23 22 22 25 26 27 28 27 28 26 25 23 23 24 19 18 24 19 23 23 27 35 41
48 47 43 37 42 46 48 41 19 10 11 23 24 33 30 27 25 23 21 23 23 21 21 20 19 23 26 26 26 26 26 26 24 23 21 24 16 16 20 21 21 23 27 30 35
48 44 40 41 45 48 42 34 22 13 8 11 23 27 30 31 23 22 23 21 21 21 21 20 18 21 24 25 25 25 25 26 26 24 24 20 18 20 19 18 20 23 28 33 37
46 42 38 42 47 46 37 31 22 15 8 16 17 20 25 30 25 23 21 20 21 22 23 21 20 20 23 24 25 27 28 26 25 22 24 17 18 15 18 18 23 23 25 34 37
44 39 40 43 47 41 30 31 29 20 12 16 21 20 21 30 26 24 21 21 21 21 24 22 24 22 24 25 23 25 26 26 24 26 25 22 17 25 18 19 21 23 25 27 34
42 34 41 43 36 36 32 30 31 24 23 19 23 26 23 25 29 25 23 22 24 24 24 25 25 23 22 23 23 23 25 25 26 22 24 24 22 24 23 23 25 25 25 27 31
37 37 44 43 30 30 30 28 29 26 22 24 28 30 35 30 30 28 27 28 24 25 26 26 24 22 21 22 26 25 25 25 27 27 25 32 26 21 22 25 25 26 25 25 31
37 32 39 41 32 28 26 26 26 28 27 20 27 27 30 33 35 29 29 30 33 26 38 35 25 24 22 20 22 23 21 22 24 31 27 24 20 19 19 23 26 26 26 26 26
38 34 32 31 33 31 27 23 24 23 26 26 23 26 28 27 29 28 32 31 32 35 32 31 25 23 20 18 17 16 18 19 19 22 24 22 19 16 18 21 23 25 27 27 26
35 30 30 27 32 31 29 26 22 21 21 23 27 25 26 24 30 22 28 34 30 33 30 31 28 25 22 21 18 17 15 17 16 16 17 18 18 20 22 21 22 23 25 27 28
41 34 32 29 30 30 30 27 24 22 24 23 25 27 27 27 36 37 36 35 35 34 34 32 32 27 27 22 22 27 21 19 19 19 21 21 23 23 21 21 24 24 24 30 33

GFSSW_sfc_dewp_078.txt.gz
Dewpoint
55 55 55 56 57 57 58 59 59 58 58 58 58 58 58 57 55 40 36 42 45 57 50 36 34 31 28 24 21 16 15 15 18 14 18 27 27 28 40 40 43 49 52 55 61
53 52 53 53 56 56 57 58 58 58 58 58 58 58 58 57 49 38 49 57 56 56 33 31 27 27 25 22 17 17 17 20 19 13 16 19 20 25 34 42 45 49 56 61 61
52 52 52 53 54 56 56 56 57 58 58 58 58 58 57 55 42 36 57 57 55 52 31 31 27 22 22 23 21 18 17 17 17 19 20 22 33 36 32 41 44 45 47 59 60
51 52 52 52 53 54 55 54 55 57 58 58 58 58 57 51 27 39 59 57 57 35 30 31 24 22 21 20 21 18 18 16 18 19 23 24 38 32 32 44 46 49 54 57 57
51 49 50 51 53 54 54 54 54 54 56 57 58 58 52 39 33 43 60 56 37 30 33 29 23 21 19 20 21 20 21 17 18 24 23 29 27 31 47 49 50 51 56 58 59
51 51 51 51 53 53 53 53 53 53 54 56 57 57 48 38 35 31 34 42 35 34 31 28 23 25 26 24 23 22 22 24 22 27 30 29 34 38 46 50 49 53 55 57 57
51 50 50 51 51 52 52 53 52 53 53 54 56 53 45 37 35 28 31 34 38 34 30 27 27 26 26 26 26 25 24 26 35 36 36 35 32 39 41 39 46 50 52 55 56
51 51 50 49 49 50 51 52 52 52 53 54 56 50 38 32 32 32 30 29 34 32 30 29 30 29 29 28 27 24 24 29 39 36 33 30 30 40 41 43 44 47 51 54 56
51 50 50 49 49 50 51 51 51 52 53 56 51 47 34 38 32 29 26 26 32 33 33 30 32 31 30 27 25 21 23 28 27 35 33 26 32 42 41 43 43 41 48 54 55
51 51 50 50 50 49 50 50 49 52 52 49 44 35 33 22 24 27 25 22 28 33 32 31 30 28 27 26 22 24 29 26 24 28 28 24 20 43 46 34 42 41 48 50 52
50 51 50 50 50 49 47 42 30 44 47 39 35 30 29 26 24 27 23 23 24 31 29 30 28 25 24 26 24 21 21 18 20 24 24 24 17 23 34 35 39 40 40 44 48
49 51 50 50 50 50 45 39 31 43 36 27 24 23 26 29 31 28 27 19 26 26 29 28 27 26 24 24 22 20 19 19 21 21 25 22 19 24 32 34 39 42 40 43 49
49 50 50 49 48 45 41 39 39 39 37 28 24 20 19 22 24 29 26 20 22 24 25 27 25 27 23 23 22 21 21 23 23 22 25 24 20 21 28 32 40 40 45 43 46
49 49 49 47 42 43 43 44 42 48 32 12 15 25 19 21 20 22 29 25 22 21 22 23 24 23 24 24 22 22 22 23 22 22 20 31 22 22 25 30 34 41 40 44 44
49 49 49 46 41 39 44 45 47 51 12 7 16 30 28 23 19 20 23 26 25 23 23 23 22 23 22 23 23 23 25 27 25 24 24 26 24 17 24 26 29 37 42 43 44
49 49 49 43 40 40 42 47 48 35 12 12 27 27 27 27 22 19 20 25 26 24 22 21 21 22 21 24 24 24 25 27 26 26 24 22 21 22 26 24 23 33 39 42 44
49 49 47 39 35 40 47 47 33 18 6 4 21 26 25 26 24 24 20 21 25 22 22 20 19 20 21 22 25 25 26 25 28 27 25 24 23 24 28 25 22 24 33 41 43
49 49 46 40 38 43 46 40 26 11 8 12 17 23 26 26 26 24 22 17 24 23 20 20 18 19 22 25 25 25 26 28 25 30 29 32 22 15 23 22 24 23 27 36 41
48 47 44 45 43 46 40 29 26 16 7 10 15 20 27 26 24 24 23 20 20 24 20 20 18 19 22 25 25 26 25 27 27 27 31 29 29 27 21 19 19 20 25 32 36
47 43 42 45 46 45 36 29 26 27 15 11 11 21 24 28 28 24 22 23 20 24 25 24 23 21 20 23 25 25 27 27 26 26 23 17 20 28 27 21 21 23 29 35 40
44 39 42 45 45 40 30 29 26 26 25 20 15 13 15 16 28 24 22 23 25 25 26 24 26 23 20 21 21 22 24 30 27 26 27 27 22 33 29 26 25 27 29 32 40
42 33 42 44 36 35 32 31 29 22 23 25 26 25 17 20 29 30 24 25 31 26 23 26 28 24 22 22 22 22 25 27 28 23 30 33 27 26 30 28 27 29 28 32 33
38 37 45 42 30 30 29 29 28 23 20 22 25 24 24 28 25 30 29 29 27 29 27 28 26 25 22 22 24 23 22 24 27 27 27 31 26 28 24 25 28 30 29 29 33
36 32 40 40 34 29 26 25 25 26 25 22 25 26 28 35 38 29 30 30 40 35 41 40 28 25 24 24 24 22 20 21 27 31 29 28 25 22 22 24 25 29 34 32 31
35 34 34 32 34 32 28 23 22 21 24 25 26 27 28 32 36 29 33 34 36 38 35 36 29 27 23 21 19 21 21 21 20 21 23 24 22 22 22 20 29 30 32 30 28
33 33 32 31 33 33 31 27 22 19 19 21 24 26 26 34 26 24 28 37 35 37 38 34 29 28 27 22 22 20 19 20 20 18 17 20 20 20 20 21 27 25 23 24 29
41 37 34 33 33 31 30 27 24 22 21 20 21 25 28 33 36 38 34 38 39 37 35 37 32 30 28 26 22 23 23 19 17 19 20 19 23 23 23 23 26 28 29 27 28

GFSSW_sfc_dewp_081.txt.gz
Dewpoint
54 54 54 54 54 56 56 56 57 57 58 58 58 58 58 57 56 49 38 46 49 58 52 39 30 30 30 30 28 24 15 12 14 20 17 31 34 32 47 48 49 52 47 54 62
51 51 51 53 54 54 55 55 55 56 57 58 58 58 57 57 53 46 49 57 57 58 35 32 32 32 28 26 24 17 16 16 19 20 20 24 36 32 41 45 45 48 48 56 62
50 50 50 51 53 54 54 54 54 55 55 56 57 57 57 56 47 37 56 58 58 55 33 31 31 29 23 22 22 21 15 17 17 18 23 23 32 45 43 45 48 46 52 59 61
51 51 51 51 52 53 54 54 54 54 54 55 56 57 57 54 27 42 58 58 57 38 33 29 31 25 22 20 21 20 20 19 19 18 25 23 34 44 48 49 51 58 59 59 60
48 50 51 50 51 52 52 52 53 53 53 53 54 57 54 43 40 45 59 56 40 32 31 31 31 25 21 20 22 24 22 22 27 34 33 30 39 41 40 48 52 57 58 58 59
51 48 50 50 51 51 51 51 51 52 52 53 53 56 52 38 35 38 49 45 37 31 30 31 30 27 24 25 24 24 23 23 30 33 34 34 37 38 41 46 51 56 57 57 58
51 50 50 50 50 50 50 51 51 51 52 52 52 52 49 41 31 30 33 33 42 37 34 32 30 27 28 27 29 27 25 26 30 32 33 35 35 38 41 44 48 52 55 55 56
51 50 50 50 50 50 50 50 49 50 51 52 52 52 45 39 36 37 34 34 32 39 37 34 32 34 34 31 29 26 24 23 34 34 34 32 30 40 40 46 47 50 54 54 55
51 51 51 50 50 50 50 50 49 50 51 53 51 50 42 42 37 34 34 29 30 30 34 32 32 32 32 30 28 27 23 25 31 34 35 35 34 39 42 41 45 49 54 53 54
51 50 50 51 50 50 49 48 47 49 48 49 50 44 44 32 27 28 31 29 28 33 33 33 30 29 29 28 25 24 26 30 31 32 35 32 33 40 41 44 45 52 52 52 52
50 50 50 50 50 49 47 41 35 41 46 44 41 36 29 34 35 25 28 26 26 25 30 32 28 27 27 27 27 26 25 27 30 30 30 27 30 41 43 43 46 47 51 51 51
50 50 50 50 49 48 45 39 39 41 35 40 40 40 40 39 31 29 29 24 25 20 29 30 27 29 29 26 25 25 23 21 22 25 25 24 22 30 38 41 42 43 45 48 52
50 50 50 50 48 44 41 39 43 44 37 35 35 30 27 22 16 18 26 27 21 20 23 28 29 29 28 26 25 24 22 22 22 25 24 27 25 25 32 40 39 40 45 49 51
50 50 49 48 42 40 40 41 42 43 37 26 23 26 25 23 21 16 22 29 22 18 21 25 28 27 27 26 24 23 25 24 27 23 21 28 22 25 31 37 40 39 43 48 49
48 50 49 48 40 36 38 46 44 50 21 15 13 24 22 20 21 21 20 24 26 19 22 22 24 26 25 24 25 25 28 30 30 26 25 25 26 25 27 31 39 42 41 44 48
48 50 49 44 44 39 40 49 47 36 22 15 28 29 27 18 22 23 20 21 27 22 21 22 24 23 23 24 25 27 27 28 30 27 24 25 27 25 25 30 32 40 44 43 47
48 49 48 43 38 39 45 45 34 27 11 3 18 28 28 27 20 25 22 18 19 23 23 23 23 22 22 23 25 25 24 26 27 27 26 34 31 26 28 27 31 40 41 44 44
48 48 48 44 43 41 43 38 28 24 20 12 10 20 25 26 27 27 23 21 20 24 23 22 21 21 22 22 23 24 25 28 24 27 32 38 30 26 29 28 25 26 39 42 44
48 45 44 44 44 42 38 27 22 23 20 16 13 9 11 26 28 26 25 24 20 21 23 21 20 23 21 25 26 28 26 28 32 36 32 33 31 32 29 25 24 21 23 39 43
45 43 40 44 45 42 35 25 24 26 23 22 21 20 17 24 28 27 26 25 24 21 25 28 24 23 21 24 27 25 30 29 29 28 28 26 28 27 27 27 26 24 32 36 37
44 39 41 44 45 39 26 25 26 25 23 23 21 22 23 25 27 34 32 26 24 23 24 23 26 25 25 22 23 26 25 30 29 29 24 22 25 32 29 28 28 26 27 32 37
41 32 43 43 35 35 29 26 30 25 25 23 23 23 24 25 25 25 32 30 28 27 23 27 30 25 23 25 23 24 25 27 30 27 31 29 26 31 28 28 28 26 28 28 29
36 37 44 43 29 30 29 28 29 28 27 25 25 24 25 24 26 29 34 34 29 31 30 29 29 25 23 23 25 23 24 25 28 31 29 28 29 29 30 27 25 25 25 27 30
34 30 38 40 36 31 30 28 27 30 29 28 26 24 23 23 27 30 36 38 34 35 41 36 30 25 23 24 27 26 23 24 26 28 27 28 28 28 27 25 25 26 30 30 32
35 32 35 30 34 31 30 27 27 26 27 27 25 25 25 23 27 30 38 38 36 40 39 35 30 28 28 24 24 25 24 23 22 27 27 29 28 28 25 24 24 29 29 31 30
31 33 35 31 33 34 32 30 29 26 24 23 23 23 25 26 27 30 36 37 38 37 38 37 29 32 28 28 25 24 24 23 23 23 21 22 24 24 25 22 24 25 30 30 30
40 38 35 33 32 32 31 28 29 29 27 24 23 22 22 24 30 37 44 44 42 38 35 36 35 32 28 29 28 25 25 23 25 24 24 21 22 24 23 24 23 25 25 28 29

GFSSW_sfc_dewp_084.txt.gz
Dewpoint
52 51 52 53 54 54 54 54 54 55 54 55 56 57 57 57 56 50 42 44 50 57 55 36 31 31 30 29 30 23 20 17 16 14 17 25 32 44 49 47 49 52 48 52 61
50 50 50 51 52 53 53 54 54 54 54 54 55 55 56 56 53 46 49 57 59 59 35 31 32 33 31 28 26 22 17 17 18 16 19 24 38 38 45 47 46 50 52 53 58
49 49 49 49 52 52 52 53 53 53 53 54 54 54 55 55 48 38 58 59 60 57 33 32 31 31 27 24 22 21 19 21 19 18 21 23 43 47 44 46 50 48 52 55 61
50 49 50 50 51 52 52 52 52 52 52 53 53 54 55 54 3 41 56 56 57 40 32 31 32 31 24 21 22 20 21 21 19 28 30 26 43 44 48 49 57 58 58 60 58
51 51 50 50 51 51 51 51 51 52 51 51 52 54 52 45 43 41 59 56 46 32 28 28 32 31 25 21 22 23 24 24 29 34 33 36 38 39 45 50 58 58 58 58 57
51 52 51 50 50 50 51 50 50 51 51 50 51 53 51 39 34 34 51 46 36 29 28 32 32 32 27 24 26 26 27 27 26 29 32 34 37 38 40 50 56 56 56 57 58
51 51 51 51 51 51 51 51 50 50 50 50 50 49 46 36 35 28 31 34 39 34 31 32 32 30 29 27 29 29 26 25 25 28 32 35 34 34 39 45 55 55 55 55 56
51 51 51 51 51 51 51 50 50 50 50 50 51 49 42 41 42 40 40 37 35 36 35 35 35 32 31 30 30 28 27 22 26 32 33 30 27 36 40 45 51 54 54 54 56
51 51 51 51 50 50 50 49 49 49 50 51 49 48 41 46 41 40 35 30 32 34 36 37 37 32 32 30 28 28 25 25 26 32 33 32 29 36 40 45 49 53 52 52 54
51 51 51 50 50 50 49 47 46 49 48 47 50 44 41 31 32 35 34 33 31 32 31 33 30 28 29 28 24 26 26 27 29 29 33 32 31 34 41 43 48 51 52 50 52
51 51 51 50 50 49 46 39 38 39 42 44 44 41 32 34 40 37 31 31 28 26 28 33 29 27 26 28 28 27 27 26 26 29 31 31 31 35 41 47 50 51 50 49 50
50 51 51 50 50 49 44 39 40 42 39 42 39 37 43 41 41 41 33 25 26 23 27 30 28 29 28 29 28 27 26 25 23 24 28 27 25 32 42 46 49 50 50 49 49
49 50 51 50 50 43 40 39 43 42 41 38 35 33 35 37 36 38 28 28 24 22 22 23 29 30 29 28 28 27 25 24 21 23 25 26 24 30 38 42 45 47 49 50 50
48 49 50 49 39 39 35 36 40 45 36 31 32 30 31 28 23 26 19 19 28 22 21 21 23 28 29 27 27 26 26 25 25 25 21 26 22 25 35 40 42 42 45 50 50
48 48 49 48 41 37 32 37 41 47 3 12 21 28 28 21 20 20 16 14 23 21 21 21 23 26 28 27 28 27 28 26 29 27 25 25 25 25 35 38 39 41 44 48 51
47 48 49 45 42 42 41 43 47 32 17 21 22 24 23 23 21 23 17 23 23 26 24 19 22 25 26 28 28 27 27 28 30 27 24 31 30 26 27 33 39 39 43 47 49
48 48 47 45 38 41 42 42 32 25 21 9 16 27 27 21 19 21 21 17 20 23 24 23 18 20 25 23 25 25 24 23 24 25 24 36 32 29 30 29 38 40 40 47 48
47 48 46 45 44 42 41 33 25 24 21 20 21 19 16 13 25 19 19 21 19 21 23 22 21 22 24 23 23 24 25 26 22 25 28 35 27 29 30 30 30 40 42 42 48
47 43 42 44 45 42 37 24 15 19 23 21 21 17 14 22 27 30 26 20 22 17 23 24 21 23 23 23 23 25 25 28 31 35 30 32 32 30 29 26 26 35 40 43 43
44 42 39 44 44 40 32 21 20 17 17 20 19 22 19 21 24 30 33 29 26 24 22 27 23 23 22 23 24 26 29 26 30 27 26 28 30 28 26 25 27 25 40 42 44
43 38 41 43 44 38 25 23 21 19 17 22 18 19 19 19 23 25 32 32 31 28 25 22 27 25 26 24 21 26 27 30 30 31 27 23 24 29 27 28 26 27 34 39 43
41 32 44 43 33 33 29 25 28 24 26 24 25 21 21 18 21 22 23 29 30 34 29 24 25 23 23 25 25 25 25 29 30 28 30 28 25 30 28 28 28 25 27 33 40
37 36 44 42 28 29 30 30 29 25 26 27 25 26 27 25 22 22 28 31 37 39 29 28 25 25 22 24 26 25 25 27 33 33 29 28 27 32 31 31 30 27 26 28 31
33 30 37 40 36 28 28 30 29 29 29 28 26 27 27 26 25 26 27 32 40 37 42 35 30 22 20 22 27 27 26 25 28 28 26 29 26 28 28 29 29 29 27 29 30
34 32 35 29 32 32 29 27 28 26 28 29 28 28 26 25 25 24 25 37 36 39 40 36 28 28 27 26 26 25 25 25 24 27 25 26 27 29 30 30 28 26 30 29 30
32 34 36 30 31 34 30 28 27 26 27 25 26 25 25 25 24 21 28 37 35 38 39 37 29 29 28 28 27 29 28 25 27 25 25 28 27 29 28 30 24 27 29 30 29
40 38 36 31 30 29 30 30 28 29 28 28 27 26 26 25 26 26 33 41 41 39 37 38 34 28 25 28 28 28 29 28 28 28 26 24 26 26 24 23 23 25 26 30 30

GFSSW_sfc_dewp_087.txt.gz
Dewpoint
51 50 50 51 52 52 51 52 53 52 52 52 53 54 55 54 54 50 38 39 50 59 53 32 31 30 30 29 29 23 21 19 18 16 15 19 31 45 48 45 48 52 49 54 61
49 49 49 50 52 52 52 52 52 52 51 52 53 54 54 54 51 47 47 57 59 58 34 33 31 33 30 30 27 22 19 19 19 17 18 22 34 43 46 46 47 49 53 53 60
49 48 48 48 51 52 52 52 51 51 51 52 52 53 53 53 45 24 57 59 61 57 32 31 30 30 29 27 25 22 22 21 21 21 21 19 41 44 44 45 49 48 53 53 60
49 49 49 49 50 50 50 51 51 51 50 50 50 52 53 52 -7 33 58 57 59 45 31 28 29 30 25 22 21 19 20 21 21 23 30 27 41 44 45 46 55 58 54 59 59
50 50 50 49 49 50 51 51 51 51 51 50 50 52 50 44 37 40 57 55 46 31 26 25 28 30 27 24 23 21 22 25 25 27 32 38 38 39 47 55 58 58 59 57 58
51 51 51 50 49 49 51 51 51 51 51 49 49 50 48 34 25 32 40 46 34 29 27 30 27 31 29 27 25 27 26 27 26 27 30 33 37 39 42 55 57 56 56 57 55
52 52 51 50 50 50 50 50 50 50 50 49 49 47 45 28 29 32 34 30 38 34 29 30 32 30 31 28 30 28 25 26 26 25 29 33 31 36 39 55 55 55 55 56 54
51 52 51 51 51 50 50 49 49 49 49 48 49 46 40 41 41 41 39 38 36 32 34 35 34 32 30 31 30 27 28 24 26 29 31 30 26 34 43 54 53 54 53 53 54
51 52 51 51 50 50 50 49 49 49 47 48 48 46 36 44 42 43 39 33 31 34 37 37 37 34 34 29 27 28 24 25 26 28 30 31 28 34 40 48 52 52 52 51 52
49 50 51 51 50 50 49 48 48 49 47 47 48 38 34 26 33 38 38 34 30 31 32 31 31 29 29 27 24 25 25 26 26 29 33 31 31 34 40 46 50 52 51 50 50
49 49 50 51 50 50 46 41 40 37 40 40 41 41 40 38 41 39 39 34 30 29 26 31 28 27 28 28 28 27 27 26 26 27 30 28 30 30 37 42 49 51 50 49 50
48 49 49 49 50 49 42 39 39 40 37 39 39 40 40 40 36 35 39 28 28 23 27 28 28 29 29 28 27 27 27 26 26 26 27 27 27 26 39 43 47 50 49 48 49
48 48 49 49 50 41 37 38 38 40 39 37 39 37 36 36 32 32 39 28 25 24 24 22 26 28 30 29 27 27 26 26 26 26 26 26 24 25 36 44 48 50 49 49 49
48 48 48 49 39 40 33 37 39 41 34 31 35 31 30 31 28 33 34 24 26 23 23 22 23 23 30 28 28 26 29 28 27 26 23 26 21 24 30 40 45 46 49 49 49
47 47 47 49 42 39 35 41 41 45 6 14 24 30 30 21 19 23 29 25 19 25 22 22 21 21 22 28 29 27 30 29 28 26 25 25 24 24 37 38 41 43 46 48 50
46 47 47 43 42 42 42 42 44 32 13 17 22 26 26 25 23 22 17 17 16 16 25 22 23 22 21 23 28 30 29 28 30 27 24 28 27 26 27 34 38 41 42 45 50
47 48 46 44 38 41 42 39 32 24 24 15 20 22 19 21 21 19 17 16 17 14 12 21 24 23 26 24 26 28 26 23 22 23 23 32 33 30 30 30 35 39 41 43 47
47 47 45 44 43 42 39 29 24 22 23 23 21 20 17 23 25 29 20 15 16 21 20 7 14 23 22 21 23 24 25 25 20 23 23 34 29 28 32 32 32 40 40 42 46
47 41 43 42 44 42 33 21 17 20 22 18 17 20 21 23 25 28 30 28 21 17 21 23 21 23 21 22 21 23 23 25 26 33 29 29 31 31 31 30 28 38 40 41 46
40 42 37 43 44 39 31 19 18 19 17 17 15 20 20 18 19 25 30 33 30 30 27 23 22 25 23 23 24 23 28 26 29 26 26 27 28 27 29 25 26 34 41 41 45
42 37 39 44 42 36 24 21 21 20 18 18 20 14 14 16 22 24 29 30 32 31 34 34 24 23 25 23 22 25 22 28 27 29 22 23 25 30 31 30 26 25 38 43 43
39 31 42 43 33 31 26 23 26 24 26 27 26 21 22 22 19 19 22 28 31 34 32 36 27 21 20 23 25 24 23 26 27 26 29 27 25 28 31 28 28 28 27 36 44
35 35 43 41 26 27 26 25 26 23 23 26 27 27 27 25 23 24 23 25 28 37 36 38 34 23 22 22 23 23 25 27 32 31 28 26 26 30 31 30 31 29 28 28 38
35 29 35 38 35 29 26 26 28 31 27 26 25 27 26 24 25 26 26 29 33 37 41 39 38 33 21 21 23 25 24 26 30 28 27 28 28 28 29 30 29 30 29 28 30
36 32 34 28 31 32 27 26 26 26 31 31 29 28 27 25 25 24 25 25 30 40 37 38 34 34 29 22 22 27 26 26 26 27 26 27 28 28 29 29 29 31 30 28 28
33 33 37 31 32 33 33 29 26 26 26 26 26 25 28 27 25 22 22 23 32 39 37 38 35 36 28 28 22 21 23 28 29 28 26 26 26 29 29 31 30 27 27 28 28
40 39 37 33 30 30 29 29 28 27 28 28 28 27 27 27 28 28 28 28 31 34 37 35 35 33 27 28 28 27 28 26 25 29 26 25 28 30 29 28 29 28 28 28 30

GFSSW_sfc_dewp_090.txt.gz
Dewpoint
49 49 49 50 51 52 51 52 52 51 50 51 51 51 52 54 53 48 35 35 49 58 50 36 31 30 29 28 28 24 21 19 19 17 16 18 27 43 47 44 47 51 50 54 61
50 50 49 49 51 51 51 51 51 52 51 51 51 52 53 53 50 46 46 56 58 59 35 30 31 32 30 30 28 24 21 20 20 19 19 22 26 41 44 45 46 48 52 60 60
48 48 49 49 49 49 51 51 51 50 51 51 51 52 52 52 35 14 58 59 59 56 32 31 31 29 28 29 26 23 23 23 22 21 22 21 30 43 43 42 45 46 49 53 58
49 49 49 49 49 49 50 51 50 50 50 50 50 51 52 51 -11 23 57 58 60 49 31 28 28 28 27 23 23 20 21 21 20 23 29 27 37 43 43 42 51 53 55 54 59
50 50 50 50 49 49 50 50 50 48 49 49 49 50 49 30 27 33 53 54 46 33 26 25 28 28 26 25 23 21 21 23 25 26 27 36 38 41 44 52 57 58 57 58 57
51 51 50 50 50 50 50 50 50 50 48 48 48 49 47 12 15 31 33 45 36 29 26 25 24 28 28 27 24 26 25 26 27 26 27 33 35 41 41 56 56 56 57 56 55
51 52 52 51 50 50 51 50 50 50 49 49 47 45 44 16 17 27 31 28 32 33 28 29 32 30 31 28 30 28 26 26 26 25 25 30 31 38 39 55 55 55 55 54 54
48 49 51 52 52 51 50 50 49 50 50 49 47 45 40 37 40 40 39 36 34 29 32 34 34 31 30 30 30 28 26 24 24 27 28 31 26 30 42 53 53 53 52 53 54
48 49 50 50 50 51 50 49 49 50 48 47 45 45 31 39 41 40 38 34 34 34 33 35 34 32 34 29 28 27 24 23 25 28 29 30 28 30 43 52 52 52 51 50 52
47 48 49 49 49 50 49 48 48 49 47 47 45 35 24 16 34 38 41 36 31 33 33 34 35 32 30 28 23 24 25 25 26 27 28 30 30 31 37 42 50 51 50 50 50
46 47 48 49 49 49 45 41 38 37 39 38 38 39 38 40 41 40 41 36 32 30 25 30 27 27 27 29 27 26 26 26 26 26 26 25 25 26 32 40 44 49 50 49 49
46 46 48 48 48 48 38 39 36 37 35 37 38 38 38 37 34 33 36 33 29 24 27 30 26 26 29 29 28 27 26 25 26 26 26 25 25 26 33 38 40 46 48 48 49
46 46 47 48 48 40 38 37 38 39 36 35 37 36 35 36 31 28 33 30 26 25 25 23 25 29 29 28 27 27 26 25 25 25 27 26 25 25 31 41 45 48 49 49 49
47 47 47 48 39 41 33 39 41 41 33 28 36 35 33 34 29 31 27 26 27 24 25 23 24 23 28 28 28 26 28 27 26 26 24 25 22 24 25 35 43 46 48 48 48
47 46 47 47 41 38 37 42 41 42 8 14 26 30 30 26 21 23 30 30 22 25 24 23 22 23 21 28 29 27 29 29 29 27 27 25 24 24 34 31 34 42 47 48 48
46 46 46 41 41 40 43 42 43 30 17 19 24 26 22 27 24 24 23 22 24 23 21 22 24 22 22 23 30 32 30 29 30 28 24 25 25 25 25 31 33 38 44 47 48
46 46 44 43 35 41 42 37 28 23 23 19 21 22 21 22 25 29 18 19 12 11 14 12 17 25 26 22 28 28 27 23 22 23 24 27 31 28 28 29 33 33 41 44 47
46 47 44 43 42 42 37 25 21 20 24 21 15 22 19 18 23 26 28 16 17 21 15 5 2 14 24 23 24 26 26 25 20 20 21 33 30 29 32 33 33 33 37 42 45
46 39 42 41 43 41 30 15 12 20 18 14 10 19 20 20 14 21 27 31 30 30 21 21 10 20 21 22 21 23 24 26 23 29 28 28 30 30 31 29 30 29 40 42 44
40 39 36 41 43 38 28 17 14 19 16 16 10 14 15 8 6 13 20 31 30 34 34 31 24 23 24 24 23 20 25 22 28 23 23 25 28 25 26 27 28 28 39 40 45
39 35 38 43 41 35 22 20 20 19 23 15 21 11 13 14 16 20 23 25 32 32 35 36 30 24 24 23 21 24 22 27 26 27 21 21 24 30 28 29 30 26 32 41 43
38 30 41 43 32 32 24 23 25 22 25 25 24 20 17 19 19 17 20 22 19 20 27 38 36 26 24 23 23 23 22 23 22 22 28 24 21 28 30 30 31 27 27 35 43
34 34 43 40 25 26 25 23 24 23 22 25 27 27 27 26 23 24 23 26 31 33 34 33 34 28 24 23 25 22 23 25 30 30 23 24 24 29 30 30 30 30 29 30 40
33 28 33 37 35 26 25 24 23 28 25 24 26 26 24 24 25 25 26 27 28 25 40 36 32 30 28 30 33 29 23 23 27 27 24 25 26 28 28 30 29 30 30 29 28
35 30 32 25 29 30 28 25 23 23 29 30 27 25 24 23 25 24 25 26 27 29 37 35 29 28 31 33 34 35 28 22 22 25 25 25 27 28 29 29 30 31 30 29 27
32 32 34 28 30 29 29 26 24 24 24 29 30 28 29 27 26 24 25 25 24 35 36 38 28 33 30 31 34 32 27 25 27 26 27 27 26 30 31 30 30 30 30 30 29
39 39 35 29 27 27 26 27 27 26 30 27 29 30 29 28 30 29 31 30 29 26 26 33 33 33 27 32 32 26 25 23 23 29 28 25 27 29 28 29 30 30 30 28 29

GFSSW_sfc_dewp_096.txt.gz
Dewpoint
49 49 49 50 50 50 50 50 51 50 50 50 50 50 51 52 51 33 21 30 44 56 56 41 35 29 28 22 26 25 17 13 11 12 12 20 23 26 34 34 38 42 42 46 54
49 50 50 50 50 50 51 51 51 50 50 50 50 50 51 52 43 24 42 53 55 58 37 33 25 25 20 20 22 21 16 13 14 14 16 20 24 25 28 30 35 38 44 50 55
51 51 51 51 50 50 51 51 51 50 50 50 50 51 51 49 27 9 56 59 57 56 33 29 27 24 22 24 23 21 17 15 18 18 20 20 21 24 27 25 26 27 32 45 54
52 51 51 50 49 50 51 51 50 49 49 49 50 51 51 43 -8 24 53 58 58 44 33 32 31 28 25 24 23 23 22 19 18 18 22 21 22 24 25 27 28 40 42 49 53
50 49 49 48 48 48 49 49 49 48 49 50 50 50 43 21 7 6 51 53 43 42 35 31 29 28 22 20 22 26 21 20 19 20 20 23 24 24 24 25 28 41 52 51 52
48 48 48 49 48 48 48 49 49 49 50 50 51 48 40 16 3 11 25 40 33 29 28 32 27 24 20 20 21 19 22 19 19 20 22 24 23 21 26 25 37 48 50 53 54
47 47 48 48 48 47 47 49 49 49 50 51 51 46 39 19 13 21 27 23 29 20 13 16 25 26 25 23 24 24 22 19 20 21 21 21 20 19 23 34 40 46 50 52 52
46 47 48 49 48 48 49 48 49 49 50 49 50 43 31 26 27 26 18 15 16 18 11 14 27 26 27 27 26 24 24 20 21 20 21 26 16 25 31 35 32 39 47 51 52
45 47 48 48 49 48 48 48 49 49 49 49 43 40 22 32 25 28 33 29 33 31 19 25 31 28 28 25 21 21 18 18 20 22 19 26 20 26 33 33 33 35 43 47 50
45 46 47 48 48 48 47 48 47 48 44 45 41 36 24 12 29 33 36 38 34 31 21 20 29 28 27 24 19 20 20 20 19 19 26 22 24 24 25 27 30 33 41 45 48
45 46 46 48 47 47 45 36 27 32 29 22 16 25 22 24 31 26 38 36 33 30 21 14 23 24 22 25 24 20 20 18 18 22 24 22 18 19 24 25 29 32 40 44 47
46 46 46 47 47 46 41 34 33 36 31 30 29 30 31 31 28 24 28 32 31 24 26 22 15 14 21 23 24 23 21 19 19 20 24 21 18 20 23 25 28 30 36 42 46
45 45 45 47 46 41 38 36 39 39 33 26 31 33 33 34 30 25 25 23 29 23 25 24 20 20 14 23 24 23 21 20 20 20 23 23 20 16 18 27 30 36 36 39 44
45 44 47 47 40 38 32 37 39 43 27 14 25 31 34 33 30 27 25 17 19 23 22 24 22 20 20 19 20 20 20 21 20 20 18 22 13 13 20 24 24 26 37 41 43
43 44 46 45 38 32 35 41 40 43 -5 15 26 32 24 29 26 25 29 23 15 10 25 24 24 23 21 22 22 22 23 21 24 22 21 20 18 16 20 24 25 25 28 41 45
45 44 45 40 40 37 40 42 43 27 -5 12 20 17 19 23 23 26 25 26 23 16 13 20 20 22 23 21 24 25 27 27 28 26 23 23 19 14 17 24 23 25 32 40 45
45 45 42 39 33 41 42 33 24 4 3 13 16 16 19 14 22 12 26 24 17 19 15 10 14 16 22 22 23 25 27 23 24 24 21 20 21 19 24 25 26 26 28 40 45
46 44 42 37 41 42 37 20 17 2 8 17 13 12 18 9 7 4 25 21 24 23 14 10 7 12 19 19 19 25 26 22 16 19 20 23 21 21 26 26 27 32 33 37 44
43 41 40 39 43 41 29 11 -3 4 10 10 3 -1 1 12 5 7 5 27 25 23 22 22 16 21 14 17 18 21 23 24 21 21 22 22 25 29 27 28 29 28 28 34 42
41 39 34 41 44 39 23 10 1 11 14 12 -0 1 -2 4 6 6 3 21 28 16 21 21 24 23 21 20 18 18 20 23 24 19 16 15 18 21 23 24 24 28 28 32 39
42 34 37 43 44 34 20 7 8 10 13 10 6 7 6 7 5 2 0 3 16 17 16 26 25 24 26 20 15 15 19 22 20 22 19 18 17 25 24 25 25 28 29 33 39
39 31 42 42 33 29 21 16 20 13 16 13 13 15 11 8 6 1 1 1 7 14 12 24 26 23 24 27 29 30 23 19 19 17 23 22 19 25 27 28 29 30 32 32 38
36 31 42 42 25 23 21 20 20 18 16 11 11 13 12 11 6 7 10 16 21 27 25 24 26 21 22 26 30 28 28 30 30 28 24 25 22 23 25 28 32 31 30 32 34
37 30 34 37 34 24 20 19 19 22 21 19 18 19 18 19 19 16 20 24 28 25 34 29 23 19 14 20 22 24 26 27 28 29 25 23 22 22 22 24 25 26 30 31 34
36 29 27 27 29 32 24 22 18 18 22 22 21 20 16 13 14 16 19 21 22 27 28 26 23 20 20 18 16 17 17 19 25 26 27 27 26 23 25 24 26 27 29 31 32
33 32 31 22 23 25 26 24 21 20 21 20 22 20 23 23 18 19 26 25 25 26 29 31 24 28 25 24 23 20 17 18 19 23 24 25 27 30 28 25 25 26 26 26 31
38 36 32 23 22 23 21 24 21 22 24 23 23 24 23 26 32 37 35 33 31 28 28 28 27 26 21 24 26 25 24 21 18 20 28 29 29 28 27 25 26 30 31 30 31

GFSSW_sfc_dewp_099.txt.gz
Dewpoint
50 50 50 50 51 51 51 51 52 51 51 51 51 52 52 53 51 30 18 31 40 56 55 37 37 29 24 23 22 21 15 14 14 13 12 11 19 21 23 25 25 27 34 36 47
51 51 52 51 52 51 51 51 52 50 50 51 51 51 53 53 43 25 49 52 53 57 37 32 33 27 22 21 19 18 15 14 15 13 12 13 18 20 21 23 23 27 30 37 50
51 51 50 49 49 48 48 49 50 48 49 50 51 51 52 50 36 20 56 59 57 54 36 31 30 25 22 19 18 18 16 15 15 14 14 14 14 16 17 20 23 23 27 34 42
50 50 49 49 49 49 49 50 48 48 48 48 50 51 52 44 15 27 51 58 58 45 35 30 27 25 21 19 19 18 18 18 17 15 15 15 17 16 16 19 21 23 27 38 43
49 48 48 48 48 48 49 50 49 48 48 49 50 51 45 24 21 34 50 49 36 39 33 29 28 27 24 23 20 20 20 21 19 18 17 17 16 16 16 18 20 22 29 40 47
48 48 48 48 48 47 48 49 49 49 49 50 52 51 43 24 8 6 15 15 27 20 27 30 29 28 27 23 20 19 19 20 21 19 18 17 17 18 19 19 22 26 35 43 48
47 47 47 47 47 47 48 49 49 50 49 51 50 47 36 24 11 14 16 14 20 25 20 25 29 28 26 24 22 20 20 20 20 20 19 19 18 18 18 18 18 31 36 44 47
45 46 48 48 48 48 48 48 48 49 50 50 51 43 32 20 21 15 13 12 13 16 18 16 10 12 24 26 25 24 23 20 21 21 19 20 18 18 21 22 29 30 31 42 47
45 47 48 48 48 48 48 47 48 49 49 48 46 40 28 28 18 27 33 16 20 11 16 4 8 20 19 20 20 22 19 20 20 21 20 19 20 17 26 28 28 28 29 34 45
47 46 47 48 48 47 47 47 47 47 47 42 41 35 31 12 16 25 23 33 36 34 28 15 16 15 19 18 18 19 19 20 21 21 20 20 18 19 20 24 26 26 26 32 38
46 46 47 48 48 47 44 33 25 35 29 16 13 17 12 13 21 20 21 31 35 32 26 20 13 9 12 20 20 21 20 20 20 21 20 20 21 19 19 19 23 25 25 29 37
47 46 46 47 47 47 42 29 31 33 29 25 22 22 23 26 26 22 22 26 27 24 23 21 15 14 10 14 21 21 22 22 21 21 21 22 21 21 19 18 20 24 25 28 33
46 46 45 46 47 43 33 33 34 36 29 20 21 26 29 31 27 22 20 17 18 21 20 22 21 18 17 17 15 21 23 24 22 22 21 21 21 22 21 20 18 21 27 27 31
45 43 45 47 40 35 31 34 36 41 26 17 24 28 33 31 29 24 25 21 13 12 15 18 19 21 20 17 13 15 20 21 21 20 18 21 17 20 18 14 16 25 28 30 31
44 42 43 44 36 30 33 36 37 43 2 9 24 29 22 28 24 23 27 24 17 11 18 17 20 23 21 19 20 16 19 20 20 21 22 20 17 19 21 18 16 22 25 26 34
44 44 43 37 40 36 37 39 40 26 3 9 17 20 15 22 21 20 26 25 23 21 17 10 14 24 23 23 21 20 21 21 24 22 20 21 20 18 18 19 23 24 23 29 34
46 44 40 36 33 39 40 34 21 8 -3 1 11 13 13 13 17 13 19 24 22 20 19 16 11 11 19 19 23 22 21 21 20 22 22 21 21 22 21 19 24 23 25 33 37
45 45 41 36 36 38 36 23 17 3 5 14 12 10 9 13 10 11 9 18 23 23 20 14 11 10 11 16 17 22 22 24 16 19 22 23 18 19 22 22 24 26 28 31 37
43 38 39 40 40 38 30 15 5 6 5 4 7 1 -6 9 10 9 10 18 23 19 22 21 18 18 9 12 18 16 23 23 23 24 24 27 23 23 27 26 25 24 26 29 36
39 41 36 40 42 35 26 16 5 2 10 9 2 -5 -4 -7 3 4 5 18 25 23 21 25 22 20 17 14 17 18 16 20 22 21 18 16 18 20 24 24 25 25 27 27 32
42 38 37 39 39 29 23 15 8 5 11 7 3 2 2 2 2 7 2 6 3 18 16 16 26 22 23 22 15 16 18 19 19 18 18 20 20 25 22 26 26 26 29 28 32
40 34 41 39 32 27 23 16 19 9 10 12 9 8 8 7 7 7 4 2 1 5 6 17 24 24 21 21 25 26 17 18 21 18 18 22 21 25 25 25 27 30 29 31 32
35 34 41 41 27 25 22 17 15 15 11 9 10 9 10 10 8 9 8 7 2 14 21 26 19 17 18 19 23 25 25 23 21 21 18 22 21 24 24 26 25 29 29 30 33
37 32 37 39 34 27 24 20 16 18 18 17 14 14 12 11 12 12 11 13 20 22 33 29 22 18 16 17 25 24 25 27 27 26 23 20 17 19 21 22 23 26 28 28 33
36 32 30 30 30 30 25 23 16 14 19 19 17 16 15 13 13 12 15 15 16 23 23 26 23 18 15 14 14 17 17 17 19 22 25 25 22 23 25 24 25 26 26 27 29
34 32 28 25 24 23 25 23 23 15 18 18 18 16 20 15 12 11 11 16 19 17 18 22 25 21 17 16 15 15 14 13 12 15 18 21 22 23 24 25 28 28 25 25 25
38 31 33 29 25 23 23 20 19 18 21 21 21 24 22 21 27 31 34 32 31 33 29 32 27 22 21 16 15 20 17 12 9 8 11 16 21 23 27 26 26 27 27 25 28

GFSSW_sfc_dewp_102.txt.gz
Dewpoint
52 52 52 51 51 50 49 50 51 49 49 49 50 51 52 53 52 37 28 34 41 57 52 37 38 35 28 24 22 21 18 15 14 14 15 13 13 18 20 19 22 24 26 33 47
51 51 50 50 49 49 49 50 50 49 49 50 50 51 53 53 46 32 43 54 56 56 26 29 30 32 28 22 21 19 19 16 14 14 15 14 15 13 17 20 20 25 27 36 48
50 50 49 49 49 49 49 50 50 49 49 50 50 51 52 52 36 29 59 58 56 53 34 26 29 30 28 23 21 19 17 17 15 15 16 14 14 14 14 15 19 20 24 33 46
48 48 48 49 48 49 49 50 48 48 48 49 50 51 53 47 15 33 58 58 58 43 35 33 29 28 26 23 22 17 16 16 16 16 16 16 16 15 16 17 18 19 21 28 39
48 47 47 48 47 47 48 49 49 48 48 49 50 52 45 29 25 27 53 52 33 34 27 32 28 27 24 24 22 20 19 18 20 18 19 20 18 18 17 18 18 17 23 32 42
47 47 47 47 47 47 48 49 49 49 48 49 51 52 43 27 18 12 15 14 12 21 18 25 26 28 27 27 26 26 23 20 19 19 21 20 19 18 19 21 22 22 27 32 41
47 48 47 46 47 47 48 48 48 48 48 50 52 45 38 27 21 22 19 14 12 16 21 17 21 27 30 28 26 24 22 20 19 18 18 19 18 18 20 20 21 21 22 32 41
47 48 48 48 49 48 48 48 47 48 48 51 51 44 36 28 25 15 12 11 10 12 18 21 19 18 16 19 23 24 24 22 23 21 20 20 18 21 21 20 18 18 29 33 41
48 48 49 49 49 48 47 47 47 48 49 50 47 45 32 31 15 21 28 29 12 13 12 4 9 12 11 13 15 19 20 21 22 23 21 20 19 19 20 21 24 28 28 29 41
49 49 48 48 48 46 45 46 46 47 46 44 41 36 34 19 11 13 18 20 28 32 30 25 16 4 2 8 13 15 19 20 21 22 21 20 20 20 21 20 25 28 29 28 31
48 48 48 48 47 46 42 38 25 36 38 26 23 32 20 10 12 14 17 17 29 31 29 25 13 7 7 11 11 14 16 21 27 27 25 23 21 20 23 22 23 23 25 27 30
48 48 47 47 46 46 41 32 29 31 27 25 20 17 15 16 16 21 20 17 27 24 24 23 20 18 14 12 9 9 17 21 24 26 26 24 21 21 23 23 23 21 22 25 30
48 47 46 47 46 42 34 32 32 34 29 20 16 18 20 22 21 22 20 17 18 19 19 18 16 15 16 18 16 13 12 23 24 26 27 26 22 22 21 23 24 23 23 23 29
47 45 45 46 40 37 32 34 34 40 26 7 18 18 26 28 26 26 23 17 14 11 9 11 14 14 15 19 18 17 16 16 16 19 22 25 19 22 21 22 23 24 25 23 29
47 45 44 43 35 32 32 36 36 41 9 14 20 27 26 26 23 22 22 23 19 12 9 7 9 10 13 14 19 19 19 17 19 21 21 19 18 20 21 20 21 23 23 29 32
46 45 44 37 37 38 37 39 38 27 5 5 19 20 18 21 20 19 24 26 22 19 17 14 11 9 15 18 21 21 20 20 20 20 20 20 19 19 20 21 21 23 22 29 30
46 46 42 34 32 38 41 35 23 12 -2 -2 8 13 12 9 16 16 15 20 20 18 18 16 14 12 8 14 21 22 22 20 19 20 18 20 20 21 23 23 25 23 27 34 40
45 45 41 35 36 41 37 28 18 6 6 6 10 11 10 6 5 9 12 6 8 17 15 13 9 13 14 9 13 18 23 23 20 20 23 29 29 23 24 24 25 26 29 33 37
44 38 37 37 42 42 32 21 11 7 3 3 3 7 7 3 8 6 7 7 5 28 20 19 12 19 14 11 11 16 20 23 25 25 24 27 27 28 27 26 25 24 28 33 38
39 39 36 40 45 41 32 23 15 9 4 7 8 6 -1 -4 -6 7 5 2 12 25 23 20 21 20 18 12 11 13 14 18 23 21 21 21 23 29 32 30 29 28 29 32 35
41 36 35 43 45 37 26 20 17 14 11 7 9 7 1 -0 -2 -0 1 3 10 12 15 12 18 17 18 21 16 13 15 18 20 23 22 22 21 31 30 31 30 32 31 35 34
38 32 40 44 35 31 24 20 22 13 10 7 10 8 7 6 5 5 4 6 2 5 3 7 12 18 15 24 25 29 20 18 19 18 23 23 21 25 32 33 32 32 32 34 35
35 32 43 42 29 27 23 19 18 15 11 10 10 10 10 7 7 8 9 11 7 7 5 22 19 14 11 10 14 19 23 24 21 22 21 23 23 25 29 31 31 32 31 31 37
35 30 35 38 34 27 29 23 14 16 14 13 12 12 11 10 9 9 9 10 13 11 34 27 22 22 16 12 21 24 23 24 24 30 23 19 17 19 29 30 28 28 32 30 32
33 31 27 28 30 27 25 28 27 18 17 16 14 14 13 12 11 10 11 11 12 24 23 23 18 17 15 13 11 13 16 19 20 22 27 27 24 25 29 32 30 29 30 28 27
33 34 30 28 32 29 25 22 20 19 16 23 15 12 15 13 12 10 11 14 14 15 16 20 16 15 15 14 12 10 10 15 16 16 15 17 18 20 22 23 23 25 25 26 28
38 37 35 28 24 23 22 27 18 16 22 21 21 27 25 21 28 30 31 29 28 28 29 29 23 16 16 17 14 14 11 11 13 14 15 14 17 18 20 21 24 27 28 28 27

GFSSW_sfc_dewp_105.txt.gz
Dewpoint
51 51 51 50 50 50 50 50 51 50 50 50 50 51 52 53 53 43 32 39 45 57 55 39 37 37 37 32 26 23 19 18 17 16 15 16 20 23 22 19 22 24 25 32 56
50 50 50 50 49 49 50 49 50 49 49 49 50 51 52 53 49 40 45 57 58 58 33 27 29 36 34 28 24 21 18 18 19 18 17 18 20 15 20 24 23 29 29 48 56
48 48 48 48 48 48 48 49 49 48 48 50 50 51 52 52 43 32 59 55 56 55 34 32 27 29 30 29 26 22 18 19 19 19 18 18 16 16 15 14 21 21 26 50 54
48 47 46 47 47 48 48 49 48 47 47 48 48 51 53 50 17 37 57 58 57 48 37 31 29 27 27 27 27 23 22 20 18 18 16 15 18 19 18 16 20 19 20 29 49
49 48 46 45 46 47 48 49 49 47 47 47 48 51 49 38 36 32 58 57 48 43 36 33 32 30 27 27 25 24 22 22 21 19 18 20 19 22 20 20 21 20 21 25 43
50 50 48 46 46 47 48 48 48 48 47 47 48 52 48 35 27 35 38 29 26 16 20 25 26 26 27 27 26 27 26 25 25 23 20 19 20 21 22 22 22 22 26 27 35
49 49 49 48 47 47 48 48 47 48 47 47 49 49 41 34 26 25 26 16 17 15 14 22 19 21 23 26 25 26 25 25 24 23 21 20 18 19 20 21 21 21 21 27 37
50 49 49 50 49 49 48 47 47 47 48 48 51 46 39 37 35 29 21 12 13 13 15 16 18 19 22 19 16 14 18 21 24 25 24 22 19 21 21 21 20 20 21 27 37
49 50 50 49 49 48 47 46 46 47 49 50 47 45 40 40 29 26 20 25 24 16 13 10 15 13 14 12 12 14 12 16 18 23 23 23 21 23 29 21 20 21 23 28 32
49 49 49 49 49 47 46 46 45 47 45 43 43 40 41 27 16 11 14 18 21 26 27 14 12 7 7 4 4 11 14 15 17 20 26 26 27 28 30 25 20 25 27 27 28
48 48 48 49 48 46 43 38 29 33 29 34 31 36 35 25 11 11 17 18 18 27 30 29 22 14 9 3 2 5 9 10 12 20 25 25 27 27 28 28 21 22 27 28 28
48 48 48 48 47 45 42 36 30 30 30 29 28 25 22 19 14 13 18 20 18 24 28 27 23 20 11 7 4 5 8 9 11 21 21 23 27 29 30 29 28 24 23 22 27
48 48 48 47 46 42 34 34 34 37 32 26 21 20 21 20 17 14 19 20 17 21 25 23 24 24 21 19 15 14 15 13 10 15 22 25 27 29 29 27 25 24 24 24 33
47 47 47 46 40 34 33 36 36 40 32 24 19 17 17 25 23 18 21 19 17 15 18 16 18 19 18 16 16 15 19 18 16 16 15 24 21 28 27 24 24 22 23 24 30
46 47 47 46 37 34 34 39 37 39 19 15 17 19 23 25 26 26 26 24 18 16 14 14 10 10 8 8 13 15 24 21 20 19 18 18 17 23 23 21 21 22 24 24 25
45 46 46 41 38 36 35 38 38 29 17 9 24 23 23 25 26 22 23 24 25 22 20 18 16 14 11 12 13 23 25 23 21 20 17 18 18 18 19 20 21 23 23 25 25
45 46 43 39 34 35 37 37 26 22 6 -1 11 21 19 21 23 20 22 23 23 20 20 19 16 15 15 13 14 21 21 21 20 18 17 19 19 19 25 23 22 22 24 30 32
45 45 42 38 38 38 39 30 20 14 8 6 6 9 14 14 12 14 16 16 17 20 19 17 15 15 16 13 9 20 19 23 18 19 18 25 27 27 28 29 30 24 26 34 47
44 38 38 38 39 40 36 23 15 11 11 9 8 7 10 12 11 9 13 12 9 24 23 22 18 23 23 21 11 11 17 19 23 23 23 25 25 27 38 37 36 26 25 34 43
38 37 36 38 42 39 32 23 18 16 15 17 13 9 9 8 6 5 3 11 15 29 21 21 20 20 19 23 21 13 16 16 24 22 21 20 20 25 33 36 37 32 32 32 41
36 32 35 39 41 36 26 22 20 20 20 16 15 9 10 9 7 6 7 6 11 26 17 10 17 16 18 19 28 30 16 15 18 27 22 21 22 34 39 41 41 37 32 32 36
37 28 37 42 33 34 27 24 25 20 21 19 17 14 12 12 9 9 10 12 12 12 8 14 13 12 11 14 29 33 32 29 13 16 24 22 21 27 35 36 41 37 36 39 38
33 31 37 40 26 28 26 23 23 21 20 19 16 14 15 12 11 12 13 16 14 14 15 15 22 21 16 11 14 25 28 32 31 22 18 20 23 27 29 40 41 37 36 35 32
34 25 30 34 34 30 29 27 27 26 20 18 16 15 15 15 14 14 13 16 20 19 36 29 21 19 18 20 20 17 16 21 30 31 31 27 25 25 29 37 38 38 36 32 30
33 27 28 19 29 29 29 26 25 27 29 22 15 15 15 14 16 15 16 16 16 22 25 24 19 19 18 16 15 14 13 12 13 18 30 29 29 31 32 36 37 38 34 25 25
30 30 31 29 28 28 29 26 23 21 32 29 28 25 25 17 15 21 27 27 27 29 29 27 20 20 17 14 12 13 14 13 12 12 15 17 19 23 18 23 22 30 26 27 27
36 35 34 27 30 27 29 24 24 30 27 20 27 27 25 25 30 31 31 31 30 28 27 28 25 22 18 17 15 14 16 14 11 10 13 13 16 19 13 12 37 43 44 44 45

GFSSW_sfc_dewp_108.txt.gz
Dewpoint
49 49 49 49 49 49 49 49 49 49 49 49 49 50 51 53 53 46 36 37 46 56 56 40 40 38 38 35 31 24 20 20 20 18 18 20 20 21 22 19 22 25 27 31 54
48 48 48 47 48 49 48 48 49 48 48 48 49 50 51 53 49 43 45 54 57 59 38 32 31 35 35 32 30 23 20 20 20 20 19 21 23 19 17 22 23 27 33 56 56
48 48 47 46 46 47 48 49 49 47 47 49 49 50 51 52 42 31 55 58 59 58 33 30 31 32 33 32 28 24 20 20 20 20 20 19 19 18 17 16 20 19 24 55 55
48 48 47 47 46 47 49 49 49 47 47 47 48 49 52 50 -2 31 58 57 56 46 38 33 30 25 26 29 30 27 27 23 21 21 20 18 18 17 18 18 20 20 22 54 54
50 48 48 47 47 47 49 49 49 49 47 47 47 48 49 40 38 37 57 57 51 43 41 37 33 32 29 28 27 27 27 26 24 23 22 21 19 19 20 21 23 22 24 48 54
50 50 50 48 48 48 49 49 49 48 48 46 47 49 47 32 28 34 33 33 39 34 24 26 27 27 26 26 27 27 27 27 26 25 24 23 22 20 22 24 24 25 27 27 47
50 51 50 49 49 49 49 49 48 47 47 47 48 47 44 32 27 24 29 26 17 17 15 18 22 18 22 19 24 19 18 19 23 25 24 23 21 20 21 22 23 23 22 25 27
48 49 49 50 50 50 49 47 47 47 48 48 49 47 39 37 37 37 35 24 17 13 16 16 16 16 19 18 17 15 18 18 25 25 25 25 21 25 26 29 29 30 27 23 25
47 49 49 48 49 49 47 47 47 48 48 49 48 45 40 45 37 36 34 20 22 24 15 10 15 9 13 13 11 14 16 19 19 18 18 21 18 24 29 29 28 29 29 24 23
47 48 49 49 49 47 46 46 47 48 45 45 44 42 40 26 25 13 13 17 21 22 26 14 11 7 8 8 11 11 13 13 13 16 21 23 24 26 28 28 29 30 30 26 27
46 47 49 48 48 47 43 39 30 30 31 29 33 37 35 34 22 11 16 17 22 22 22 29 15 11 3 8 11 10 7 4 5 7 16 19 23 22 26 27 27 29 30 27 27
44 46 48 48 47 46 38 34 33 33 31 30 29 28 25 25 24 19 15 17 20 14 24 27 25 22 16 11 7 4 3 2 3 8 13 16 16 15 26 27 28 30 29 27 28
44 45 47 48 46 39 33 34 36 38 32 27 22 20 21 22 15 11 15 21 18 17 24 25 26 27 22 19 10 6 4 4 7 13 14 18 18 20 25 30 31 31 28 26 27
44 45 47 47 37 35 34 34 35 40 28 22 21 23 18 21 18 11 11 18 19 15 20 23 24 24 24 22 21 18 18 17 18 17 15 18 13 16 18 22 27 27 26 25 35
44 44 47 47 39 35 34 34 36 38 2 13 19 19 19 25 25 26 17 23 18 15 17 18 13 18 19 19 20 18 20 20 21 19 17 17 16 14 21 18 20 23 23 23 24
44 44 46 41 38 37 36 38 37 23 9 12 22 20 26 25 24 26 24 26 23 20 20 18 20 17 14 13 13 17 20 24 23 20 17 18 17 16 17 19 21 21 23 24 25
44 44 42 41 35 37 38 36 20 20 15 7 9 10 10 24 25 26 24 22 21 21 21 20 18 18 17 15 16 17 20 19 18 18 15 18 19 18 21 21 25 29 30 34 34
44 45 42 38 39 38 37 28 18 12 14 12 16 10 8 11 22 23 20 20 23 22 20 19 18 18 19 16 14 15 15 16 16 17 16 20 19 26 28 31 39 40 39 37 34
43 38 37 38 39 38 34 21 15 14 7 15 16 9 11 11 10 10 11 11 18 21 20 21 19 22 23 25 20 16 18 18 20 23 21 21 22 23 24 40 41 41 41 38 47
36 35 35 37 39 37 30 20 20 18 17 18 15 16 14 12 9 9 6 12 17 24 24 16 17 17 16 20 27 21 19 14 21 17 14 21 22 23 31 38 40 42 42 40 43
34 31 32 37 40 36 24 22 21 22 21 17 18 17 17 14 11 10 11 13 10 11 11 9 15 16 17 20 19 28 28 29 19 25 17 20 21 37 38 39 41 44 43 41 41
33 25 33 43 31 32 26 24 28 25 25 23 21 19 18 13 11 12 12 13 17 16 11 17 13 9 11 12 18 29 28 30 27 21 26 23 20 24 40 41 43 44 41 40 37
33 31 34 35 14 27 29 27 26 24 23 22 20 22 21 13 11 15 17 18 17 18 18 15 15 18 8 13 24 25 24 20 32 33 27 22 19 28 32 41 42 44 45 41 40
31 20 26 33 31 26 25 24 24 25 27 26 25 24 20 15 17 15 17 21 21 17 35 28 20 16 12 19 18 13 13 15 30 26 27 25 29 26 26 35 41 41 44 41 42
32 24 27 17 23 28 29 27 25 24 22 28 25 24 21 13 15 14 17 26 26 32 27 23 18 19 18 18 15 14 13 12 11 18 25 23 20 18 25 33 39 42 42 38 38
26 25 29 27 27 25 26 25 24 24 27 28 27 27 28 23 17 17 26 27 27 28 27 29 21 20 18 19 17 17 16 15 13 12 11 15 17 18 31 29 35 36 42 44 46
36 33 31 24 24 23 23 26 28 24 26 28 32 32 29 26 30 31 30 31 30 28 26 26 24 22 16 20 20 18 17 15 14 13 13 12 18 38 37 36 42 45 45 45 45

GFSSW_sfc_dewp_111.txt.gz
Dewpoint
48 48 48 48 47 48 48 48 48 48 48 49 48 49 49 52 52 46 34 31 43 55 52 44 41 40 38 35 31 27 24 23 23 19 19 20 21 24 20 20 21 25 39 42 55
47 48 48 48 47 47 48 48 49 48 48 48 48 48 50 51 49 40 42 51 55 57 38 34 34 35 34 34 31 27 24 22 23 21 20 22 24 21 19 21 20 24 35 55 57
48 48 48 48 48 48 48 49 49 48 48 47 48 49 50 52 35 11 53 55 56 58 35 31 29 33 33 32 28 24 24 22 21 21 21 20 20 21 19 18 20 18 21 54 56
49 49 49 49 48 48 50 50 49 48 47 47 47 47 51 49 -12 17 57 56 59 51 35 35 31 26 26 29 31 28 25 24 23 23 23 21 21 19 18 18 20 20 22 53 55
49 49 49 48 48 48 49 50 49 48 47 47 47 48 48 37 31 33 53 56 50 42 39 35 29 27 25 26 28 27 27 28 28 27 26 24 22 21 20 21 23 23 26 49 54
49 49 48 48 47 47 49 49 49 49 47 47 47 48 45 28 19 29 26 29 38 39 30 33 30 30 29 27 27 28 28 27 27 26 26 25 25 23 23 24 24 25 28 34 52
48 48 48 48 47 49 49 48 48 48 48 48 48 45 43 33 28 26 29 30 23 27 16 16 21 19 22 18 22 20 18 19 21 23 24 25 23 21 22 23 29 30 31 32 31
47 48 50 49 49 49 48 48 47 48 49 49 48 45 39 39 38 37 36 34 31 24 16 18 18 15 17 18 15 16 18 17 24 24 24 23 21 26 24 28 28 29 29 31 32
46 47 49 49 49 48 48 47 48 48 49 48 47 44 37 44 41 40 39 30 24 22 19 11 14 11 12 13 13 14 12 15 17 21 21 19 14 21 24 27 28 28 30 31 31
44 45 47 48 49 48 47 47 46 47 45 45 44 40 36 26 34 28 28 23 17 24 22 18 10 7 8 10 13 13 12 14 15 14 17 18 16 14 24 27 26 28 29 29 31
44 44 46 48 49 47 44 36 34 31 33 27 33 38 36 35 29 21 16 15 19 21 15 26 11 7 5 11 15 14 12 10 9 9 6 5 8 10 14 23 25 25 24 27 28
44 44 45 48 48 47 35 34 33 35 33 33 31 30 29 24 19 15 23 10 19 12 19 20 23 18 9 7 7 7 7 6 5 4 8 7 8 11 17 17 24 26 27 28 28
44 44 45 47 47 36 34 33 34 35 33 29 28 24 21 25 20 13 15 17 19 15 17 11 18 26 25 20 13 11 8 8 5 7 11 12 14 16 19 23 28 30 29 29 30
44 44 46 47 37 38 33 35 36 38 24 15 21 25 19 21 20 12 9 10 20 10 17 17 18 20 26 25 22 20 15 11 9 15 14 17 13 16 17 18 21 23 23 27 28
44 44 45 45 39 36 33 36 37 38 -9 8 21 22 20 21 26 23 9 15 14 17 20 18 16 23 20 21 23 22 23 22 21 18 17 17 17 15 17 17 18 19 21 24 26
44 44 44 40 38 37 37 37 35 7 -4 10 14 13 10 11 23 25 19 20 20 18 19 16 19 18 17 16 19 20 19 21 23 20 17 15 17 13 15 17 20 21 23 37 37
44 43 41 41 34 38 38 35 5 10 9 6 13 12 9 10 13 24 24 18 22 20 20 21 20 20 19 17 19 16 17 13 13 17 14 16 18 15 20 21 26 38 40 41 41
44 44 42 39 38 38 36 25 11 4 14 15 15 10 8 14 12 10 24 21 22 22 20 19 16 19 19 18 17 15 17 15 6 11 11 19 18 19 26 32 41 41 43 43 43
42 37 35 37 38 37 30 19 11 14 14 15 15 15 13 15 16 10 10 10 15 22 20 20 19 21 18 22 22 21 15 17 14 16 20 17 20 20 28 37 39 41 44 43 43
35 33 33 37 39 36 28 19 19 21 20 19 13 16 15 14 15 11 11 13 12 13 19 22 17 16 15 22 24 26 25 15 20 16 10 14 20 21 26 35 38 39 44 44 42
32 27 29 38 38 33 19 22 23 22 22 20 21 19 17 16 15 13 9 14 15 14 16 11 15 17 17 17 15 23 27 28 27 22 17 13 14 32 36 39 39 41 43 43 43
31 16 32 42 27 29 23 25 26 24 26 25 24 22 21 19 17 14 10 17 19 17 14 15 13 9 9 14 18 26 30 31 26 25 26 26 21 29 29 42 42 43 41 44 46
24 28 35 33 11 14 26 27 26 22 26 25 24 23 24 21 21 16 17 22 20 19 16 19 15 8 5 18 21 23 21 19 30 31 24 25 22 26 27 28 42 43 44 46 47
28 14 24 32 27 26 22 23 22 27 26 24 25 25 24 23 24 20 18 23 28 25 35 29 17 10 6 15 17 12 13 12 27 22 20 21 20 24 22 22 38 41 43 45 46
30 21 26 16 22 27 26 24 21 23 26 26 25 26 27 25 23 13 20 26 27 31 29 25 15 17 17 18 17 15 16 16 14 17 18 12 17 18 19 25 30 40 41 42 46
27 26 29 27 27 24 23 22 21 22 27 27 27 28 28 28 22 19 25 26 24 27 27 28 21 21 18 19 18 18 19 19 17 16 14 13 11 12 22 30 33 38 40 42 45
36 34 30 23 23 22 20 24 26 33 29 29 33 31 30 29 28 28 30 29 28 27 26 25 24 21 11 20 19 13 14 17 16 15 15 12 12 27 37 37 39 42 43 45 46

GFSSW_sfc_dewp_117.txt.gz
Dewpoint
49 49 49 49 49 49 49 49 49 49 49 49 49 49 49 50 51 45 25 26 43 52 54 44 38 39 37 34 32 29 21 17 12 16 13 20 21 23 22 20 22 23 27 29 46
49 49 49 49 49 49 49 49 49 48 48 48 48 49 49 51 46 41 42 51 53 56 42 37 36 37 34 34 31 28 23 19 21 18 18 21 23 22 21 23 23 27 29 33 51
49 49 49 49 49 49 49 49 48 48 48 48 49 49 50 50 33 1 57 54 54 53 39 35 36 34 30 34 32 29 22 26 24 24 24 22 22 22 22 22 26 27 28 33 41
49 49 48 48 48 48 48 50 48 48 48 49 49 50 50 46 -12 24 53 57 56 52 38 31 32 31 28 29 32 26 27 26 24 24 25 23 24 24 25 27 28 28 27 26 31
48 48 47 47 47 47 48 49 48 48 49 49 49 49 45 19 7 13 42 40 51 45 32 31 27 27 24 25 27 29 27 27 26 25 26 27 27 27 26 27 27 25 27 31 32
47 46 46 46 46 46 47 48 49 49 49 49 50 47 43 13 5 28 34 30 33 39 36 34 30 28 26 26 27 29 28 27 27 27 28 27 27 27 27 28 27 29 31 32 34
45 45 46 45 45 46 47 48 49 49 49 51 49 45 41 19 27 34 37 29 27 32 31 31 33 22 24 20 23 23 20 20 22 24 25 27 24 25 26 27 26 28 31 30 31
45 45 45 46 45 46 47 48 49 49 49 48 49 44 32 36 38 39 38 36 34 30 28 25 20 20 17 17 15 14 16 15 20 20 22 24 21 25 24 22 15 15 21 27 30
45 45 45 47 47 47 48 48 47 47 49 49 45 42 29 37 34 36 38 35 36 33 32 22 20 17 14 11 10 15 14 15 16 22 23 24 22 22 21 13 11 14 18 22 27
45 45 45 46 46 47 47 45 44 42 43 47 45 34 28 24 32 33 29 38 24 23 23 19 15 12 12 10 4 9 13 15 14 15 18 18 20 18 14 9 11 15 18 23 26
45 45 45 45 46 47 41 35 32 30 33 28 19 24 22 24 25 22 24 21 19 18 17 18 14 12 11 13 7 14 15 14 14 14 13 13 12 11 9 9 13 16 19 22 25
45 45 44 44 46 43 36 32 32 33 31 31 32 31 31 31 27 26 24 13 18 14 15 19 20 20 11 10 9 10 11 13 13 11 13 9 10 13 13 15 16 18 21 24 27
44 44 44 44 43 39 35 34 36 36 31 28 30 28 26 30 27 25 20 15 13 15 13 11 13 18 16 11 8 9 10 11 7 8 12 12 14 16 17 16 20 24 25 25 26
44 44 44 45 35 38 31 36 37 38 19 5 20 22 12 23 20 22 20 15 12 8 13 13 14 12 18 18 14 13 11 8 7 15 14 18 9 13 16 18 20 21 25 33 42
43 43 43 42 38 33 34 38 38 37 -24 1 15 18 11 11 10 11 13 12 12 9 14 15 18 12 10 11 17 14 23 15 18 18 17 17 15 14 15 11 17 22 35 42 44
43 43 43 39 37 37 38 37 31 -15 -24 2 15 11 10 15 14 14 13 12 14 15 15 15 18 21 13 14 20 26 23 21 22 20 13 15 11 7 9 16 19 35 40 44 45
42 43 41 40 30 37 38 27 -8 -20 1 12 13 11 13 14 13 11 11 12 8 12 18 16 9 16 21 18 21 20 18 11 12 14 5 14 14 12 17 26 37 38 40 43 42
43 40 37 38 38 37 32 8 -5 4 12 18 15 11 15 16 12 8 7 10 11 10 10 18 17 17 20 18 16 20 18 10 -2 2 2 16 10 16 33 37 38 38 40 40 40
40 35 33 34 38 36 25 0 -1 16 18 18 15 12 15 16 16 12 10 10 11 14 10 14 19 19 19 22 19 19 16 18 11 15 14 14 15 25 32 32 31 32 38 40 41
35 31 33 37 39 35 24 12 17 21 23 22 15 19 15 15 15 13 12 14 14 15 18 13 11 17 18 22 23 23 24 18 19 13 9 11 13 19 23 24 23 25 33 40 42
33 28 33 37 38 29 18 18 21 22 24 22 21 18 18 17 17 15 12 14 16 15 16 16 15 13 16 20 17 21 24 27 24 24 10 9 12 27 25 25 19 19 25 38 43
30 21 31 37 26 26 21 24 26 24 24 21 25 24 22 21 18 18 16 18 21 19 12 18 18 13 11 22 25 29 30 29 21 22 25 22 18 28 25 21 19 19 20 34 43
27 27 33 33 19 19 21 23 24 23 21 23 23 24 24 20 17 20 22 24 23 22 17 22 19 12 17 21 19 16 11 27 28 26 23 20 12 27 18 13 14 17 19 24 44
26 19 25 31 25 24 23 21 20 23 20 20 22 24 23 21 22 22 22 23 26 22 30 28 18 15 12 13 15 11 12 13 23 18 15 15 13 9 9 10 11 14 17 22 43
28 22 27 20 22 24 23 21 19 19 22 27 25 25 25 24 22 21 23 25 24 24 28 25 14 14 13 14 16 14 12 13 11 10 9 6 5 6 7 8 11 15 18 19 38
25 24 28 25 26 23 22 19 18 21 25 25 26 26 27 26 27 26 29 24 22 23 26 25 14 18 16 15 13 14 16 17 16 15 14 13 12 15 14 15 16 18 22 35 42
32 32 27 22 23 22 20 20 21 27 25 28 31 30 29 30 30 31 32 32 30 27 24 23 19 14 7 11 13 11 12 13 13 15 15 9 11 11 15 15 18 25 35 43 44

GFSSW_sfc_dewp_120.txt.gz
Dewpoint
49 49 49 49 49 49 50 49 49 49 49 49 49 50 50 51 51 31 20 27 34 54 51 39 37 33 32 29 28 25 19 17 15 12 12 15 18 20 21 20 20 21 24 27 33
49 49 49 49 49 49 49 49 49 49 48 49 49 50 51 51 40 26 40 52 52 55 33 30 29 31 28 28 28 23 20 19 18 16 13 16 20 20 19 19 20 24 27 31 30
48 48 48 48 48 48 48 48 49 48 49 49 50 50 51 49 29 -3 52 54 55 52 32 30 27 28 23 26 26 24 21 21 20 19 16 16 16 17 17 15 19 20 24 28 32
48 48 47 47 47 47 47 47 48 48 49 50 50 50 50 41 -4 27 49 55 55 43 37 30 27 26 21 22 24 25 24 23 21 22 20 20 20 20 20 21 22 24 28 29 30
46 46 46 46 46 46 46 47 48 48 49 49 50 50 44 20 1 10 44 44 44 41 32 29 28 26 22 21 23 26 24 23 25 24 24 24 23 23 23 25 26 25 29 31 32
46 46 46 46 46 46 46 47 48 48 49 49 51 48 38 13 -0 19 26 23 29 31 25 28 24 25 22 21 22 21 24 24 23 24 24 23 23 24 25 28 29 30 31 31 32
46 45 46 46 46 45 46 46 48 48 49 50 50 44 37 18 15 19 22 14 9 21 27 21 24 25 21 21 22 21 20 19 21 23 24 26 24 25 26 27 27 28 29 30 28
46 45 46 46 46 46 47 48 48 48 49 48 50 43 29 29 27 32 34 29 34 28 17 23 25 24 21 19 17 16 18 15 16 18 21 23 17 22 25 26 26 22 18 19 22
45 46 46 46 47 47 48 48 46 46 49 49 45 42 25 35 28 24 31 26 23 33 24 20 26 19 15 13 8 8 9 11 14 19 19 22 19 21 24 21 18 17 14 14 20
45 45 45 45 46 47 46 44 41 46 41 42 41 33 27 11 15 19 18 20 22 22 27 21 19 17 15 9 4 5 6 9 10 13 18 18 18 18 19 19 17 14 12 18 20
45 45 44 44 45 46 39 32 23 23 24 21 21 20 20 24 26 19 18 17 19 17 18 18 11 10 7 12 9 6 4 5 6 12 14 14 13 13 14 13 11 11 16 18 22
44 44 44 44 44 43 34 30 31 33 26 26 27 28 27 29 23 14 22 14 10 8 11 18 13 4 2 6 10 9 5 3 3 11 16 12 9 7 8 11 12 14 17 21 22
43 43 44 44 42 39 33 32 34 36 28 18 23 23 11 26 20 7 19 16 15 11 7 12 9 15 16 17 13 12 10 7 4 5 8 7 5 6 9 12 15 20 20 22 29
43 43 43 43 32 33 30 33 35 40 15 -1 20 13 5 5 14 9 14 17 18 13 10 11 12 11 13 17 17 14 12 9 7 9 4 7 4 9 12 13 17 17 22 32 38
43 43 43 42 33 24 31 35 38 39 -18 5 12 11 1 5 6 1 14 15 17 16 16 13 13 13 13 12 13 14 14 17 17 12 10 8 10 5 11 13 14 21 34 39 42
42 42 42 36 36 32 37 39 39 5 -21 5 11 7 -1 8 3 5 7 14 14 14 17 20 19 13 13 10 11 13 15 21 20 15 13 12 11 3 8 11 15 31 37 39 38
42 42 36 36 32 39 39 33 -1 -19 -5 8 10 7 -0 9 3 4 -1 7 9 10 14 16 18 17 18 14 21 15 18 14 14 13 10 3 5 7 10 22 30 35 36 37 38
42 38 38 36 39 42 36 9 -9 0 9 13 12 3 5 11 6 8 2 -11 9 12 9 10 16 20 16 18 17 19 19 12 8 8 7 9 5 14 31 33 33 33 35 37 38
38 37 37 40 42 39 21 -3 2 11 16 15 7 2 4 8 12 11 7 3 9 14 13 11 10 21 22 25 18 20 22 20 15 13 9 8 22 30 30 25 25 26 29 35 38
32 35 33 40 43 34 18 11 13 17 18 17 10 12 8 9 11 11 7 3 7 14 16 15 13 14 21 29 29 22 21 15 16 11 4 1 11 13 24 17 10 7 11 22 30
34 29 32 39 41 25 19 14 16 19 17 15 13 12 12 13 14 13 11 10 12 17 16 11 17 13 16 24 28 31 26 25 22 15 9 7 7 22 24 21 15 12 12 14 24
33 32 33 38 29 28 17 18 22 15 19 17 20 20 18 16 15 13 13 14 17 20 16 13 16 14 13 18 24 27 33 34 28 19 18 15 13 24 28 24 14 15 13 16 17
33 24 34 36 26 24 20 19 20 19 18 17 16 17 18 15 14 14 16 19 19 19 20 22 14 8 7 18 26 23 19 22 26 29 22 19 14 28 28 21 13 14 13 16 17
34 29 26 30 26 23 19 15 13 17 17 16 17 22 21 19 18 19 19 21 23 22 29 27 16 13 8 17 19 16 19 17 16 19 18 16 13 15 12 8 8 11 13 17 19
36 27 25 26 25 21 19 16 9 19 20 21 21 22 22 23 19 18 20 23 25 26 23 21 13 9 7 8 10 14 16 13 12 11 12 12 7 6 7 8 9 12 13 16 21
33 30 29 21 22 19 20 17 17 18 21 23 24 29 28 25 29 28 27 26 24 21 21 20 15 13 10 9 10 11 10 10 10 11 9 8 9 10 8 7 11 13 13 20 27
35 32 29 24 20 20 20 19 20 27 23 26 32 30 23 23 26 28 29 29 29 29 26 25 19 14 9 6 6 7 8 7 8 7 10 9 9 8 8 10 15 17 18 30 37

GFSSW_sfc_dewp_123.txt.gz
Dewpoint
49 49 49 49 49 49 49 49 50 50 49 50 50 51 51 52 51 32 18 25 34 52 49 20 30 26 27 25 25 26 23 19 17 16 14 13 13 15 14 11 19 21 21 28 29
48 48 49 48 48 48 48 48 48 49 49 50 51 51 51 52 42 25 43 53 54 51 26 17 24 24 24 26 26 24 24 21 20 18 17 15 17 16 17 19 17 22 24 26 27
48 48 47 47 47 47 47 47 48 48 49 49 50 51 52 50 30 17 52 53 55 50 34 25 24 22 23 23 24 26 24 23 20 20 19 16 15 17 17 16 17 16 19 24 28
47 46 47 47 46 47 46 47 47 48 48 49 50 51 51 41 12 30 49 53 52 40 36 29 24 22 22 20 20 22 24 23 22 21 21 20 20 19 18 19 20 20 20 23 27
46 46 46 46 47 46 46 46 47 48 49 49 50 51 47 25 14 21 44 41 33 32 31 29 26 23 21 20 19 21 22 22 23 23 23 22 22 22 22 23 23 23 25 27 29
46 46 46 47 46 46 46 47 47 48 49 49 50 50 42 22 7 11 13 10 11 24 21 27 25 25 23 21 20 21 20 21 22 22 22 23 22 22 23 25 26 26 29 29 31
46 46 46 46 46 46 47 47 48 48 48 50 50 46 33 23 23 19 16 16 9 3 14 18 20 23 23 23 23 20 20 20 20 22 22 23 22 22 22 23 24 26 29 30 30
46 46 46 46 46 46 47 48 48 48 48 49 50 41 29 25 22 27 28 27 25 28 22 7 15 20 20 24 21 18 19 17 19 17 17 19 18 20 21 22 24 26 27 29 29
46 46 46 47 47 47 48 47 48 46 49 50 46 40 24 31 19 15 15 11 13 21 30 19 14 19 19 16 15 16 13 14 14 15 15 17 17 18 18 23 23 24 25 22 22
46 45 45 45 47 47 46 46 43 48 46 39 34 30 23 17 22 23 19 16 16 17 25 19 14 15 14 8 7 9 8 9 10 10 13 16 16 18 19 21 23 20 19 17 16
45 44 44 44 45 46 42 28 24 30 22 17 16 18 14 20 22 13 19 19 16 19 15 21 10 8 8 12 9 8 7 6 8 6 8 11 13 15 16 17 20 18 18 15 14
43 44 44 44 44 46 38 26 28 33 23 21 22 23 14 22 19 9 17 18 17 11 13 12 15 13 8 7 8 8 9 8 7 3 5 10 11 11 11 13 15 15 12 12 16
43 43 44 44 44 41 30 30 31 34 27 14 21 12 5 6 12 4 8 14 17 17 14 11 9 11 12 12 5 4 8 10 7 5 6 8 8 9 5 4 7 11 11 13 19
42 43 43 43 38 31 29 29 34 40 24 7 19 12 -1 4 10 -2 -1 10 14 17 17 15 12 10 10 11 12 13 12 9 9 10 8 10 2 5 5 5 8 11 16 21 26
42 42 42 42 33 24 29 34 38 40 4 5 9 10 -1 1 4 -2 -1 4 8 8 15 14 16 14 14 13 12 13 15 14 13 14 12 6 3 5 9 10 11 15 20 28 35
41 42 41 37 36 33 35 38 40 24 -5 6 6 5 0 -5 2 -2 -1 -4 -3 4 8 9 13 17 19 14 14 17 18 14 16 17 12 13 8 5 9 13 12 17 28 34 35
42 41 37 34 32 38 40 35 16 -5 -4 5 7 5 -2 4 3 -0 2 -3 -8 6 8 1 5 13 15 18 17 14 16 17 13 16 18 12 8 9 11 10 13 23 33 34 36
41 39 38 34 39 41 35 21 3 0 6 9 6 4 -1 6 6 7 5 -2 -4 -3 5 5 1 13 25 19 18 16 17 16 14 15 14 13 11 10 11 27 30 32 33 35 35
40 38 38 39 41 39 28 6 8 10 11 9 7 2 -1 4 6 8 7 3 -2 6 8 8 5 8 21 26 26 20 23 20 19 18 16 14 15 25 27 29 30 29 30 34 35
33 32 31 40 41 37 22 10 11 12 13 11 7 7 6 6 8 9 7 2 2 5 10 12 10 8 8 26 24 32 26 24 26 22 16 11 12 18 25 24 24 21 19 20 23
32 27 32 38 41 27 23 13 12 14 13 10 7 8 8 9 10 10 8 8 7 10 14 12 9 4 7 15 23 28 29 22 24 25 15 12 9 18 26 21 16 14 14 14 14
32 36 33 38 30 23 16 13 19 11 17 15 16 16 15 14 12 10 9 10 11 14 13 13 19 9 5 12 24 26 28 34 31 20 20 17 16 28 26 20 21 18 15 14 15
34 23 33 37 32 25 19 16 16 15 13 13 13 13 15 14 13 12 11 12 14 16 16 23 16 14 7 3 25 26 26 26 29 32 27 23 24 29 29 24 18 12 11 12 15
36 33 27 28 23 23 19 15 12 15 13 13 14 17 19 20 18 19 16 16 23 22 31 26 19 15 10 8 25 17 26 22 20 22 22 28 30 34 35 22 8 8 10 12 13
39 30 26 30 26 20 19 15 16 15 17 19 17 21 23 21 19 19 23 24 20 25 23 23 17 17 12 6 3 4 7 15 18 20 18 15 17 27 18 10 10 9 10 11 12
36 30 25 21 22 20 19 17 14 15 14 22 23 24 24 23 27 26 22 23 24 26 23 20 24 18 12 9 6 2 3 9 12 13 13 13 12 11 11 8 6 8 10 14 15
30 31 30 22 21 20 20 18 17 23 22 22 29 29 22 21 23 24 26 26 25 25 25 25 22 17 13 10 11 6 4 2 5 8 12 8 11 10 6 6 10 17 19 21 19

GFSSW_sfc_dewp_126.txt.gz
Dewpoint
49 49 49 49 48 48 48 49 49 49 50 50 50 51 52 53 52 36 26 34 34 54 46 16 10 28 28 29 29 27 23 21 20 19 19 17 15 13 13 11 9 23 24 28 32
48 49 48 47 48 47 48 48 48 48 49 49 50 51 52 53 44 32 47 56 56 49 26 20 12 18 24 22 24 24 24 22 22 21 19 18 18 14 14 16 14 21 23 29 28
48 48 47 47 47 48 47 47 48 48 48 49 50 51 52 51 37 28 54 55 53 49 34 31 24 17 21 21 22 23 22 23 22 22 21 19 19 17 15 15 19 18 22 25 27
47 46 47 46 47 47 47 47 47 48 48 49 50 51 53 46 18 30 53 54 54 37 29 29 27 22 22 19 21 20 23 23 23 24 23 21 21 19 18 18 20 20 21 23 26
46 46 46 47 47 46 47 47 48 49 49 49 50 51 47 32 26 25 47 46 29 27 22 23 25 24 20 19 19 20 20 19 21 23 23 22 21 22 21 22 22 21 24 28 30
46 47 46 47 46 46 47 48 48 48 48 49 50 51 41 26 20 14 14 12 7 5 12 20 22 24 23 22 21 21 20 19 19 20 21 22 22 23 24 25 25 26 29 30 31
46 46 47 47 46 46 46 48 49 49 49 49 50 46 35 24 21 23 18 19 22 19 7 6 15 17 23 23 23 22 22 22 21 20 19 21 21 21 22 22 23 24 26 28 29
46 46 46 46 46 46 46 48 48 48 49 50 49 43 34 26 19 20 20 15 15 24 24 25 18 10 15 18 17 19 20 18 19 19 20 20 19 21 23 23 23 23 25 28 31
45 46 46 45 46 47 48 48 48 48 49 50 48 44 27 31 23 18 18 16 16 13 13 21 26 17 7 13 16 15 16 18 18 18 17 18 18 18 18 19 21 22 24 26 29
45 45 44 45 46 47 47 48 46 45 46 41 36 29 26 15 18 20 17 18 16 14 15 18 22 10 7 9 10 12 12 13 15 15 14 12 15 16 17 17 20 22 25 27 28
44 44 44 44 45 46 44 34 29 34 25 17 16 16 14 17 22 11 14 18 17 14 14 15 18 14 7 11 11 11 10 9 10 10 10 17 17 18 16 18 20 23 26 23 24
43 43 44 44 44 46 40 25 28 32 25 17 18 22 10 13 12 5 4 9 16 16 16 11 12 14 16 13 9 9 10 10 12 11 12 11 16 16 14 15 16 14 22 22 23
43 43 43 44 44 42 29 27 29 32 29 20 19 16 5 3 4 8 -0 -1 5 10 12 13 13 12 10 10 12 13 10 10 7 8 10 13 14 14 11 10 14 13 12 20 19
42 42 43 43 38 29 31 28 32 38 30 12 18 14 1 -3 3 2 -2 -2 -4 5 5 8 14 12 11 10 9 9 10 12 10 9 7 11 8 12 11 10 12 12 11 17 24
41 42 43 42 40 26 29 33 34 40 16 5 10 7 0 -6 -6 -2 -3 -1 -2 -6 -5 0 1 5 8 12 13 13 14 12 15 15 14 13 13 14 12 11 11 12 13 20 28
41 42 42 38 40 34 34 37 39 31 9 6 4 4 1 -3 -1 3 -0 5 0 -5 -7 -4 2 4 4 7 12 16 14 15 17 18 14 15 13 12 11 9 15 16 22 28 37
41 42 38 35 35 38 40 37 26 13 -3 4 5 2 2 -2 4 5 6 5 -0 -2 -4 -6 1 3 3 7 18 16 15 13 19 18 17 16 15 16 16 16 20 17 25 36 37
41 40 41 33 38 41 37 29 16 1 4 7 4 3 1 3 3 5 6 4 5 -1 -6 -8 -1 3 21 23 24 22 24 18 9 12 15 17 17 16 18 17 27 23 34 35 37
41 39 39 40 40 39 34 21 12 8 8 6 5 -0 -0 1 5 7 8 6 1 1 3 4 3 5 5 12 19 27 24 26 24 20 16 20 19 21 22 20 30 32 34 35 37
37 35 30 38 40 40 32 11 10 9 9 7 5 4 5 5 6 8 8 7 5 6 8 7 7 6 5 5 13 23 26 26 27 20 14 14 16 22 25 24 30 31 32 34 34
37 31 34 37 42 37 28 13 9 12 11 8 6 7 8 10 11 10 8 7 6 11 14 9 12 12 12 3 4 23 24 23 27 31 17 16 14 26 32 36 30 28 24 22 22
35 37 34 39 33 22 18 12 17 9 15 14 16 15 12 10 9 8 8 8 11 13 11 10 18 14 10 8 16 16 32 34 24 25 24 22 19 28 31 37 36 18 17 21 23
35 23 34 38 33 25 16 15 14 13 11 11 10 10 12 13 16 15 16 22 22 26 14 20 24 19 15 13 17 24 23 24 30 31 25 25 23 34 34 34 27 21 18 17 21
35 35 27 28 22 23 19 15 12 15 12 10 12 14 19 18 16 16 19 22 25 30 33 31 18 13 11 11 23 15 15 14 25 23 21 20 26 36 38 37 35 29 15 16 18
41 33 28 31 25 20 19 16 16 14 15 15 15 19 19 20 18 16 19 18 18 25 31 30 18 13 12 14 8 3 3 4 8 21 19 19 21 29 34 34 36 34 9 8 11
37 27 27 22 22 21 19 16 12 13 17 20 19 20 22 21 26 21 20 21 20 21 27 28 26 28 25 18 10 10 11 5 1 8 13 14 17 19 26 25 20 11 10 14 18
30 31 30 23 23 21 21 16 16 24 21 18 24 25 19 20 22 24 25 25 24 24 23 22 21 19 16 13 13 11 7 5 -1 2 6 10 14 17 13 20 27 27 26 25 23